[[{"header":{"parameterUnit":"m.s-1","parameterCategory":1,"la1":30.6,"la2":29.2853,"lo1":-89.7004,"lo2":-87.6739,"dx":0.0162,"dy":0.0183,"nx":112,"ny":82,"refTime":"2023-01-22T18:00:00:Z","depth":0,"parameterNumber":2,"parameterNumberName":"U-component_of_WINDS"},"data":[0.0,0.0,0.0,0.0,0.0,0.0,0.0,0.0,0.0,0.0,0.0,0.0,0.0,0.0,0.0,0.0,0.0,0.0,0.0,0.0,0.0,0.0,0.0,0.0,0.0,0.0,0.0,0.0,0.0,0.0,0.0,0.0,0.0,0.0,0.0,0.0,0.0,0.0,0.0,0.0,0.0,0.0,0.0,0.0,0.0,0.0,0.0,0.0,0.0,0.0,0.0,0.0,0.0,0.0,0.0,0.0,0.0,0.0,0.0,0.0,0.0,0.0,0.0,0.0,0.0,0.0,0.0,0.0,0.0,0.0,0.0,0.0,0.0,0.0,0.0,0.0,0.0,0.0,0.0,0.0,0.0,0.0,0.0,0.0,0.0,0.0,0.0,0.0,0.0,0.0,0.0,3.3303,3.3815,3.3866,3.3355,3.3355,3.2826,3.1709,0.0,0.0,0.0,0.0,0.0,0.0,0.0,0.0,0.0,0.0,0.0,0.0,0.0,0.0,0.0,0.0,0.0,0.0,0.0,0.0,0.0,0.0,0.0,0.0,0.0,0.0,0.0,0.0,0.0,0.0,0.0,0.0,0.0,0.0,0.0,0.0,0.0,0.0,0.0,0.0,0.0,0.0,0.0,0.0,0.0,0.0,0.0,0.0,0.0,0.0,0.0,0.0,0.0,0.0,0.0,0.0,0.0,0.0,0.0,0.0,0.0,0.0,0.0,0.0,0.0,0.0,0.0,0.0,0.0,0.0,0.0,0.0,0.0,0.0,0.0,0.0,0.0,0.0,0.0,0.0,0.0,0.0,0.0,0.0,0.0,0.0,0.0,0.0,0.0,0.0,0.0,0.0,0.0,0.0,0.0,0.0,0.0,0.0,0.0,0.0,0.0,0.0,0.0,0.0,3.3423,3.3933,3.405,3.405,3.3984,3.3984,3.3507,3.2342,0.0,0.0,0.0,0.0,0.0,0.0,0.0,0.0,0.0,0.0,0.0,0.0,0.0,0.0,0.0,0.0,0.0,0.0,0.0,0.0,0.0,0.0,0.0,0.0,0.0,0.0,0.0,0.0,0.0,0.0,0.0,0.0,0.0,0.0,0.0,0.0,0.0,0.0,0.0,0.0,0.0,0.0,0.0,0.0,0.0,0.0,0.0,0.0,0.0,0.0,0.0,0.0,0.0,0.0,0.0,0.0,0.0,0.0,0.0,0.0,0.0,0.0,0.0,0.0,0.0,0.0,0.0,0.0,0.0,0.0,0.0,0.0,0.0,0.0,0.0,0.0,0.0,0.0,0.0,0.0,0.0,0.0,0.0,0.0,0.0,0.0,0.0,0.0,0.0,0.0,0.0,0.0,0.0,0.0,0.0,0.0,0.0,0.0,0.0,0.0,0.0,0.0,0.0,3.3697,3.3815,3.405,3.4101,3.4101,3.4101,3.4101,3.3713,3.2895,3.2501,0.0,0.0,0.0,0.0,0.0,0.0,0.0,0.0,0.0,0.0,0.0,0.0,0.0,0.0,0.0,0.0,0.0,0.0,0.0,0.0,0.0,0.0,0.0,0.0,0.0,0.0,0.0,0.0,0.0,0.0,0.0,0.0,0.0,0.0,0.0,0.0,0.0,0.0,0.0,0.0,0.0,0.0,0.0,0.0,0.0,0.0,0.0,0.0,0.0,0.0,0.0,0.0,0.0,0.0,0.0,0.0,0.0,0.0,0.0,0.0,0.0,0.0,0.0,0.0,0.0,0.0,0.0,0.0,0.0,0.0,0.0,0.0,0.0,0.0,0.0,0.0,0.0,0.0,0.0,0.0,0.0,0.0,0.0,0.0,0.0,0.0,0.0,0.0,0.0,0.0,0.0,0.0,0.0,0.0,0.0,0.0,0.0,0.0,0.0,0.0,0.0,0.0,3.4101,3.4101,3.4101,3.4101,3.4101,3.4101,3.4101,3.3896,3.3488,3.3609,0.0,0.0,0.0,0.0,0.0,0.0,0.0,0.0,0.0,0.0,0.0,0.0,0.0,0.0,0.0,0.0,0.0,0.0,0.0,0.0,0.0,0.0,0.0,0.0,0.0,0.0,0.0,0.0,0.0,0.0,0.0,0.0,0.0,0.0,0.0,0.0,0.0,0.0,0.0,0.0,0.0,0.0,0.0,0.0,0.0,0.0,0.0,0.0,0.0,0.0,0.0,0.0,0.0,0.0,0.0,0.0,0.0,0.0,0.0,0.0,0.0,0.0,0.0,0.0,0.0,0.0,0.0,0.0,0.0,0.0,0.0,0.0,0.0,0.0,0.0,0.0,0.0,0.0,0.0,0.0,0.0,0.0,0.0,0.0,0.0,0.0,0.0,0.0,0.0,0.0,0.0,0.0,0.0,0.0,0.0,0.0,0.0,0.0,0.0,0.0,0.0,0.0,3.4101,3.4101,3.4101,3.4101,3.4101,3.4101,3.4101,3.4121,3.4232,3.4759,0.0,0.0,0.0,0.0,0.0,0.0,0.0,0.0,0.0,0.0,0.0,0.0,0.0,0.0,0.0,0.0,0.0,0.0,0.0,0.0,0.0,0.0,0.0,0.0,0.0,0.0,0.0,0.0,0.0,0.0,0.0,0.0,0.0,0.0,0.0,0.0,0.0,0.0,0.0,0.0,0.0,0.0,0.0,0.0,0.0,0.0,0.0,0.0,0.0,0.0,0.0,0.0,0.0,0.0,0.0,0.0,0.0,0.0,0.0,0.0,0.0,0.0,0.0,0.0,0.0,0.0,0.0,0.0,0.0,0.0,0.0,0.0,0.0,0.0,0.0,0.0,0.0,0.0,0.0,0.0,0.0,0.0,0.0,0.0,0.0,0.0,0.0,0.0,0.0,0.0,0.0,0.0,0.0,0.0,0.0,0.0,0.0,0.0,0.0,0.0,0.0,0.0,3.4101,3.4101,0.0,3.4505,3.4781,3.4781,3.5202,3.5485,3.553,0.0,0.0,0.0,0.0,0.0,0.0,0.0,0.0,0.0,0.0,0.0,0.0,0.0,0.0,0.0,0.0,0.0,0.0,0.0,0.0,0.0,0.0,0.0,0.0,0.0,0.0,0.0,0.0,0.0,0.0,0.0,0.0,0.0,0.0,0.0,0.0,0.0,0.0,0.0,0.0,0.0,0.0,0.0,0.0,0.0,0.0,0.0,0.0,0.0,0.0,0.0,0.0,0.0,0.0,0.0,0.0,0.0,0.0,0.0,0.0,0.0,0.0,0.0,0.0,0.0,0.0,0.0,0.0,0.0,0.0,0.0,0.0,0.0,0.0,0.0,0.0,0.0,0.0,0.0,0.0,0.0,0.0,0.0,0.0,0.0,0.0,0.0,0.0,0.0,0.0,0.0,0.0,0.0,0.0,0.0,0.0,0.0,0.0,0.0,0.0,0.0,0.0,3.4101,3.4295,3.4441,0.0,3.5104,3.5542,3.5542,3.6011,3.64,3.661,0.0,0.0,0.0,0.0,0.0,0.0,0.0,0.0,0.0,0.0,0.0,0.0,0.0,0.0,0.0,0.0,0.0,0.0,0.0,0.0,0.0,0.0,0.0,0.0,0.0,0.0,0.0,0.0,0.0,0.0,0.0,0.0,0.0,0.0,0.0,0.0,0.0,0.0,0.0,0.0,0.0,0.0,0.0,0.0,0.0,0.0,0.0,0.0,0.0,0.0,0.0,0.0,0.0,0.0,0.0,0.0,0.0,0.0,0.0,0.0,0.0,0.0,0.0,0.0,0.0,0.0,0.0,0.0,0.0,0.0,0.0,0.0,0.0,0.0,0.0,0.0,0.0,0.0,0.0,0.0,0.0,0.0,0.0,0.0,0.0,0.0,0.0,0.0,0.0,0.0,0.0,0.0,0.0,0.0,0.0,0.0,0.0,0.0,0.0,0.0,0.0,0.0,3.4117,3.4748,3.5185,3.5185,3.5866,3.6319,3.6319,3.6319,3.661,0.0,0.0,0.0,0.0,0.0,0.0,0.0,0.0,0.0,0.0,0.0,0.0,0.0,0.0,0.0,0.0,0.0,0.0,0.0,0.0,0.0,0.0,0.0,0.0,0.0,0.0,0.0,0.0,0.0,0.0,0.0,0.0,0.0,0.0,0.0,0.0,0.0,0.0,0.0,0.0,0.0,0.0,0.0,0.0,0.0,0.0,0.0,0.0,0.0,0.0,0.0,0.0,0.0,0.0,0.0,0.0,0.0,0.0,0.0,0.0,0.0,0.0,0.0,0.0,0.0,0.0,0.0,0.0,0.0,0.0,0.0,0.0,0.0,0.0,0.0,0.0,0.0,0.0,0.0,0.0,0.0,0.0,0.0,0.0,0.0,0.0,0.0,0.0,0.0,0.0,0.0,0.0,0.0,0.0,0.0,0.0,0.0,0.0,0.0,0.0,0.0,0.0,0.0,0.0,3.5509,3.5979,3.5979,3.6594,3.7015,3.7015,3.7485,3.7873,3.8068,0.0,0.0,0.0,0.0,0.0,0.0,0.0,0.0,0.0,0.0,0.0,0.0,0.0,0.0,0.0,0.0,0.0,0.0,0.0,0.0,0.0,0.0,0.0,0.0,0.0,0.0,0.0,0.0,0.0,0.0,0.0,0.0,0.0,0.0,0.0,0.0,0.0,0.0,0.0,0.0,0.0,0.0,0.0,0.0,0.0,0.0,0.0,0.0,0.0,0.0,0.0,0.0,0.0,0.0,0.0,0.0,0.0,0.0,0.0,0.0,0.0,0.0,0.0,0.0,0.0,0.0,0.0,0.0,0.0,0.0,0.0,0.0,0.0,0.0,0.0,0.0,0.0,0.0,0.0,0.0,0.0,0.0,0.0,0.0,0.0,0.0,0.0,0.0,0.0,0.0,0.0,0.0,0.0,0.0,0.0,0.0,0.0,0.0,0.0,0.0,0.0,0.0,3.5639,3.6254,3.6707,3.6707,3.7339,3.7744,3.7744,3.8149,3.8391,3.8391,0.0,0.0,0.0,0.0,0.0,0.0,0.0,0.0,0.0,0.0,0.0,0.0,0.0,0.0,0.0,0.0,0.0,0.0,0.0,0.0,0.0,0.0,0.0,0.0,0.0,0.0,0.0,0.0,0.0,0.0,0.0,0.0,0.0,0.0,0.0,0.0,0.0,0.0,0.0,0.0,0.0,0.0,0.0,0.0,0.0,0.0,0.0,0.0,0.0,0.0,0.0,0.0,0.0,0.0,0.0,0.0,0.0,0.0,0.0,0.0,0.0,0.0,0.0,0.0,0.0,0.0,0.0,0.0,0.0,0.0,0.0,0.0,0.0,0.0,0.0,0.0,0.0,0.0,0.0,0.0,0.0,0.0,0.0,0.0,0.0,0.0,0.0,0.0,0.0,0.0,0.0,0.0,0.0,0.0,0.0,0.0,0.0,0.0,0.0,0.0,0.0,0.0,3.64,3.6999,3.742,3.742,3.8003,3.8391,3.8391,3.8391,3.8391,3.8391,0.0,0.0,0.0,0.0,0.0,0.0,0.0,0.0,0.0,0.0,0.0,0.0,0.0,0.0,0.0,0.0,0.0,0.0,0.0,0.0,0.0,0.0,0.0,0.0,0.0,0.0,0.0,0.0,0.0,0.0,0.0,0.0,0.0,0.0,0.0,0.0,0.0,0.0,0.0,0.0,0.0,0.0,0.0,0.0,0.0,0.0,0.0,0.0,0.0,0.0,0.0,0.0,0.0,0.0,0.0,0.0,0.0,0.0,0.0,0.0,2.8703,0.0,0.0,0.0,0.0,0.0,0.0,0.0,0.0,0.0,0.0,0.0,0.0,0.0,0.0,0.0,0.0,0.0,0.0,0.0,0.0,0.0,0.0,0.0,0.0,0.0,0.0,0.0,0.0,0.0,0.0,0.0,0.0,0.0,0.0,0.0,0.0,0.0,0.0,0.0,0.0,0.0,3.7112,3.7728,3.8165,3.8165,3.8311,3.8391,3.8391,3.8391,3.8391,3.8391,0.0,0.0,0.0,0.0,0.0,0.0,0.0,0.0,0.0,0.0,0.0,0.0,0.0,0.0,0.0,0.0,0.0,0.0,0.0,0.0,0.0,0.0,0.0,0.0,0.0,0.0,0.0,0.0,0.0,0.0,0.0,0.0,0.0,0.0,0.0,0.0,0.0,0.0,0.0,0.0,0.0,0.0,0.0,0.0,0.0,0.0,0.0,0.0,0.0,0.0,0.0,0.0,0.0,0.0,0.0,0.0,0.0,0.0,0.0,0.0,0.0,2.9152,0.0,0.0,0.0,0.0,0.0,0.0,0.0,0.0,0.0,0.0,0.0,0.0,0.0,0.0,0.0,0.0,0.0,0.0,0.0,0.0,0.0,0.0,0.0,0.0,0.0,0.0,0.0,0.0,0.0,0.0,0.0,0.0,0.0,0.0,0.0,0.0,0.0,0.0,0.0,0.0,3.7897,3.8221,3.8448,3.86,3.856,3.8504,3.86,3.86,3.86,3.86,3.86,0.0,0.0,0.0,0.0,0.0,0.0,0.0,0.0,0.0,0.0,0.0,0.0,0.0,0.0,0.0,0.0,0.0,0.0,0.0,0.0,0.0,0.0,0.0,0.0,0.0,0.0,0.0,0.0,0.0,0.0,0.0,0.0,0.0,0.0,0.0,0.0,0.0,0.0,0.0,0.0,0.0,0.0,0.0,0.0,0.0,0.0,0.0,0.0,0.0,0.0,0.0,0.0,0.0,2.8434,2.8681,2.8936,2.9977,3.0582,3.0882,3.0778,3.0603,3.0402,0.0,0.0,0.0,0.0,0.0,0.0,0.0,0.0,0.0,0.0,0.0,0.0,0.0,0.0,0.0,0.0,0.0,0.0,0.0,0.0,0.0,0.0,0.0,0.0,0.0,3.515,3.5509,0.0,0.0,0.0,0.0,0.0,0.0,0.0,0.0,0.0,0.0,0.0,0.0,3.856,3.856,3.8544,3.8694,3.8655,3.8672,3.8766,3.8805,3.8805,3.8805,3.8805,3.875,0.0,0.0,0.0,0.0,0.0,0.0,0.0,0.0,0.0,0.0,0.0,0.0,0.0,0.0,0.0,0.0,0.0,0.0,0.0,0.0,0.0,0.0,0.0,0.0,0.0,0.0,0.0,0.0,0.0,0.0,0.0,0.0,2.713,2.713,0.0,0.0,0.0,0.0,0.0,0.0,0.0,0.0,0.0,0.0,0.0,0.0,0.0,0.0,2.8748,2.9548,2.9639,2.9112,2.9771,3.0416,3.1014,3.1159,3.1803,3.2861,3.3374,0.0,3.1223,3.2878,0.0,0.0,0.0,0.0,0.0,0.0,0.0,0.0,0.0,0.0,0.0,0.0,0.0,0.0,0.0,0.0,0.0,0.0,0.0,0.0,0.0,0.0,3.5447,3.5447,3.5901,3.6356,0.0,3.6359,3.6336,3.6336,0.0,0.0,0.0,0.0,0.0,0.0,0.0,0.0,3.8616,3.8766,3.8821,3.8504,3.856,3.8632,3.8616,3.875,3.8805,3.8805,3.8805,3.886,3.8914,3.886,0.0,0.0,0.0,0.0,0.0,0.0,0.0,0.0,0.0,0.0,0.0,0.0,0.0,0.0,0.0,0.0,0.0,0.0,0.0,0.0,0.0,0.0,0.0,0.0,0.0,0.0,0.0,0.0,0.0,2.7181,2.7181,2.7181,2.7144,2.7144,0.0,0.0,0.0,0.0,0.0,0.0,0.0,0.0,0.0,2.8094,2.8717,2.9386,3.0046,3.0396,3.0655,3.0814,3.1231,3.1565,3.1878,3.2598,3.322,3.3748,3.4284,3.4072,3.3323,3.3875,3.3906,3.3697,0.0,0.0,0.0,0.0,0.0,3.3713,3.4284,3.4431,0.0,0.0,0.0,0.0,0.0,0.0,0.0,0.0,0.0,0.0,0.0,0.0,0.0,3.6303,3.6878,3.7403,3.7508,3.7715,3.7756,0.0,3.7639,3.8072,3.7922,0.0,0.0,0.0,0.0,0.0,3.9242,3.9152,3.9077,3.8947,3.8969,3.9023,3.9002,3.9418,3.9645,3.9506,3.9454,3.9454,3.9454,3.9098,3.8914,0.0,0.0,0.0,0.0,0.0,0.0,0.0,0.0,0.0,0.0,0.0,0.0,0.0,0.0,0.0,0.0,0.0,0.0,0.0,0.0,0.0,0.0,0.0,0.0,0.0,0.0,0.0,0.0,2.7321,2.7321,2.7321,2.7372,2.7458,0.0,0.0,0.0,0.0,0.0,0.0,2.7625,2.8076,2.851,2.8935,2.9694,3.0514,3.1365,3.156,3.1843,3.2238,3.2526,3.2695,3.2711,3.3691,3.4151,3.4349,3.4756,3.4899,3.4851,3.4448,3.43,3.43,3.43,3.4018,3.3716,3.4578,3.4643,3.4349,3.4739,3.4899,3.4899,3.4899,0.0,3.4932,3.5018,0.0,0.0,0.0,0.0,3.6257,3.6699,3.703,3.723,3.723,3.7738,3.8319,3.8424,3.8768,3.875,0.0,3.8374,3.875,3.856,0.0,0.0,0.0,0.0,3.9594,3.9645,3.9594,3.9454,3.9255,3.9435,3.9575,3.9556,4.007,4.0351,4.0203,4.0053,3.9952,3.9834,3.9365,3.904,3.8914,0.0,0.0,0.0,0.0,0.0,0.0,0.0,0.0,0.0,0.0,0.0,0.0,0.0,0.0,0.0,0.0,0.0,0.0,0.0,0.0,0.0,0.0,0.0,0.0,0.0,0.0,0.0,0.0,0.0,2.7575,2.7845,0.0,0.0,0.0,0.0,2.8255,2.7845,2.7795,2.8255,2.8288,2.9077,3.0706,3.083,3.1397,3.263,3.328,3.3412,3.2983,3.3646,3.3986,3.3986,3.4084,3.4399,3.4851,3.4899,3.4899,3.4899,3.4899,3.4851,3.4851,3.4851,3.4835,3.4835,3.4899,3.4899,3.4835,3.4899,3.4899,3.4899,3.4899,3.4899,3.5032,3.5727,3.5943,0.0,0.0,3.7052,3.7052,3.7102,3.7632,3.8162,3.8162,3.857,3.8974,3.9222,3.9131,3.8969,0.0,3.8827,3.8805,3.8805,0.0,3.9506,3.9418,4.0036,4.0235,3.9348,3.9986,4.0136,3.9115,3.9697,4.0136,4.0136,4.0302,4.0497,4.0754,4.0302,4.0003,4.0003,3.9556,3.9272,3.9272,3.9272,0.0,0.0,0.0,0.0,0.0,0.0,0.0,0.0,0.0,0.0,0.0,0.0,0.0,0.0,0.0,0.0,0.0,0.0,0.0,0.0,0.0,0.0,0.0,0.0,0.0,0.0,0.0,0.0,2.8559,2.8654,0.0,0.0,2.8795,2.8732,2.8826,2.8352,2.8255,2.8779,2.9249,2.9958,3.0862,3.1634,3.2512,3.3392,3.3657,3.3928,3.4216,3.4479,3.4594,3.4594,3.4594,3.4691,3.4899,3.4899,3.4899,3.4899,3.4899,3.4899,3.4899,3.4899,3.4899,3.4899,3.4899,3.4899,3.4899,3.4899,3.4899,3.4982,3.5446,3.5611,3.5744,3.6489,3.6721,3.687,3.7615,3.7814,3.793,3.8377,3.8692,3.8907,3.8907,3.902,3.9202,3.9272,3.9218,3.9292,3.9558,3.961,3.9506,3.9348,3.9902,4.0449,4.0607,4.0832,4.0926,4.0703,4.0879,4.0754,4.0203,4.0546,4.0784,4.0594,4.1065,4.1356,4.1265,4.1047,4.0814,4.0546,4.002,3.9592,3.9325,3.9272,3.9272,0.0,0.0,0.0,0.0,0.0,0.0,0.0,0.0,0.0,0.0,0.0,0.0,0.0,0.0,0.0,0.0,0.0,0.0,0.0,0.0,0.0,0.0,0.0,0.0,0.0,0.0,2.9074,2.9074,2.9257,2.9348,2.9348,2.9348,2.9348,2.9348,2.9093,2.9187,2.9653,3.0432,3.1162,3.1867,3.2661,3.3425,3.4154,3.417,3.4419,3.4899,3.4899,3.4899,3.4899,3.4899,3.4899,3.4899,3.4899,3.4899,3.4899,3.4899,3.4899,3.4899,3.4899,3.4899,3.4899,3.4899,3.4899,3.4932,3.5181,3.5429,3.5727,3.6224,3.6373,3.6506,3.7251,3.7483,3.7632,3.8361,3.8576,3.8676,3.9156,3.9272,3.9272,3.9272,3.9272,3.9272,3.9272,3.9415,3.9644,3.9952,4.0003,4.0003,4.0003,4.0594,4.1065,4.123,4.1356,4.1418,4.1356,4.1401,4.1283,4.0896,4.1237,4.1373,4.1192,4.1596,4.1874,4.177,4.1622,4.1338,4.1019,4.04,3.9868,3.9556,3.9362,3.9272,3.9272,0.0,0.0,0.0,0.0,0.0,0.0,0.0,0.0,0.0,0.0,0.0,0.0,0.0,0.0,0.0,0.0,0.0,0.0,0.0,0.0,0.0,0.0,0.0,2.9257,2.912,2.912,2.912,2.9528,2.9793,2.9793,2.987,2.9886,2.9886,3.0096,3.0449,3.0911,3.1637,3.2586,3.3773,3.3806,3.417,3.4883,3.4899,3.4899,3.4899,3.4899,3.4899,3.4899,3.4899,3.4899,3.4899,3.4899,3.4899,3.4899,3.4899,3.4899,3.4899,3.4899,3.4899,3.4899,3.4932,3.4949,3.5065,3.5794,3.6506,3.7102,3.7135,3.7135,3.7284,3.803,3.8245,3.8394,3.9073,3.9272,3.9325,3.9325,3.9325,3.9325,3.9325,3.9325,3.9325,3.9325,3.9679,4.0053,4.0053,4.0053,4.0203,4.0754,4.1202,4.1445,4.1237,4.1613,0.0,4.1128,4.1552,4.1683,4.1111,4.1552,4.1917,4.1917,4.1917,4.2019,4.2287,4.1813,4.1534,4.1472,4.0577,4.0053,4.0003,3.954,3.9325,3.9272,0.0,0.0,0.0,0.0,0.0,0.0,0.0,0.0,0.0,0.0,0.0,0.0,0.0,0.0,0.0,0.0,0.0,0.0,0.0,0.0,0.0,0.0,2.9881,2.9661,2.9897,3.0113,3.0113,3.0258,3.03,3.03,3.0777,3.109,3.109,3.1342,3.1702,3.2204,3.2555,3.3092,3.3789,3.4319,3.4684,3.4899,3.4899,3.4899,3.4899,3.4899,3.4899,3.4899,3.4899,3.4899,3.4899,3.4899,3.4899,3.4899,3.4899,3.4899,3.4899,3.4899,3.4899,3.4965,3.5495,3.6042,3.6522,3.6738,3.6936,3.7201,3.7731,3.7914,3.8046,3.8758,3.899,3.9023,3.9222,3.9272,3.9362,3.9731,3.9556,3.9362,3.9731,3.9817,3.9817,3.9817,4.0203,4.0689,4.1001,4.1094,4.1139,4.1293,4.1727,4.2061,4.2019,4.2103,0.0,4.1959,4.2103,4.2145,4.1959,4.2103,4.2187,4.2187,4.2187,4.2246,0.0,4.2145,4.1917,4.1534,4.123,4.0767,4.0003,3.9868,3.9644,0.0,0.0,0.0,0.0,0.0,0.0,0.0,0.0,0.0,0.0,0.0,0.0,0.0,0.0,0.0,0.0,0.0,0.0,0.0,0.0,0.0,0.0,3.0258,3.0113,3.0113,3.0342,3.0526,3.0526,3.0791,3.0974,3.0974,3.1636,3.2067,3.2067,3.2475,3.2869,3.316,3.3606,3.4001,3.4253,3.4667,3.4899,3.4899,3.4899,3.4899,3.4899,3.4899,3.4899,3.4899,3.4899,3.4899,0.0,3.4899,3.4899,3.4916,3.523,3.549,0.0,0.0,0.0,0.0,0.0,3.6936,3.7566,3.7566,3.7765,3.8079,3.851,3.8659,3.8778,3.9423,3.9592,3.9592,3.9592,3.9747,3.9935,4.002,3.9969,3.9986,4.0252,4.0351,4.0351,4.0351,4.0737,4.1157,4.1445,0.0,0.0,4.1856,4.2086,4.2287,4.2287,4.2287,4.2287,4.2287,4.2287,4.2287,4.2287,4.2287,4.2287,4.2287,4.2287,0.0,0.0,0.0,4.2044,4.1516,4.1472,0.0,0.0,0.0,4.007,0.0,0.0,0.0,0.0,3.9073,3.9056,0.0,0.0,0.0,0.0,0.0,0.0,0.0,0.0,0.0,0.0,0.0,0.0,0.0,0.0,0.0,0.0,3.0593,3.06,3.06,3.0709,3.0742,3.0642,3.1305,3.1692,3.1692,3.2398,3.2812,3.2812,3.3491,3.3905,3.3905,0.0,0.0,0.0,0.0,3.4899,3.4899,3.493,3.493,3.4899,3.493,3.4977,3.4977,3.4977,3.5024,3.5071,3.5071,3.5121,3.5238,3.5904,3.6541,3.7068,3.6417,3.6256,3.6406,3.6986,3.7733,3.8415,3.8415,0.0,0.0,3.9468,3.9468,3.9556,3.9969,4.0103,4.0103,4.0103,4.0449,4.0707,4.0302,4.0497,4.0802,4.0849,4.0896,4.0896,4.0896,4.1248,4.1578,4.1578,4.1959,4.2287,4.2287,4.2287,4.2287,4.2287,4.2287,4.2287,4.2287,4.2287,4.2287,4.2287,0.0,0.0,4.2287,4.2287,4.2287,4.2287,4.2287,4.2103,4.1622,4.1578,4.1356,4.0896,4.0896,4.0594,4.0103,4.0103,3.9885,3.9468,3.9379,3.9272,0.0,0.0,0.0,0.0,0.0,0.0,0.0,0.0,0.0,0.0,0.0,0.0,0.0,0.0,0.0,3.0526,3.0981,3.1404,3.1404,3.1901,3.205,3.147,3.205,3.2481,3.2481,3.3143,3.3574,3.3574,3.427,3.4684,3.4684,3.4816,0.0,3.4899,3.4899,3.4899,3.4899,3.5287,3.527,3.4899,0.0,0.0,3.5453,3.5453,3.5661,3.5933,3.5933,3.6319,3.6945,3.7082,3.7916,3.9026,3.7882,3.7826,3.8302,3.8068,3.867,3.9649,3.9649,4.0051,4.0514,4.0514,4.0514,4.0514,4.0611,4.0659,0.0,4.0659,4.0707,4.0849,4.1157,4.1019,4.0896,4.1248,4.1338,4.1338,4.1338,4.177,4.2145,4.2145,4.2228,4.2287,4.2287,4.2287,4.2287,4.2287,4.2287,4.2287,4.2287,4.2287,4.2287,4.2287,4.2287,4.2287,4.2287,4.2287,4.2287,4.2287,4.2287,4.2246,4.2145,4.2145,4.1917,4.1383,4.1338,4.1111,4.0659,4.0659,4.0611,4.0466,3.9661,3.9272,0.0,0.0,0.0,0.0,0.0,0.0,0.0,0.0,0.0,0.0,0.0,3.0526,0.0,0.0,3.1031,3.1031,3.1686,3.215,3.215,3.2779,3.2978,3.2249,3.2796,3.3316,3.3583,3.4298,3.479,3.4996,3.5143,3.5241,3.5241,3.5024,3.5024,3.5241,3.5241,3.5362,3.5554,3.5776,3.5776,3.5554,3.5776,3.5907,3.5907,3.5907,3.6225,3.6801,3.6801,3.7275,3.8061,3.8643,3.9582,4.0548,3.9905,3.9714,3.9788,3.9295,3.9665,4.04,4.04,4.0611,4.0802,4.0802,4.0802,4.0849,4.1065,4.1157,4.1157,4.1157,4.1356,4.1534,4.1534,4.1534,4.1596,4.1856,4.1899,4.1899,4.1899,4.2103,4.2287,4.2287,4.2287,4.2287,4.2287,4.2287,4.2287,4.2287,4.2287,4.2287,4.2287,4.2287,4.2287,4.2287,4.2287,4.2287,4.2287,4.2287,4.2287,4.2287,4.2287,4.2287,4.2287,4.2287,4.2187,4.1917,4.1899,4.1666,4.1157,4.1157,4.1036,4.0802,4.0269,4.0037,0.0,0.0,0.0,0.0,0.0,0.0,0.0,0.0,2.9941,2.9941,3.0356,3.0683,3.0683,3.1364,3.1948,3.1948,3.2634,3.3188,3.3188,3.3824,3.4074,3.3456,3.3851,3.4354,3.4779,3.5348,3.5864,3.619,3.5907,3.5705,3.5705,3.5362,3.5316,3.5688,3.5705,3.5864,3.619,3.6454,3.6523,3.6456,3.6679,3.6807,3.6807,3.6807,3.7178,3.7895,3.8051,3.8512,3.9181,4.0313,4.1102,4.1666,4.1516,4.1338,4.1036,4.04,4.0497,4.0943,4.0943,4.099,4.1082,4.1082,4.1082,4.1174,4.1534,4.1666,4.1666,4.1666,4.1959,4.2187,4.177,4.1959,4.2287,4.2287,4.2287,4.2287,4.2287,4.2287,4.2287,4.2287,4.2287,4.2287,4.2287,4.2287,4.2287,4.2287,4.2287,4.2287,4.2287,4.2287,4.2287,4.2287,4.2287,4.2287,4.2287,4.2287,4.2287,4.2287,4.2287,4.2287,4.2287,4.2287,4.2287,4.2287,4.2287,4.2103,4.1666,4.1666,4.1445,4.1082,4.1082,4.099,0.0,0.0,0.0,2.9212,2.9705,3.0241,0.0,0.0,3.0426,3.0426,3.0997,3.1461,3.1461,3.2412,3.3195,3.3195,3.4157,3.4943,3.4943,3.5521,3.5891,3.5805,3.5562,3.5569,3.5985,3.6096,3.6147,3.619,3.6147,3.613,3.613,3.6105,3.6105,3.6147,3.613,3.613,3.6172,3.7324,3.7672,3.7292,3.8388,3.8965,3.8965,3.8965,3.9206,3.9651,4.0402,4.0758,4.09,4.1742,4.2157,4.2145,4.1666,4.177,4.2019,4.1065,4.1019,4.1428,4.1428,4.1709,4.2145,4.2145,4.2145,4.2145,4.2187,4.2187,4.2187,4.2187,4.2246,4.2287,4.2246,4.2246,4.2287,4.2287,4.2287,4.2287,4.2287,4.2287,4.2287,4.2287,4.2287,4.2287,4.2287,4.2287,4.2287,4.2287,4.2287,4.2287,4.2287,4.2287,4.2287,4.2287,4.2287,4.2287,4.2287,4.2287,4.2287,4.2287,4.2287,4.2287,4.2287,4.2287,4.2287,4.2287,4.2287,4.2287,4.2187,4.2187,4.2187,4.2145,4.2145,4.164,3.014,0.0,0.0,0.0,3.0199,3.0426,3.0241,3.0342,3.06,3.1031,3.16,3.206,3.2193,3.3465,3.4353,0.0,3.501,3.5766,3.5766,3.6025,3.6298,3.6563,3.644,3.6399,3.6603,3.6603,3.6724,3.6978,3.6781,3.6603,3.6603,3.6357,3.6547,3.7306,3.7324,3.7656,3.8355,3.8868,3.9045,3.8848,3.9381,3.9638,3.9638,3.9638,4.0006,4.0646,4.1448,4.1787,4.1805,4.2144,4.2287,4.2287,4.2044,4.2086,4.2187,4.149,4.1534,4.1959,4.1959,4.2103,4.2287,4.2287,4.2287,4.2287,4.2287,4.2287,4.2287,4.2287,4.2287,4.2287,4.2287,4.2287,4.2287,4.2287,4.2287,4.2287,4.2287,4.2287,4.2287,4.2287,4.268,4.3001,4.3001,4.3358,4.3643,4.3643,4.2858,4.2287,4.2287,4.2287,4.2287,4.2287,4.2287,4.2287,4.2287,4.2287,4.2287,4.2287,4.2287,4.2287,4.2287,4.2287,4.2287,4.2287,4.2287,4.2287,4.2287,4.2287,4.2287,4.2287,4.2287,4.2061,3.0733,0.0,0.0,3.051,3.0526,3.0526,3.0526,3.0675,3.0931,3.1477,3.2303,3.2992,3.3144,3.455,0.0,3.5248,3.597,3.6603,3.6603,3.6603,3.6724,3.7073,3.7111,3.7111,3.7111,3.7111,3.7243,3.7577,3.7281,3.7179,3.739,3.7114,3.7446,3.8576,3.8594,3.9036,3.9896,4.0128,4.0235,4.0235,4.0467,4.0574,4.0574,4.0574,4.0877,4.1448,4.2037,4.2287,4.2287,4.2287,4.2287,4.2287,4.2287,4.2287,4.2246,4.1856,4.1959,4.2287,4.2287,4.2287,4.2287,4.2287,4.2287,4.2287,4.2287,4.2287,4.2287,4.2287,4.2287,4.2287,4.2287,4.2287,4.2287,4.2287,4.2465,4.2626,4.2626,4.2787,4.2929,4.2929,4.3411,4.3822,4.3822,4.4268,4.4624,4.4624,4.3661,4.2929,4.2929,4.2929,4.2929,4.2929,4.2929,4.2929,4.2929,4.2929,4.2929,4.2929,4.2929,4.2929,4.2929,4.2929,4.2929,4.2929,4.2929,4.2929,4.2929,4.2929,4.2929,4.2929,4.2929,4.2929,0.0,0.0,3.0651,3.051,3.0526,3.0526,3.0526,3.1031,3.1543,3.1576,3.3125,3.4438,3.4455,3.5739,3.6825,3.6825,3.7226,3.754,3.754,3.754,3.7577,3.7577,3.7577,3.7577,0.0,3.7577,3.7577,3.7577,3.7577,3.7933,3.8681,3.8734,3.9073,3.9804,3.9839,3.9839,3.9914,4.0681,4.1056,4.1074,4.1841,4.2216,4.2216,4.2216,4.2234,4.2251,4.2287,4.2287,4.2287,4.2287,4.2287,4.2287,4.2287,4.2287,4.2287,4.2287,4.2287,4.2287,4.2287,4.2287,4.2287,4.2287,4.2287,4.2287,4.2287,4.2287,4.2287,4.2287,4.2287,4.2287,4.2287,4.2287,4.2287,4.2287,4.2894,4.3465,4.3465,4.4036,4.4553,4.4553,4.4571,4.4589,4.4589,4.4607,4.4624,4.4624,4.4571,4.4553,4.4553,4.4553,4.4553,4.4553,4.4553,4.4553,4.4553,4.4553,4.4553,4.4553,4.4553,4.4553,4.4553,4.4553,4.4553,4.4553,4.4553,4.4553,4.4553,4.4553,4.4553,4.4553,4.4553,4.4553,0.0,0.0,3.1528,3.1397,3.1321,3.1436,3.1969,3.2293,3.2753,3.3775,3.4726,3.5428,3.5599,3.6566,3.7243,3.6939,3.7281,3.7577,3.7577,3.7577,3.7577,3.7577,3.7577,0.0,0.0,0.0,0.0,3.8362,3.8397,3.8736,3.9504,3.9539,3.9896,4.0681,4.0699,4.0949,4.1484,4.1752,4.1895,4.1895,4.2162,4.2391,4.2573,4.2391,4.2287,4.2287,4.2287,4.2391,4.2573,4.2573,4.2691,4.2862,4.2652,4.2573,4.2534,4.2369,4.2287,4.2287,4.2287,4.2287,4.2287,4.2287,4.2287,4.2287,4.2287,4.2287,4.2287,4.2287,4.268,4.3108,4.3108,4.3465,4.3839,4.3839,4.4036,4.425,4.425,4.4599,4.491,4.491,4.5342,4.572,4.572,4.5996,4.6284,4.6485,4.5416,4.4693,4.491,4.491,4.5011,4.5254,4.5075,4.491,4.491,4.4736,4.4624,4.4624,4.4624,4.4624,4.4624,4.4624,4.4624,4.4624,4.4624,4.4624,4.4624,4.4624,4.4624,4.4624,4.4624,4.4624,0.0,3.1914,3.2021,3.1861,3.196,3.2323,3.2807,3.3343,3.4056,3.5065,3.5815,3.632,3.6475,3.7111,3.7503,3.7206,3.7411,3.7577,3.7577,3.7685,3.7757,3.7757,3.7828,0.0,0.0,0.0,0.0,3.8772,3.9058,3.9578,4.0462,4.0497,4.0856,4.1644,4.1662,4.1912,4.2414,4.2432,4.2512,4.2631,4.2631,4.2691,4.2864,4.2709,4.2631,4.2631,4.2631,4.2729,4.2882,4.2882,4.2995,4.3196,4.3266,4.3299,4.3335,4.343,4.3458,4.3386,4.2691,4.2432,4.2508,4.2915,4.2965,4.2938,4.3225,4.3233,4.3126,4.3126,4.35,4.3911,4.3911,4.425,4.4624,4.4624,4.4907,4.519,4.519,4.5701,4.6146,4.6146,4.6545,4.6907,4.6907,4.715,4.7407,4.7663,4.6627,4.59,4.6106,4.6146,4.6226,4.6424,4.6266,4.6106,4.5983,4.5858,4.5749,4.562,4.5749,4.5749,4.5638,4.5638,4.5595,4.5463,4.5463,4.5463,4.5463,4.5463,4.5463,4.5463,4.5463,4.5463,3.2179,3.2144,3.2109,3.1985,3.2505,3.3097,3.3184,3.4332,3.5374,3.5492,3.6373,3.7129,0.0,0.0,3.7613,3.7613,3.7613,3.7631,3.7649,3.7845,3.8018,0.0,0.0,0.0,0.0,0.0,0.0,3.899,0.0,4.0518,4.1611,4.1684,4.2009,4.2714,4.275,4.275,4.275,4.275,4.2902,4.3196,4.3214,4.3214,4.3196,4.3214,4.3233,4.3269,4.3269,4.3287,4.336,4.336,4.336,4.3433,4.4181,4.4473,4.4564,4.5331,4.5605,4.5348,4.3498,4.2858,4.3023,4.4106,4.4247,4.414,4.4881,4.4887,4.465,4.4607,4.4686,4.4721,4.4678,4.4714,4.4775,4.4732,4.5587,4.638,4.638,4.7225,4.8032,4.8032,4.8032,4.8032,4.7992,4.7992,4.8032,4.8032,4.8032,4.8032,4.8032,4.8032,4.8032,4.8032,4.8032,4.7911,4.7578,4.7829,4.787,4.7554,4.7829,4.787,4.7554,4.7511,4.7338,4.7025,4.6998,4.6998,4.6998,4.6998,4.6998,4.6998,4.6998,4.6998,3.2699,3.2798,3.3122,3.3663,3.3883,3.4278,3.5472,3.6061,3.6506,3.7131,3.7416,3.7559,0.0,0.0,0.0,3.7863,3.788,0.0,3.8153,3.8252,0.0,0.0,0.0,3.9349,3.9483,4.0643,0.0,0.0,4.1361,4.1833,4.2741,4.2796,4.2887,4.3069,4.3069,4.3069,4.3069,4.3069,4.3214,4.3495,4.3304,4.3304,4.3495,4.3304,4.3524,4.409,4.409,4.4547,4.5294,4.5294,4.5436,4.5663,4.5604,4.5606,4.5589,4.5589,4.5605,4.555,4.5242,4.504,4.4907,4.5202,4.5219,4.5217,4.5417,4.5394,4.5276,4.5034,4.559,4.6101,4.5612,4.6302,4.7089,4.6812,4.7168,4.7561,4.7561,4.7947,4.8307,4.8307,4.8307,4.8231,4.8032,4.8172,4.8307,4.8307,4.8514,4.8587,4.8307,4.8307,4.8383,4.8642,4.8439,4.8269,4.8192,4.8053,4.7951,4.787,4.7951,4.7951,4.787,4.7621,4.7468,4.7381,4.7116,4.6998,4.6998,4.6998,4.6998,4.6998,4.6998,4.6998,3.3129,3.3196,3.3521,3.4303,3.4704,3.5181,3.6474,3.7032,3.746,3.808,3.8002,0.0,0.0,0.0,0.0,0.0,0.0,0.0,3.8382,3.8478,3.859,0.0,3.9399,0.0,4.0276,4.153,4.2463,0.0,4.2591,4.2775,4.3338,4.3375,4.3375,4.3375,4.3375,4.3375,4.3375,4.3495,4.3815,4.435,4.4202,4.4386,4.4887,4.4718,4.4888,4.5329,0.0,4.5674,4.6237,4.6237,4.6323,4.6531,4.666,4.6755,4.6757,4.6966,4.704,4.7077,4.7202,4.7166,4.6985,4.6636,4.6434,4.6378,4.6726,4.674,4.6624,4.6426,4.6833,4.7237,4.685,4.7402,4.7951,4.7747,4.7933,4.8172,4.8172,4.8402,4.8623,4.8623,4.8623,4.8587,4.8402,4.8514,4.8623,4.8623,4.8785,4.882,4.866,4.8623,4.8695,4.8874,4.875,4.855,4.8421,4.8402,4.8326,4.8172,4.8326,4.8326,4.8172,4.7995,4.777,4.7511,4.7338,4.7205,4.7205,4.707,4.7088,4.7205,4.7088,4.6998,3.3509,3.3553,3.3785,3.454,3.5255,3.6031,3.6855,3.7579,3.8168,3.8566,0.0,0.0,3.831,0.0,3.8052,3.8086,0.0,3.8446,3.8478,3.8695,3.8888,3.8999,3.9915,4.0778,4.1359,4.2341,4.315,4.3609,4.3426,4.341,4.3664,4.3646,4.3646,4.3646,4.3775,4.383,4.383,4.417,4.4711,4.5454,4.5454,4.5807,4.6494,4.6494,4.655,4.6661,0.0,0.0,4.6828,4.6828,4.6828,4.6884,4.759,4.7868,4.7943,4.8649,4.8909,4.8909,4.8909,4.8909,4.8779,4.8091,4.7659,4.7555,4.8255,4.8307,4.8111,4.8072,4.8072,4.8111,4.8032,4.8072,4.8111,4.8053,4.8269,4.8458,4.8458,4.8695,4.8909,4.8909,4.8909,4.8909,4.8909,4.8909,4.8909,4.8909,4.8909,4.8909,4.8909,4.8909,4.8909,4.8909,4.8909,4.8785,4.8495,4.8731,4.8785,4.8495,4.875,4.8785,4.8458,4.8421,4.8153,4.7621,4.7578,4.7554,4.7554,4.7294,4.7294,4.7554,4.7294,4.7116,3.4074,3.4392,3.4887,3.5711,3.6321,3.7025,3.8045,3.84,0.0,0.0,0.0,3.8597,3.864,0.0,0.0,3.8621,0.0,0.0,0.0,0.0,0.0,0.0,0.0,0.0,0.0,0.0,0.0,0.0,0.0,0.0,4.3942,4.3923,4.3923,4.3923,4.4628,4.4999,4.4999,4.57,4.6141,4.629,4.629,4.6364,4.6494,4.6494,4.6865,4.7497,0.0,0.0,4.8481,4.8481,4.8481,4.85,4.8649,4.8686,4.8723,4.8853,4.8909,4.8909,4.8909,4.8909,4.889,4.8742,4.8651,4.8635,4.8783,4.8785,4.8678,4.8402,4.8514,4.8642,4.8151,4.8364,4.8678,4.8402,4.8587,4.882,4.882,4.8874,4.8909,4.8909,4.8909,4.8909,4.8909,4.8909,4.8909,4.8909,4.8909,4.8909,4.8909,4.8909,4.8909,4.8909,4.8909,4.8874,4.882,4.8874,4.8874,4.882,4.8874,4.8855,4.882,4.855,4.8345,4.8231,4.8014,4.7911,4.7911,4.787,4.787,4.7911,4.787,4.7829,3.4723,3.5013,3.552,3.675,3.7274,3.7713,3.8604,0.0,0.0,0.0,0.0,0.0,3.8933,0.0,0.0,0.0,0.0,0.0,0.0,0.0,0.0,0.0,0.0,0.0,0.0,0.0,0.0,0.0,0.0,0.0,4.4005,4.4432,4.4674,4.4674,4.5491,4.5918,4.5918,4.6308,4.6717,4.7125,4.7125,4.7348,4.7757,4.7757,4.7961,4.8314,4.8314,0.0,4.8909,4.8909,4.8909,4.8909,4.8909,4.8909,4.8909,4.8909,4.8909,4.8909,4.8909,4.8909,4.8909,4.8909,4.8909,4.8909,4.8909,4.8909,4.8874,4.8714,4.8785,4.882,4.855,4.8678,4.8874,4.8695,4.8785,4.8909,4.8909,4.8909,4.8909,4.8909,4.8909,4.8909,4.8909,4.8909,4.8909,4.8909,4.8909,4.8909,4.8909,4.8909,4.8909,4.8909,4.8909,4.8909,4.8909,4.8909,4.8909,4.8909,4.8909,4.8909,4.8909,4.875,4.8587,4.8421,4.8269,4.821,4.821,4.8072,4.8053,4.821,4.8072,4.7992,3.5357,3.5664,3.61,3.759,3.8066,3.8292,3.896,3.9109,0.0,0.0,0.0,0.0,0.0,0.0,0.0,0.0,0.0,0.0,0.0,0.0,0.0,0.0,0.0,0.0,0.0,0.0,0.0,0.0,0.0,0.0,4.4283,4.4934,4.5379,4.5547,4.6345,4.6754,4.6754,4.6921,4.733,4.7961,4.7961,4.8296,4.8909,4.8909,4.8909,4.8909,4.8909,0.0,0.0,4.8909,4.8909,4.8909,4.8909,4.8909,4.8909,4.8909,4.8909,4.8909,4.8909,4.8909,4.8909,4.8909,4.8909,4.8909,4.8909,4.8909,4.8909,4.8909,4.8909,4.8909,4.8909,4.8909,4.8909,4.8909,4.8909,4.8909,4.8909,4.8909,4.8909,4.8909,4.8909,4.8909,4.8909,4.8909,4.8909,4.8909,4.8909,4.8909,4.8909,4.8909,4.8909,4.8909,4.8909,4.8909,4.8909,4.8909,4.8909,4.8909,4.8909,4.8909,4.8909,4.8909,4.8785,4.8495,4.8495,4.8495,4.8495,4.8288,4.8288,4.8495,4.8288,4.8172,3.5891,3.6481,3.7071,3.7952,3.8544,3.8989,3.9364,0.0,0.0,0.0,0.0,0.0,0.0,0.0,0.0,0.0,0.0,0.0,0.0,0.0,0.0,0.0,0.0,0.0,0.0,0.0,0.0,0.0,0.0,0.0,0.0,4.5249,4.5621,4.6364,4.7163,4.759,4.759,4.8314,4.8723,4.8797,4.8797,4.8834,4.8909,4.8909,4.8909,4.8909,0.0,0.0,0.0,4.8909,4.8909,4.8909,4.8909,4.8909,4.8909,4.8909,4.8909,4.8909,4.8909,4.8909,4.8909,4.8909,4.8909,4.8909,4.8909,4.8909,4.8909,4.8909,4.8909,4.8909,4.8909,4.8909,4.8909,4.8909,4.8909,4.8909,4.8909,4.8909,4.8909,4.8909,4.8909,4.8909,4.8909,4.8909,4.8909,4.8909,4.8909,4.8909,4.8909,4.8909,4.8909,4.8909,4.8909,4.8909,4.8909,4.8909,4.8909,4.8909,4.8909,4.8909,4.8909,4.8909,4.8909,4.8855,4.8855,4.8855,4.8855,4.882,4.882,4.8855,4.882,4.882,3.6538,3.7083,3.7546,3.8886,3.9383,3.958,3.9693,0.0,0.0,3.9889,3.9823,3.9693,3.9526,3.9427,0.0,0.0,0.0,0.0,0.0,0.0,0.0,0.0,0.0,0.0,0.0,0.0,0.0,0.0,0.0,0.0,0.0,4.6801,4.6884,4.7218,4.7999,4.8426,4.8426,4.8742,4.8909,4.8909,4.8909,4.8909,4.8909,4.8909,4.8909,4.8909,0.0,0.0,0.0,4.8909,4.8909,4.8909,4.8909,4.8909,4.8909,4.8909,4.8909,4.8909,4.8909,4.8909,4.8909,4.8909,4.8909,4.8909,4.8909,4.8909,4.8909,4.8909,4.8909,4.8909,4.8909,4.8909,4.8909,4.8909,4.8909,4.8909,4.8909,4.8909,4.8909,4.8909,4.8909,4.8909,4.8909,4.8909,4.8909,4.8909,4.8909,4.8909,4.8909,4.8909,4.8909,4.8909,4.8909,4.8909,4.8909,4.8909,4.8909,4.8909,4.8909,4.8909,4.8909,4.8909,4.8909,4.8909,4.8909,4.8909,4.8909,4.8909,4.8909,4.8909,4.8909,4.8909,3.7318,3.762,3.7788,3.9494,3.9889,3.9889,0.0,0.0,0.0,3.9956,3.9935,3.9851,3.9705,3.9656,3.9561,0.0,0.0,0.0,0.0,0.0,0.0,0.0,0.0,0.0,0.0,0.0,0.0,0.0,0.0,0.0,0.0,4.8202,4.8236,4.8054,4.8612,4.8909,4.8909,4.8909,4.8909,4.8909,4.8909,4.8909,4.8909,4.8909,4.8909,4.8909,0.0,0.0,0.0,4.8909,4.8909,4.8909,4.8909,4.8909,4.8909,4.8909,4.8909,4.8909,4.8909,4.8909,4.8909,4.8909,4.8909,4.8909,4.8909,4.8909,4.8909,4.8909,4.8909,4.8909,4.8909,4.8909,4.8909,4.8909,4.8909,4.8909,4.8909,4.8909,4.8909,4.8909,4.8909,4.8909,4.8909,4.8909,4.8909,4.8909,4.8909,4.8909,4.8909,4.8909,4.8909,4.8909,4.8909,4.8909,4.8909,4.8909,4.8909,4.8909,4.8909,4.8909,4.8909,4.8909,4.8909,4.8909,4.8909,4.8909,4.8909,4.8909,4.8909,4.8909,4.8909,4.8909,3.8194,3.8156,3.7788,3.9494,3.9889,3.9889,0.0,0.0,0.0,4.0061,3.9982,3.9943,4.0063,3.9984,3.9901,3.988,3.9838,0.0,0.0,0.0,0.0,0.0,0.0,0.0,0.0,0.0,0.0,0.0,0.0,0.0,0.0,4.9135,4.945,4.889,4.8909,4.8909,4.8909,4.8909,4.8909,4.8909,4.8909,4.8909,4.8909,4.8909,4.8909,0.0,0.0,0.0,0.0,4.8909,4.8909,4.8909,4.8909,4.8909,4.8909,4.8909,4.8909,4.8909,4.8909,4.8909,4.8909,4.8909,4.8909,4.8909,4.8909,4.8909,4.8909,4.8909,4.8909,4.8909,4.8909,4.8909,4.8909,4.8909,4.8909,4.8909,4.8909,4.8909,4.8909,4.8909,4.8909,4.8909,4.8909,4.8909,4.8909,4.8909,4.8909,4.8909,4.8909,4.8909,4.8909,4.8909,4.8909,4.8909,4.8909,4.8909,4.8909,4.8909,4.8909,4.8909,4.8909,4.8909,4.8909,4.8909,4.8909,4.8909,4.8909,4.8909,4.8909,4.8909,4.8909,4.8909,3.8506,3.8797,3.8819,3.9908,4.0157,4.0157,4.0157,0.0,0.0,4.023,4.0193,4.0175,4.01,4.0062,4.0002,3.9901,3.984,0.0,0.0,0.0,0.0,0.0,0.0,0.0,0.0,0.0,0.0,0.0,0.0,0.0,0.0,4.9746,4.9636,4.9239,4.9246,4.9201,4.9113,4.8978,4.8909,4.8909,4.8909,4.8909,4.8909,4.8909,0.0,0.0,0.0,0.0,0.0,4.8909,4.8909,4.8909,4.8909,4.8909,4.8909,4.8909,4.8909,4.8909,4.8909,4.8909,4.8909,4.8909,4.8909,4.8909,4.8909,4.8909,4.8909,4.8909,4.8909,4.8909,4.8909,4.8909,4.8909,4.8909,4.8909,4.8909,4.8909,4.8909,4.8909,4.8909,4.8909,4.8909,4.8909,4.8909,4.8909,4.8909,4.8909,4.8909,4.8909,4.8909,4.8909,4.8909,4.8909,4.8909,4.8909,4.8909,4.8909,4.8909,4.8909,4.8909,4.8909,4.8909,4.8909,4.8909,4.8909,4.8909,4.8909,4.8909,4.8909,4.8909,4.8909,4.8909,0.0,3.9141,3.9282,4.0089,4.03,0.0,0.0,0.0,0.0,4.0367,4.0383,4.0383,4.0367,4.0334,4.0302,4.0175,4.012,0.0,0.0,0.0,0.0,0.0,0.0,0.0,0.0,0.0,0.0,0.0,0.0,0.0,0.0,0.0,5.0078,4.9776,4.9664,4.9493,4.9283,4.9137,4.9023,4.8909,4.8909,4.8909,4.8909,4.8909,0.0,0.0,0.0,0.0,0.0,4.9141,4.9094,4.9061,4.8925,4.8909,4.8909,4.8909,4.8909,4.8909,4.8909,4.8909,4.8909,4.8909,4.8909,4.8909,4.8909,4.8909,4.8909,4.8909,4.8909,4.8909,4.8909,4.8909,4.8909,4.8909,4.8909,4.8909,4.8909,4.8909,4.8909,4.8909,4.8909,4.8909,4.8909,4.8909,4.8909,4.8909,4.8909,4.8909,4.8909,4.8909,4.8909,4.8909,4.8909,4.8909,4.8909,4.8909,4.8909,4.8909,4.8909,4.8909,4.8909,4.8909,4.8909,4.8909,4.8909,4.8909,4.8909,4.8909,4.8909,4.8909,4.8909,4.8909,0.0,0.0,0.0,0.0,0.0,0.0,0.0,0.0,0.0,0.0,0.0,4.0574,4.0778,4.0746,4.0687,4.0621,4.0656,0.0,0.0,0.0,0.0,0.0,0.0,0.0,0.0,0.0,0.0,0.0,0.0,0.0,0.0,0.0,5.0625,5.0446,5.013,4.9796,4.9464,4.9435,4.929,4.8959,4.8959,4.8959,4.8959,4.8959,0.0,0.0,0.0,0.0,0.0,4.9529,4.9427,4.9415,4.9061,4.8943,4.8925,4.8909,4.8909,4.8909,4.8909,4.8909,4.8909,4.8909,4.8909,4.8909,4.8909,4.8909,4.8909,4.8909,4.8909,4.8909,4.8909,4.8909,4.8909,4.8909,4.8909,4.8909,4.8909,4.8909,4.8909,4.8909,4.8909,4.8909,4.8909,4.8909,4.8909,4.8909,4.8909,4.8909,4.8909,4.8909,4.8909,4.8909,4.8909,4.8909,4.8909,4.8909,4.8909,4.8909,4.8909,4.8909,4.8909,4.8909,4.8909,4.8909,4.8909,4.8909,4.8909,4.8909,4.8909,4.8909,4.8909,4.8909,0.0,0.0,0.0,0.0,0.0,0.0,0.0,0.0,0.0,0.0,0.0,0.0,4.079,4.0746,4.07,4.0687,0.0,0.0,0.0,0.0,0.0,0.0,0.0,0.0,0.0,0.0,0.0,0.0,0.0,0.0,0.0,0.0,5.0822,5.0769,5.0715,5.045,4.9999,4.9865,4.9757,4.9646,4.9589,4.9608,4.9608,4.9608,0.0,0.0,0.0,0.0,4.9803,4.9721,4.9693,4.9665,4.9377,4.9289,4.9257,4.8993,4.8909,4.8909,4.8909,4.8909,4.8909,4.8909,4.8909,4.8909,4.8909,4.8909,4.8909,4.8909,4.8909,4.8909,4.8909,4.8909,4.8909,4.8909,4.8909,4.8909,4.8909,4.8909,4.8909,4.8909,4.8909,4.8909,4.8909,4.8909,4.8909,4.8909,4.8909,4.8909,4.8909,4.8909,4.8909,4.8909,4.8909,4.8909,4.8909,4.8909,4.8909,4.8909,4.8909,4.8909,4.8909,4.8909,4.8909,4.8909,4.8909,4.8909,4.8909,4.8909,4.8909,4.8909,4.8909,4.8909,0.0,0.0,0.0,0.0,0.0,0.0,0.0,0.0,0.0,0.0,0.0,0.0,0.0,0.0,0.0,0.0,0.0,0.0,0.0,0.0,0.0,0.0,0.0,0.0,0.0,0.0,0.0,0.0,0.0,0.0,0.0,0.0,5.0906,5.0906,5.0906,5.0698,5.0303,5.0172,5.0049,4.991,4.9857,4.983,4.9803,4.9803,0.0,0.0,0.0,0.0,5.0202,5.0038,4.9968,4.9962,4.9684,4.9569,4.9569,4.9389,4.9252,4.9127,4.9127,4.9127,4.916,4.9265,4.922,4.9127,4.9127,4.9027,4.8909,4.8909,4.8909,4.8909,4.8909,4.8909,4.8909,4.8909,4.8909,4.8909,4.8909,4.8909,4.8909,4.8909,4.8909,4.8909,4.8909,4.8909,4.8909,4.8909,4.8909,4.8909,4.8909,4.8909,4.8909,4.8909,4.8909,4.8909,4.8909,4.8909,4.8909,4.8909,4.8909,4.8909,4.8909,4.8909,4.8909,4.8909,4.8909,4.8909,4.8909,4.8909,4.8909,4.8909,4.928,4.9447,0.0,0.0,0.0,4.0539,4.079,0.0,0.0,0.0,0.0,0.0,0.0,0.0,0.0,0.0,0.0,0.0,0.0,0.0,0.0,0.0,0.0,0.0,0.0,0.0,0.0,0.0,0.0,0.0,0.0,0.0,0.0,0.0,0.0,5.0906,5.0906,5.075,5.0471,5.049,5.0327,5.0043,5.0043,4.9993,4.9943,4.9943,5.0068,0.0,0.0,0.0,5.0683,5.038,5.0272,5.0249,4.9987,4.9865,4.9857,4.983,4.9655,4.9457,4.9457,4.9457,4.9499,4.9721,4.9655,4.9457,4.9457,4.9239,4.8978,4.8978,4.8943,4.8909,4.8909,4.8909,4.8909,4.8909,4.8909,4.8909,4.8909,4.8909,4.8909,4.8909,4.8909,4.8909,4.8909,4.8909,4.8909,4.8909,4.8909,4.8909,4.8909,4.8909,4.8909,4.8909,4.8943,4.8978,4.8909,4.8943,4.9015,4.9076,4.8964,4.8909,4.8909,4.8909,4.8964,4.9076,4.9076,4.915,4.928,4.928,4.928,4.9299,4.9986,5.0302,3.7862,0.0,0.0,4.0404,4.079,0.0,0.0,0.0,0.0,0.0,0.0,0.0,0.0,0.0,0.0,0.0,0.0,0.0,0.0,0.0,0.0,0.0,0.0,0.0,0.0,0.0,0.0,0.0,0.0,0.0,0.0,0.0,0.0,5.0906,5.0906,5.089,5.0819,5.0825,5.0793,5.0757,5.0701,5.0663,5.0644,5.0644,5.0644,0.0,0.0,5.0664,5.0702,5.0644,5.0624,5.0604,5.0272,5.0135,5.0111,4.9865,4.9776,4.9749,4.9749,4.9749,4.9749,4.9803,4.9776,4.9749,4.9749,4.9539,4.9302,4.9302,4.9127,4.8909,4.8909,4.8909,4.8909,4.8909,4.8909,4.8909,4.8909,4.8909,4.8909,4.8909,4.8909,4.8909,4.8909,4.8909,4.8909,4.8909,4.8909,4.8909,4.8909,4.8909,4.8909,4.8909,4.916,4.9225,4.8925,4.916,4.9473,4.9875,4.928,4.8909,4.8909,4.8909,4.9224,4.9912,4.993,5.0283,5.1026,5.1026,5.1026,5.1026,5.1138,5.1193,3.7868,3.8307,0.0,4.0462,4.0848,0.0,0.0,0.0,0.0,0.0,0.0,0.0,0.0,0.0,0.0,0.0,0.0,0.0,0.0,0.0,0.0,0.0,0.0,0.0,0.0,0.0,0.0,0.0,0.0,0.0,0.0,0.0,0.0,0.0,5.0906,5.0906,5.0906,5.0909,5.0897,5.0899,5.0863,5.0846,5.0793,5.0793,5.0793,5.0738,0.0,5.0757,5.0758,5.0721,5.0702,5.0683,5.0525,5.0483,5.0421,5.0135,5.0038,5.0038,5.0038,5.0038,5.0062,5.0245,5.0155,5.0038,5.0038,4.983,4.9627,4.9627,4.9283,4.8909,4.8909,4.8909,4.8909,4.8909,4.8909,4.8909,4.8909,4.8909,4.8909,4.8909,4.8909,4.8909,4.8909,4.8909,4.8909,4.8909,4.9061,4.916,4.916,4.9315,4.9389,4.9389,4.9954,5.0248,5.0108,5.0644,5.0717,5.0152,5.019,5.0246,5.0246,5.0246,5.0519,5.1062,5.0892,5.1078,5.1622,5.1469,5.1398,5.1416,5.1844,5.2048,3.8006,3.8518,0.0,0.0,0.0,0.0,0.0,0.0,0.0,0.0,0.0,0.0,0.0,0.0,0.0,0.0,0.0,0.0,0.0,0.0,0.0,0.0,0.0,0.0,0.0,0.0,0.0,0.0,0.0,0.0,0.0,0.0,0.0,0.0,5.0906,5.0906,5.0906,5.0906,5.0909,5.0897,5.0897,5.088,5.0827,5.0827,5.0827,5.081,5.081,5.081,5.0793,5.0738,5.072,5.072,5.0721,5.0721,5.0664,5.0423,5.0317,5.0336,5.0336,5.0336,5.0358,5.0624,5.0544,5.0336,5.0336,5.0111,4.9891,4.9891,4.9521,4.909,4.909,4.9075,4.9027,4.9027,4.8978,4.8909,4.8909,4.8909,4.8909,4.8909,4.8909,4.8909,4.8909,4.8978,4.9027,4.9027,4.9302,4.9499,4.9499,4.9854,5.0088,5.0088,5.0928,5.1494,5.1494,5.2172,5.213,5.0987,5.1364,5.1625,5.1625,5.1625,5.1836,5.2284,5.2042,5.2117,5.2491,5.2304,5.2153,5.21,5.2715,5.294,3.8237,3.903,3.9811,0.0,0.0,0.0,0.0,0.0,0.0,0.0,0.0,0.0,0.0,0.0,0.0,0.0,0.0,0.0,0.0,0.0,0.0,0.0,0.0,0.0,0.0,0.0,0.0,0.0,0.0,0.0,0.0,0.0,0.0,0.0,0.0,5.0906,5.0906,5.0906,5.0906,5.089,5.089,5.089,5.089,5.089,5.0893,5.0899,5.0899,5.0863,5.0793,5.0793,5.0793,5.0793,5.0793,5.0757,5.0701,5.0682,5.0664,5.0663,5.0663,5.0663,5.0663,5.0683,5.0683,5.0663,5.0663,5.0421,5.0183,5.0183,4.9943,4.9749,4.9749,4.9539,4.9365,4.9365,4.9127,4.8909,4.8909,4.8909,4.8909,4.8909,4.8909,4.8909,4.8909,4.916,4.9365,4.9365,4.9598,4.9776,4.9776,5.0486,5.1006,5.1006,5.2005,5.269,5.269,5.3175,5.3461,5.3345,5.2655,5.2238,5.2238,5.2238,5.2636,5.3451,5.347,5.38,5.4587,5.4557,5.439,5.4093,5.4168,5.3996,3.833,3.9156,3.9981,0.0,0.0,0.0,0.0,0.0,0.0,0.0,0.0,0.0,0.0,0.0,0.0,0.0,0.0,0.0,0.0,0.0,0.0,0.0,0.0,0.0,0.0,0.0,0.0,0.0,0.0,0.0,0.0,0.0,0.0,0.0,0.0,5.0906,5.0906,5.0906,5.0906,5.0906,5.0906,5.0906,5.0906,5.0906,5.089,5.0893,5.0893,5.0893,5.0858,5.0863,5.0863,5.0863,5.0829,5.0793,5.0757,5.072,5.0702,5.0702,5.0702,5.0702,5.0702,5.0702,5.0702,5.0702,5.0702,5.0604,5.0504,5.0507,5.0423,5.0268,4.991,4.9721,4.9655,4.9655,4.955,4.9461,4.9461,4.9461,4.9461,4.9461,4.9461,4.9461,4.9461,4.955,4.9655,4.9655,5.0339,5.0843,5.0843,5.1754,5.2403,5.2403,5.328,5.4076,5.4575,5.479,5.4891,5.4891,5.4237,5.384,5.384,5.384,5.4126,5.4634,5.4468,5.4591,5.5111,5.4895,5.4746,5.4623,5.4623,5.4528,3.8437,3.9405,4.0398,4.1042,0.0,0.0,0.0,0.0,0.0,0.0,0.0,0.0,0.0,0.0,0.0,0.0,0.0,0.0,0.0,0.0,0.0,0.0,0.0,0.0,0.0,0.0,0.0,0.0,0.0,0.0,0.0,0.0,0.0,0.0,0.0,5.0906,5.0906,5.0906,5.0906,5.0906,5.0906,5.0906,5.0906,5.0906,5.0906,5.0906,5.0906,5.0906,5.089,5.0893,5.0897,5.0897,5.0844,5.0827,5.0829,5.0775,5.0739,5.0701,5.0702,5.0702,5.0702,5.0702,5.0702,5.0702,5.0702,5.0702,5.0702,5.0702,5.0721,5.0625,5.0206,4.9993,4.9936,4.9936,4.9865,4.9803,4.9803,4.9803,4.9803,4.9803,4.9803,4.9803,4.9803,5.0092,5.0335,5.0335,5.1329,5.2024,5.2024,5.2965,5.3703,5.3953,5.4511,5.5107,5.5645,5.5703,5.5703,5.5703,5.5301,5.5072,5.5072,5.5072,5.5198,5.5413,5.5198,5.5198,5.5413,5.5198,5.5037,5.4952,5.4952,5.4895,3.8594,3.9863,4.1191,0.0,0.0,0.0,0.0,0.0,0.0,0.0,0.0,0.0,0.0,0.0,0.0,0.0,0.0,0.0,0.0,0.0,0.0,0.0,0.0,0.0,0.0,0.0,0.0,0.0,0.0,0.0,0.0,0.0,0.0,0.0,0.0,0.0,5.0906,5.0906,5.0906,5.0906,5.0906,5.0906,5.0906,5.0906,5.0906,5.0906,5.0906,5.0906,5.0906,5.0906,5.0906,5.0906,5.0906,5.0893,5.0899,5.0899,5.0829,5.0701,5.0701,5.0702,5.0702,5.0702,5.0702,5.0683,5.0683,5.0702,5.0701,5.0701,5.0757,5.0793,5.072,5.0446,5.0206,5.0206,4.9993,4.9803,4.9803,4.9803,4.9803,4.9803,4.9803,4.9803,4.9803,5.0767,5.1529,5.1529,5.2478,5.3222,5.3222,5.3972,5.4818,5.5607,5.5703,5.5703,5.5703,5.5703,5.5703,5.5703,5.5703,5.5703,5.5703,5.5703,5.5703,5.5703,5.5703,5.5703,5.5703,5.5703,5.5573,5.5314,5.5314,5.5138,3.8594,0.0,0.0,0.0,0.0,0.0,0.0,0.0,0.0,0.0,0.0,0.0,0.0,0.0,0.0,0.0,0.0,0.0,0.0,0.0,0.0,0.0,0.0,0.0,0.0,0.0,0.0,0.0,0.0,0.0,0.0,0.0,0.0,0.0,0.0,0.0,5.0906,5.0906,5.0906,5.0906,5.0906,5.0906,5.0906,5.0906,5.0906,5.0906,5.0906,5.0906,5.0906,5.0906,5.0906,5.0906,5.0906,5.089,5.0893,5.0897,5.0863,5.0829,5.072,5.0702,5.0702,5.0702,5.0683,5.0702,5.0702,5.0739,5.0775,5.0829,5.0793,5.0757,5.0756,5.0664,5.0544,5.0544,5.0483,5.044,5.044,5.044,5.044,5.044,5.09,5.1261,5.1261,5.2075,5.2694,5.2694,5.3507,5.4318,5.4895,5.5184,5.5434,5.5665,5.5703,5.5703,5.5703,5.5703,5.5703,5.5703,5.5703,5.5703,5.5703,5.5703,5.5703,5.5703,5.5703,5.5703,5.5703,5.5703,5.5662,5.5596,5.5596,5.5531,0.0,0.0,0.0,0.0,0.0,0.0,0.0,0.0,0.0,0.0,0.0,0.0,0.0,0.0,0.0,0.0,0.0,0.0,0.0,0.0,0.0,0.0,0.0,0.0,0.0,0.0,0.0,0.0,0.0,0.0,0.0,0.0,0.0,0.0,0.0,0.0,5.0906,5.0906,5.0906,5.0906,5.0906,5.0906,5.0906,5.0906,5.0906,5.0906,5.0906,5.0906,5.0906,5.0906,5.0906,5.0906,5.0906,5.0906,5.089,5.0893,5.0897,5.0863,5.0775,5.072,5.0701,5.0702,5.0702,5.0701,5.072,5.0793,5.0846,5.0899,5.0827,5.0791,5.0827,5.0794,5.0721,5.0721,5.0702,5.0702,5.0702,5.0952,5.1183,5.1183,5.1856,5.2433,5.2433,5.3145,5.3722,5.3722,5.4434,5.5145,5.5645,5.5703,5.5703,5.5703,5.5703,5.5703,5.5703,5.5703,5.5703,5.5703,5.5703,5.5703,5.5703,5.5703,5.5703,5.5703,5.5703,5.5703,5.5703,5.5703,5.5703,5.5703,5.5703,5.5703,0.0,0.0,0.0,0.0,0.0,0.0,0.0,0.0,0.0,0.0,0.0,0.0,0.0,0.0,0.0,0.0,0.0,0.0,0.0,0.0,0.0,0.0,0.0,0.0,0.0,0.0,0.0,0.0,0.0,0.0,0.0,0.0,0.0,0.0,0.0,0.0,5.0906,5.0906,5.0906,0.0,5.0906,5.0906,5.0906,5.0906,5.0906,5.0906,5.0906,5.0906,5.0906,5.0906,5.0906,5.0906,5.0906,5.0906,5.0906,5.0906,5.0893,5.0899,5.081,5.0775,5.0701,5.0701,5.0701,5.072,5.0793,5.0846,5.0899,5.0899,5.0913,5.0909,5.0897,5.0846,5.0794,5.0818,5.0798,5.0798,5.0798,5.1452,5.2029,5.2029,5.2722,5.3318,5.3318,5.4049,5.4607,5.4607,5.5222,5.5703,5.5703,5.5703,5.5703,5.5703,5.5703,5.5703,5.5703,5.5703,5.5703,5.5703,5.5703,5.5703,5.5703,5.5703,5.5703,5.5703,5.5703,5.5703,5.5703,5.5703,5.5665,5.5588,5.5588,5.5549,0.0,0.0,0.0,0.0,0.0,0.0,0.0,0.0,0.0,0.0,0.0,0.0,0.0,0.0,0.0,0.0,0.0,0.0,0.0,0.0,0.0,0.0,0.0,0.0,0.0,0.0,0.0,0.0,0.0,0.0,0.0,0.0,0.0,0.0,0.0,5.0906,5.0906,5.0906,5.0906,0.0,5.0906,5.0906,5.0906,5.0906,5.0906,5.0906,5.0906,5.0906,5.0906,5.0906,5.0906,5.0906,5.0906,5.0906,5.0906,5.0906,5.0893,5.0899,5.081,5.0793,5.0775,5.072,5.0775,5.0846,5.0863,5.0897,5.0909,5.0909,5.0893,5.0897,5.0899,5.0846,5.0966,5.1568,5.1664,5.1645,5.1645,5.2318,5.2933,5.2933,5.3626,5.4222,5.4222,5.4895,5.5434,5.5434,5.5588,5.5703,5.5703,5.5703,5.5703,5.5703,5.5703,5.5703,5.5703,5.5703,5.5703,5.5703,5.5703,5.5703,5.5703,5.5703,5.5703,5.5703,5.5703,5.5703,5.5703,5.5703,5.5376,5.4761,5.4761,5.4395,0.0,0.0,0.0,0.0,0.0,0.0,0.0,0.0,0.0,0.0,0.0,0.0,0.0,0.0,0.0,0.0,0.0,0.0,0.0,0.0,0.0,0.0,0.0,0.0,0.0,0.0,0.0,0.0,0.0,0.0,0.0,0.0,0.0,0.0,5.0906,5.0906,5.0906,5.0906,5.0906,5.0906,5.0906,5.0906,5.0906,5.0906,5.0906,5.0906,5.0906,5.0906,5.0906,5.0906,5.0906,5.0906,5.0906,5.0906,5.0906,5.0906,5.0909,5.0897,5.0863,5.0846,5.0846,5.0812,5.0846,5.0899,5.0897,5.0909,5.0906,5.0906,5.0909,5.1009,5.1415,5.146,5.162,5.2433,5.2281,5.2049,5.2433,5.3222,5.3818,5.3818,5.4491,5.5068,5.5068,5.5415,5.5703,5.5703,5.5703,5.5703,5.5703,5.5703,5.5703,5.5703,5.5703,5.5703,5.5703,5.5703,5.5703,5.5703,5.5703,5.5703,5.5703,5.5703,5.5703,5.5703,5.5703,5.5511,5.5126,5.5126,5.4703,5.3876,5.3876,5.3626,0.0,0.0,0.0,0.0,0.0,0.0,0.0,0.0,0.0,0.0,0.0,0.0,0.0,0.0,0.0,0.0,0.0,0.0,0.0,0.0,0.0,0.0,0.0,0.0,0.0,0.0,0.0,0.0,0.0,0.0,0.0,0.0,5.0906,5.0906,5.0906,5.0906,5.0906,5.0906,5.0906,5.0906,5.0906,5.0906,5.0906,5.0906,5.0906,5.0906,5.0906,5.0906,5.0906,5.0906,5.0906,5.0906,5.0906,5.0906,5.0906,5.0906,5.089,5.0909,5.0897,5.0899,5.0899,5.0899,5.0899,5.0897,5.0909,5.0906,5.0906,5.0906,5.1022,5.1293,5.2008,5.2266,5.2541,5.3356,5.2993,5.2627,5.3281,5.4107,5.4703,5.4703,5.5241,5.5703,5.5703,5.5703,5.5703,5.5703,5.5703,5.5703,5.5703,5.5703,5.5703,5.5703,5.5703,5.5703,5.5703,5.5703,5.5703,5.5703,5.5703,5.5703,5.5703,5.5568,5.5491,5.5491,5.5491,5.5164,5.4491,5.4357,5.3837,5.2991,5.2991,5.2895,0.0,0.0,0.0,0.0,0.0,0.0,0.0,0.0,0.0,0.0,0.0,0.0,0.0,0.0,0.0,0.0,0.0,0.0,0.0,0.0,0.0,0.0,0.0,0.0,0.0,0.0,0.0,0.0,0.0,0.0,0.0,5.0964,5.0906,5.0906,5.0906,5.0906,5.0906,5.0906,5.0906,5.0906,5.0906,5.0906,5.0906,5.0906,5.0906,5.0906,5.0906,5.0906,5.0906,5.0906,5.0906,5.0906,5.0906,5.0906,5.0906,5.0906,5.0893,5.0899,5.0899,5.0899,5.0899,5.0899,5.0897,5.089,5.089,5.0906,5.0906,5.0906,5.1447,5.2047,5.2163,5.2743,5.352,5.4318,5.438,5.4265,5.432,5.4972,5.553,5.553,5.5626,5.5703,5.5703,5.5703,5.5703,5.5703,5.5703,5.5703,5.5703,5.5703,5.5703,5.5703,5.5703,5.5703,5.5703,5.5703,5.5703,5.5703,5.5703,5.5703,5.5703,5.503,5.4664,5.4664,5.4664,5.4607,5.4491,5.3741,5.2933,5.2087,5.2087,5.1702,0.0,0.0,0.0,0.0,0.0,0.0,0.0,0.0,0.0,0.0,0.0,0.0,0.0,0.0,0.0,0.0,0.0,0.0,0.0,0.0,0.0,0.0,0.0,0.0,0.0,0.0,0.0,0.0,0.0,0.0,5.1154,5.1061,5.1022,5.1022,5.0945,5.0906,5.0906,5.0906,5.0906,5.0906,5.0906,5.0906,5.0906,5.0906,5.0906,5.0906,5.0906,5.0906,5.0906,5.0906,5.0906,5.0906,5.0906,5.0906,5.0906,5.0906,5.0909,5.0893,5.0893,5.0893,5.0893,5.0893,5.0909,5.0906,5.0906,5.0906,5.1003,5.1486,5.1892,5.2414,5.3401,5.3942,5.4428,5.5226,5.5421,5.5364,5.5267,5.5474,5.5703,5.5703,5.5703,5.5703,5.5703,5.5703,5.5703,5.5703,5.5703,5.5703,5.5703,5.5703,5.5703,5.5703,5.5703,5.5703,5.5703,5.5703,5.5703,5.5703,5.5703,5.5491,5.5049,5.4684,5.426,5.378,5.378,5.353,5.3049,5.2664,5.2049,5.1221,5.1221,5.1029,0.0,0.0,0.0,0.0,0.0,0.0,0.0,0.0,0.0,0.0,0.0,0.0,0.0,0.0,0.0,0.0,0.0,0.0,0.0,0.0,0.0,0.0,0.0,0.0,0.0,0.0,0.0,0.0,0.0,5.1285,5.1225,5.116,5.1116,5.1138,5.1022,5.0964,5.0964,5.0925,5.0906,5.0906,5.0906,5.0906,5.0906,5.0906,5.0906,5.0906,5.0906,5.0906,5.0906,5.0906,5.0906,5.0906,5.0906,5.0906,5.0906,5.0906,5.0906,5.0906,5.0906,5.0906,5.0906,5.0906,5.0906,5.0945,5.1157,5.1235,5.1409,5.2279,5.2685,5.3149,5.4465,5.4948,5.526,5.5863,5.5999,5.5962,5.5826,5.5745,5.5703,5.5703,5.5703,5.5703,5.5703,5.5703,5.5703,5.5703,5.5703,5.5703,5.5703,5.5703,5.5703,5.5703,5.5703,5.5703,5.5703,5.5703,5.5703,5.5703,5.5511,5.5126,5.4511,5.4068,5.353,5.2876,5.2664,5.2356,5.1914,5.1702,5.1298,5.0702,5.0702,5.0702,0.0,0.0,0.0,0.0,0.0,0.0,0.0,0.0,0.0,0.0,0.0,0.0,0.0,0.0,0.0,0.0,0.0,0.0,0.0,0.0,0.0,0.0,0.0,0.0,0.0,0.0,0.0,0.0,0.0,5.1308,5.1288,5.1224,5.12,5.1192,5.1138,5.1099,5.1099,5.0964,5.0906,5.0906,5.0906,5.0906,5.0906,5.0906,5.0906,5.0906,5.0906,5.0906,5.0906,5.0906,5.0906,5.0906,5.0906,5.0906,5.0906,5.0906,5.0906,5.0906,5.0906,5.0906,5.0906,5.0906,5.0906,5.1061,5.1873,5.2124,5.2298,5.3188,5.402,5.4697,5.4774,5.5374,5.5954,5.5993,5.6016,5.5962,5.5826,5.5745,5.5703,5.5703,5.5703,5.5703,5.5703,5.5703,5.5703,5.5703,5.5703,5.5703,5.5703,5.5703,5.5703,5.5703,5.5703,5.5703,5.5703,5.5703,5.5703,5.5703,5.4972,5.453,5.4491,5.2914,5.201,5.1972,5.1221,5.1183,5.1914,5.1125,5.0741,5.0702,5.0702,5.0702,0.0,0.0,0.0,0.0,0.0,0.0,0.0,0.0,0.0,0.0,0.0,0.0,0.0,0.0,0.0,0.0,0.0,0.0,0.0,0.0,0.0,0.0,0.0,0.0,0.0,0.0,0.0,0.0,0.0,0.0,5.1367,5.1302,5.1255,5.1258,5.1189,5.1139,5.1099,5.1099,5.1041,5.0906,5.1003,5.0983,5.0906,5.0906,5.0906,5.0906,5.0906,5.0906,5.0906,5.0906,5.0906,5.0906,5.0906,5.0906,5.0906,5.0906,5.0906,5.0906,5.0906,5.0906,5.0906,5.0906,5.1273,5.1796,5.2105,5.2589,5.3207,5.4097,5.4561,5.4929,5.5451,5.578,5.6012,5.6012,5.5996,5.5981,5.5924,5.5846,5.5766,5.5766,5.5724,5.5703,5.5703,5.5703,5.5703,5.5703,5.5703,5.5703,5.5703,5.5703,5.5703,5.5703,5.5703,5.5703,5.5703,5.5222,5.4934,5.4934,5.4126,5.3414,5.2856,5.2241,5.1664,5.1144,5.0837,5.0837,5.1125,5.0837,5.0702,5.0702,5.0702,5.0971,0.0,0.0,0.0,0.0,0.0,0.0,0.0,0.0,0.0,0.0,0.0,0.0,0.0,0.0,0.0,0.0,0.0,0.0,0.0,0.0,0.0,0.0,0.0,0.0,0.0,0.0,0.0,0.0,0.0,0.0,5.1406,5.1367,5.1322,5.1294,5.1255,5.1203,5.114,5.1165,5.1126,5.0992,5.1087,5.108,5.0983,5.0983,5.0945,5.0906,5.0906,5.0906,5.0906,5.0906,5.0906,5.0906,5.0906,5.0906,5.0906,5.0906,5.0906,5.0906,5.0906,5.0906,5.0964,5.1235,5.1738,5.2298,5.2898,5.3478,5.4116,5.4967,5.52,5.5335,5.5857,5.6012,5.6012,5.6012,5.5996,5.5998,5.5998,5.5904,5.5826,5.5787,5.5766,5.5724,5.5684,5.5703,5.5703,5.5703,5.5703,5.5724,5.5724,5.5724,5.5724,5.5724,5.5724,5.5588,5.5318,5.4799,5.4376,5.4087,5.326,5.251,5.1933,5.1645,5.1241,5.0702,5.0702,5.0818,5.1106,5.0818,5.0837,5.1106,5.1106,5.1548,0.0,0.0,0.0,0.0,0.0,0.0,0.0,0.0,0.0,0.0,0.0,0.0,0.0,0.0,0.0,0.0,0.0,0.0,0.0,0.0,0.0,0.0,0.0,0.0,0.0,0.0,0.0,0.0,0.0,5.1406,5.1406,5.1406,5.1367,5.1308,5.1308,5.1277,5.1191,5.1192,5.1192,5.1203,5.1199,5.1154,5.1095,5.1099,5.1041,5.0925,5.0906,5.0906,5.0906,5.0906,5.0906,5.0906,5.0906,5.0906,5.0906,5.0906,5.0906,5.0906,5.0945,5.0945,5.108,5.195,5.226,5.2589,5.4291,5.4813,5.5006,5.578,5.6012,5.6012,5.6012,5.6012,5.6012,5.6012,5.6012,5.6012,5.6012,5.596,5.5885,5.5826,5.5787,5.5787,5.5724,5.5703,5.5703,5.5703,5.5684,5.5724,5.5787,5.5745,5.5705,5.5748,5.5707,5.5338,5.453,5.4434,5.4068,5.3222,5.2356,5.1875,5.1875,5.1106,5.0702,5.0702,5.0721,5.1125,5.1914,5.1125,5.1144,5.1952,5.1972,5.2433,4.0404,0.0,0.0,0.0,0.0,0.0,0.0,0.0,0.0,0.0,0.0,0.0,0.0,0.0,0.0,0.0,0.0,0.0,0.0,0.0,0.0,0.0,0.0,0.0,0.0,0.0,0.0,0.0,5.1406,5.1406,5.1406,5.1406,5.1387,5.1367,5.1367,5.1346,5.1279,5.132,5.1302,5.1203,5.1249,5.1245,5.1171,5.1125,5.108,5.1041,5.0945,5.0906,5.0906,5.0906,5.0906,5.0906,5.0906,5.0906,5.0906,5.0906,5.0906,5.1003,5.1621,5.1834,5.197,5.2859,5.3575,5.4175,5.4658,5.5219,5.5722,5.5935,5.6012,5.6012,5.6012,5.6012,5.6012,5.6012,5.6012,5.6012,5.6012,5.5995,5.5979,5.5943,5.5905,5.5865,5.5865,5.5846,5.5826,5.5766,5.5826,5.5826,5.5787,5.5826,5.5615,5.5017,5.4921,5.4554,5.3706,5.309,5.2627,5.2279,5.1491,5.1029,5.1029,5.0818,5.0702,5.0702,5.1279,5.1683,5.1914,5.1683,5.201,5.2856,5.3493,5.3918,0.0,0.0,0.0,0.0,0.0,0.0,0.0,4.2759,0.0,0.0,0.0,0.0,0.0,0.0,0.0,0.0,0.0,0.0,0.0,0.0,0.0,0.0,0.0,0.0,0.0,0.0,0.0,5.1406,5.1406,5.1406,5.1406,5.1406,5.1406,5.1406,5.1406,5.1387,5.1348,5.1387,5.1363,5.1284,5.1324,5.1302,5.1245,5.1203,5.1175,5.1138,5.1061,5.1022,5.0983,5.0983,5.0964,5.0906,5.0906,5.0906,5.0906,5.0906,5.1138,5.1505,5.2008,5.2434,5.2879,5.3749,5.4387,5.4851,5.52,5.5625,5.6012,5.6012,5.6012,5.6012,5.6012,5.6012,5.6012,5.6012,5.6012,5.6012,5.6012,5.6012,5.5995,5.5999,5.5962,5.5924,5.5905,5.5905,5.5885,5.5846,5.5866,5.5905,5.5866,5.5596,5.5172,5.4689,5.4284,5.3725,5.2877,5.2375,5.1894,5.1453,5.1009,5.0739,5.0702,5.0721,5.0894,5.1183,5.1684,5.2453,5.3532,5.2839,5.3108,5.4361,5.521,5.5808,0.0,0.0,0.0,0.0,0.0,0.0,4.2937,4.3414,4.3976,0.0,0.0,0.0,0.0,0.0,0.0,0.0,0.0,0.0,0.0,0.0,0.0,0.0,0.0,0.0,0.0,5.1406,5.1406,5.1406,5.1406,5.1406,5.1406,5.1406,5.1406,5.1406,5.1406,5.1406,5.1406,5.1406,5.1406,5.1406,5.1406,5.1367,5.1308,5.1308,5.1274,5.1203,5.1199,5.1165,5.1106,5.1115,5.1041,5.0906,5.0906,5.0906,5.0925,5.1022,5.1525,5.2221,5.2414,5.2995,5.3788,5.4658,5.4929,5.5064,5.578,5.6012,5.6012,5.6012,5.6012,5.6012,5.6012,5.6012,5.6012,5.6012,5.6012,5.6012,5.6012,5.6012,5.5995,5.5998,5.5999,5.5981,5.5924,5.5924,5.5905,5.5905,5.5905,5.5885,5.5845,5.5132,5.4554,5.4434,5.3684,5.2837,5.2046,5.1969,5.1622,5.085,5.0887,5.091,5.0874,5.1083,5.1528,5.2203,5.2454,5.3745,5.6096,5.4593,5.4651,5.6194,5.6985,5.7738,0.0,0.0,0.0,0.0,0.0,0.0,4.206,4.2834,4.3666,0.0,0.0,0.0,0.0,0.0,0.0,0.0,0.0,0.0,0.0,0.0,0.0,0.0,0.0,0.0,0.0,5.1406,5.1406,5.1406,5.1406,5.1406,5.1406,5.1406,5.1406,5.1406,5.1406,5.1406,5.1406,5.1406,5.1406,5.1406,5.1406,5.1387,5.1387,5.1328,5.1286,5.1285,5.1211,5.1191,5.1172,5.1184,5.108,5.0906,5.0906,5.0906,5.1003,5.1699,5.2047,5.2395,5.3807,5.4407,5.4677,5.5509,5.578,5.5799,5.5954,5.6012,5.6012,5.6012,5.6012,5.6012,5.6012,5.6012,5.6012,5.6012,5.6012,5.6012,5.6012,5.6012,5.6012,5.5995,5.5995,5.5995,5.5977,5.5977,5.5979,5.5981,5.5979,5.5745,5.5033,5.4838,5.4235,5.2843,5.2514,5.2073,5.1211,5.1128,5.1035,5.081,5.1464,5.1831,5.1834,5.3127,5.3937,5.4072,5.5461,5.6734,5.7891,5.7544,5.7583,5.7911,5.8143,5.8336,0.0,0.0,0.0,4.1287,0.0,0.0,0.0,4.3686,4.426,0.0,0.0,0.0,0.0,0.0,0.0,0.0,0.0,0.0,0.0,0.0,0.0,0.0,0.0,0.0,0.0,5.1406,5.1406,5.1406,5.1406,5.1406,5.1406,5.1406,5.1406,5.1406,5.1406,5.1406,5.1406,5.1406,5.1406,5.1406,5.1406,5.1406,5.1406,5.1367,5.1348,5.1347,5.1313,5.1288,5.1245,5.125,5.1421,5.1695,5.1625,5.1602,5.1699,5.2531,5.3111,5.3614,5.4503,5.5064,5.549,5.5954,5.6109,5.6109,5.6147,5.6128,5.6089,5.6031,5.6012,5.6012,5.6012,5.6012,5.6012,5.6012,5.6012,5.6012,5.6012,5.6012,5.6012,5.6012,5.6012,5.6012,5.6012,5.6012,5.5995,5.5996,5.5666,5.5241,5.4817,5.4022,5.3169,5.2279,5.2202,5.2028,5.1589,5.1954,5.2186,5.2153,5.2945,5.3428,5.3412,5.4628,5.5497,5.5885,5.7603,5.8703,5.9109,5.9514,5.9534,5.9148,5.9186,5.9398,0.0,0.0,0.0,0.0,0.0,4.2667,0.0,0.0,0.0,0.0,0.0,0.0,0.0,0.0,0.0,0.0,0.0,0.0,0.0,0.0,0.0,0.0,0.0,0.0,0.0,5.1406,5.1406,5.1406,5.1406,5.1406,5.1406,5.1406,5.1406,5.1406,5.1406,5.1406,5.1406,5.1406,5.1406,5.1406,5.1406,5.1406,5.1406,5.1406,5.1406,5.1406,5.1406,5.1374,5.1336,5.15,5.1958,5.2539,5.2389,5.2442,5.2685,5.3478,5.4213,5.4851,5.5026,5.5509,5.6089,5.6186,5.6217,5.6226,5.6285,5.6256,5.6205,5.6089,5.607,5.607,5.607,5.607,5.607,5.607,5.607,5.607,5.607,5.6051,5.6051,5.6051,5.6031,5.6012,5.6012,5.6012,5.5954,5.5799,5.5219,5.4735,5.4561,5.3323,5.2453,5.2453,5.2453,5.2453,5.2453,5.3091,5.3575,5.373,5.4561,5.5086,5.5186,5.6207,5.7116,5.7911,5.9341,6.0036,6.0017,6.0751,6.077,6.0132,6.0132,6.048,0.0,0.0,0.0,0.0,4.315,0.0,0.0,0.0,0.0,0.0,0.0,0.0,0.0,0.0,0.0,0.0,0.0,0.0,0.0,0.0,0.0,0.0,0.0,0.0,0.0,0.0,5.1406,5.1406,5.1406,5.1406,5.1406,5.1406,5.1406,5.1406,5.1406,5.1406,5.1406,5.1406,5.1406,5.1406,5.1406,5.1406,5.1406,5.1406,5.1406,5.1406,5.1406,5.1406,5.1443,5.2222,5.2581,5.2664,5.2531,5.2943,5.3746,5.452,5.4904,5.5097,5.5857,5.6186,5.6263,5.6283,5.629,5.63,5.63,5.6278,5.6283,5.6263,5.6263,5.6263,5.6263,5.6263,5.6263,5.6263,5.6263,5.6263,5.6263,5.6225,5.6186,5.6186,5.6089,5.6012,5.6012,5.6012,5.576,5.5045,5.4851,5.4523,5.3749,5.3459,5.3343,5.3343,5.3343,5.3343,5.3343,5.344,5.3826,5.46,5.5412,5.6225,5.6961,5.8584,5.9804,6.0538,6.0809,6.0906,6.0848,6.1022,6.106,6.0963,6.0963,6.1002,0.0,0.0,0.0,0.0,0.0,0.0,0.0,0.0,4.5394,0.0,0.0,0.0,0.0,0.0,0.0,0.0,0.0,0.0,0.0,0.0,0.0,0.0,0.0,0.0,0.0,0.0,0.0,0.0,0.0,5.1406,5.1406,5.1406,5.1406,5.1406,5.1406,5.1406,5.1406,5.1406,5.1406,5.1406,5.1406,5.1406,5.1406,5.1406,5.1406,5.1406,5.1406,5.1699,5.2187,5.2558,5.3297,5.4197,5.4158,5.4313,5.4702,5.5472,5.5758,5.5816,5.6173,5.6309,5.6324,5.6388,5.6434,5.6462,5.6422,5.6411,5.641,5.6325,5.6309,5.6309,5.6309,5.6309,5.6309,5.6309,5.6309,5.6309,5.6309,5.629,5.6259,5.6259,5.6205,5.6167,5.6167,5.6089,5.5896,5.5548,5.5103,5.4677,5.4291,5.3807,5.3498,5.3498,5.3942,5.4252,5.4252,5.5142,5.5857,5.6225,5.7521,5.8642,5.9474,6.0209,6.0732,6.1041,6.108,6.108,6.1061,6.108,6.1099,6.1099,6.1099,6.1099,4.3794,0.0,0.0,0.0,0.0,0.0,0.0,0.0,0.0,0.0,0.0,0.0,0.0,0.0,0.0,0.0,0.0,0.0,0.0,0.0,0.0,0.0,0.0,0.0,0.0,0.0,0.0,0.0,5.1406,5.1406,5.1406,5.1406,5.1406,5.1406,5.1406,5.1406,5.1406,5.1406,5.1406,5.1406,5.1406,5.1406,5.1406,5.1406,5.1406,5.1406,5.1641,5.2129,5.2734,5.3223,5.416,5.5312,5.5566,5.5625,5.5644,5.6172,5.6374,5.6374,5.6374,5.6374,5.6393,5.6511,5.6556,5.6582,5.6543,5.6523,5.6503,5.6416,5.6374,5.6374,5.6374,5.6374,5.6374,5.6374,5.6374,5.6374,5.6374,5.6374,5.634,5.6353,5.6329,5.6311,5.6311,5.6175,5.6012,5.5743,5.5238,5.4851,5.4851,5.4307,5.4017,5.4233,5.5006,5.5509,5.5509,5.6824,5.7772,5.8004,5.9416,6.0499,6.1079,6.1099,6.1099,6.1099,6.1099,6.1099,6.1099,6.1099,6.1099,6.1099,6.1099,6.1099,0.0,0.0,0.0,4.5761,0.0,0.0,0.0,0.0,4.58,0.0,0.0,0.0,0.0,0.0,0.0,0.0,0.0,0.0,0.0,0.0,0.0,0.0,0.0,0.0,0.0,0.0,0.0,5.1406,5.1406,5.1406,5.1406,5.1406,5.1406,5.1406,5.1406,5.1406,5.1406,5.1406,5.1406,5.1406,5.1406,5.1406,5.1406,5.1406,5.1406,5.1445,5.2285,5.2676,5.2832,5.4512,5.5254,5.5371,5.623,5.6562,5.6562,5.6582,5.6582,5.6582,5.6582,5.6582,5.6582,5.6601,5.6601,5.6601,5.6601,5.6601,5.6601,5.6582,5.6582,5.6582,5.6582,5.6582,5.6582,5.6582,5.6582,5.6582,5.6582,5.6543,5.6484,5.6484,5.6397,5.6299,5.6299,5.6284,5.6012,5.5163,5.5009,5.4989,5.5001,5.4981,5.5274,5.6109,5.6863,5.7327,5.7327,5.8081,5.8913,5.9764,6.0596,6.1079,6.1099,6.1099,6.1099,6.1099,6.1099,6.1099,6.1099,6.1099,6.1099,6.1099,6.1099,6.1099,0.0,0.0,4.5731,4.5727,0.0,0.0,0.0,0.0,0.0,0.0,0.0,0.0,0.0,0.0,0.0,0.0,0.0,0.0,0.0,0.0,0.0,0.0,0.0,0.0,0.0,0.0,0.0,5.1406,5.1406,5.1406,0.0,5.1406,5.1406,5.1406,5.1406,5.1406,5.1406,5.1406,5.1406,5.1406,5.1406,5.1406,5.1406,5.1406,5.1719,5.2285,5.2578,5.3359,5.4473,5.5058,5.5644,5.6191,5.6484,5.6601,5.6601,5.6601,5.6601,5.6601,5.6601,5.6601,5.6601,5.6601,5.6601,5.6601,5.6601,5.6601,5.6601,5.6601,5.6601,5.6601,5.6601,5.6601,5.6601,5.6601,5.6601,5.6601,5.6601,5.6582,5.6562,5.6562,5.6523,5.6503,5.6503,5.6504,5.6353,5.5925,5.5866,5.5847,5.5858,5.5858,5.6189,5.7064,5.7375,5.7768,5.8349,5.9087,5.9861,6.0634,6.0944,6.1099,6.1099,6.1099,6.1099,6.1099,6.1099,6.1099,6.1099,6.1099,6.1099,6.1099,6.1099,6.1099,4.5693,4.5706,0.0,4.57,4.57,0.0,4.5765,0.0,0.0,0.0,0.0,0.0,0.0,0.0,0.0,0.0,0.0,0.0,0.0,0.0,0.0,0.0,0.0,0.0,0.0,0.0,5.1406,5.1406,5.1406,5.1406,0.0,0.0,5.1406,5.1406,5.1406,5.1406,5.1406,5.1406,5.1406,5.1406,5.1406,5.1406,5.1406,5.1719,5.2168,5.2734,5.3359,5.4258,5.5312,5.5625,5.6094,5.6601,5.6601,5.6601,5.6601,5.6601,5.6601,5.6601,5.6601,5.6601,5.6601,5.6601,5.6601,5.6601,5.6601,5.6601,5.666,5.6973,5.6836,5.668,5.6973,5.6836,5.6601,5.6601,5.6601,5.6601,5.6601,5.6601,5.6601,5.6601,5.6605,5.6606,5.6606,5.6606,5.6567,5.643,5.6411,5.6528,5.684,5.6879,5.7191,5.807,5.8401,5.8886,5.9721,6.022,6.0692,6.1176,6.1215,6.1215,6.1215,6.1176,6.1176,6.1176,6.1118,6.1099,6.1099,6.1099,6.1099,6.1099,6.1099,6.1099]},{"header":{"parameterUnit":"m.s-1","parameterCategory":1,"la1":30.6,"la2":29.2853,"lo1":-89.7004,"lo2":-87.6739,"dx":0.0162,"dy":0.0183,"nx":112,"ny":82,"refTime":"2023-01-22T18:00:00:Z","depth":0,"parameterNumber":3,"parameterNumberName":"V-component_of_WINDS"},"data":[0.0,0.0,0.0,0.0,0.0,0.0,0.0,0.0,0.0,0.0,0.0,0.0,0.0,0.0,0.0,0.0,0.0,0.0,0.0,0.0,0.0,0.0,0.0,0.0,0.0,0.0,0.0,0.0,0.0,0.0,0.0,0.0,0.0,0.0,0.0,0.0,0.0,0.0,0.0,0.0,0.0,0.0,0.0,0.0,0.0,0.0,0.0,0.0,0.0,0.0,0.0,0.0,0.0,0.0,0.0,0.0,0.0,0.0,0.0,0.0,0.0,0.0,0.0,0.0,0.0,0.0,0.0,0.0,0.0,0.0,0.0,0.0,0.0,0.0,0.0,0.0,0.0,0.0,0.0,0.0,0.0,0.0,0.0,0.0,0.0,0.0,0.0,0.0,0.0,0.0,0.0,-2.3975,-2.335,-2.3276,-2.3902,-2.3902,-2.4624,-2.6139,0.0,0.0,0.0,0.0,0.0,0.0,0.0,0.0,0.0,0.0,0.0,0.0,0.0,0.0,0.0,0.0,0.0,0.0,0.0,0.0,0.0,0.0,0.0,0.0,0.0,0.0,0.0,0.0,0.0,0.0,0.0,0.0,0.0,0.0,0.0,0.0,0.0,0.0,0.0,0.0,0.0,0.0,0.0,0.0,0.0,0.0,0.0,0.0,0.0,0.0,0.0,0.0,0.0,0.0,0.0,0.0,0.0,0.0,0.0,0.0,0.0,0.0,0.0,0.0,0.0,0.0,0.0,0.0,0.0,0.0,0.0,0.0,0.0,0.0,0.0,0.0,0.0,0.0,0.0,0.0,0.0,0.0,0.0,0.0,0.0,0.0,0.0,0.0,0.0,0.0,0.0,0.0,0.0,0.0,0.0,0.0,0.0,0.0,0.0,0.0,0.0,0.0,0.0,0.0,-2.3841,-2.3213,-2.3075,-2.3075,-2.3139,-2.3139,-2.379,-2.5382,0.0,0.0,0.0,0.0,0.0,0.0,0.0,0.0,0.0,0.0,0.0,0.0,0.0,0.0,0.0,0.0,0.0,0.0,0.0,0.0,0.0,0.0,0.0,0.0,0.0,0.0,0.0,0.0,0.0,0.0,0.0,0.0,0.0,0.0,0.0,0.0,0.0,0.0,0.0,0.0,0.0,0.0,0.0,0.0,0.0,0.0,0.0,0.0,0.0,0.0,0.0,0.0,0.0,0.0,0.0,0.0,0.0,0.0,0.0,0.0,0.0,0.0,0.0,0.0,0.0,0.0,0.0,0.0,0.0,0.0,0.0,0.0,0.0,0.0,0.0,0.0,0.0,0.0,0.0,0.0,0.0,0.0,0.0,0.0,0.0,0.0,0.0,0.0,0.0,0.0,0.0,0.0,0.0,0.0,0.0,0.0,0.0,0.0,0.0,0.0,0.0,0.0,0.0,-2.3486,-2.335,-2.3075,-2.3001,-2.3001,-2.3001,-2.3001,-2.3497,-2.4564,-2.5052,0.0,0.0,0.0,0.0,0.0,0.0,0.0,0.0,0.0,0.0,0.0,0.0,0.0,0.0,0.0,0.0,0.0,0.0,0.0,0.0,0.0,0.0,0.0,0.0,0.0,0.0,0.0,0.0,0.0,0.0,0.0,0.0,0.0,0.0,0.0,0.0,0.0,0.0,0.0,0.0,0.0,0.0,0.0,0.0,0.0,0.0,0.0,0.0,0.0,0.0,0.0,0.0,0.0,0.0,0.0,0.0,0.0,0.0,0.0,0.0,0.0,0.0,0.0,0.0,0.0,0.0,0.0,0.0,0.0,0.0,0.0,0.0,0.0,0.0,0.0,0.0,0.0,0.0,0.0,0.0,0.0,0.0,0.0,0.0,0.0,0.0,0.0,0.0,0.0,0.0,0.0,0.0,0.0,0.0,0.0,0.0,0.0,0.0,0.0,0.0,0.0,0.0,-2.3001,-2.3001,-2.3001,-2.3001,-2.3001,-2.3001,-2.3001,-2.3405,-2.4219,-2.4084,0.0,0.0,0.0,0.0,0.0,0.0,0.0,0.0,0.0,0.0,0.0,0.0,0.0,0.0,0.0,0.0,0.0,0.0,0.0,0.0,0.0,0.0,0.0,0.0,0.0,0.0,0.0,0.0,0.0,0.0,0.0,0.0,0.0,0.0,0.0,0.0,0.0,0.0,0.0,0.0,0.0,0.0,0.0,0.0,0.0,0.0,0.0,0.0,0.0,0.0,0.0,0.0,0.0,0.0,0.0,0.0,0.0,0.0,0.0,0.0,0.0,0.0,0.0,0.0,0.0,0.0,0.0,0.0,0.0,0.0,0.0,0.0,0.0,0.0,0.0,0.0,0.0,0.0,0.0,0.0,0.0,0.0,0.0,0.0,0.0,0.0,0.0,0.0,0.0,0.0,0.0,0.0,0.0,0.0,0.0,0.0,0.0,0.0,0.0,0.0,0.0,0.0,-2.3001,-2.3001,-2.3001,-2.3001,-2.3001,-2.3001,-2.3001,-2.356,-2.4757,-2.4113,0.0,0.0,0.0,0.0,0.0,0.0,0.0,0.0,0.0,0.0,0.0,0.0,0.0,0.0,0.0,0.0,0.0,0.0,0.0,0.0,0.0,0.0,0.0,0.0,0.0,0.0,0.0,0.0,0.0,0.0,0.0,0.0,0.0,0.0,0.0,0.0,0.0,0.0,0.0,0.0,0.0,0.0,0.0,0.0,0.0,0.0,0.0,0.0,0.0,0.0,0.0,0.0,0.0,0.0,0.0,0.0,0.0,0.0,0.0,0.0,0.0,0.0,0.0,0.0,0.0,0.0,0.0,0.0,0.0,0.0,0.0,0.0,0.0,0.0,0.0,0.0,0.0,0.0,0.0,0.0,0.0,0.0,0.0,0.0,0.0,0.0,0.0,0.0,0.0,0.0,0.0,0.0,0.0,0.0,0.0,0.0,0.0,0.0,0.0,0.0,0.0,0.0,-2.3001,-2.3001,0.0,-2.3274,-2.346,-2.346,-2.3744,-2.4161,-2.4648,0.0,0.0,0.0,0.0,0.0,0.0,0.0,0.0,0.0,0.0,0.0,0.0,0.0,0.0,0.0,0.0,0.0,0.0,0.0,0.0,0.0,0.0,0.0,0.0,0.0,0.0,0.0,0.0,0.0,0.0,0.0,0.0,0.0,0.0,0.0,0.0,0.0,0.0,0.0,0.0,0.0,0.0,0.0,0.0,0.0,0.0,0.0,0.0,0.0,0.0,0.0,0.0,0.0,0.0,0.0,0.0,0.0,0.0,0.0,0.0,0.0,0.0,0.0,0.0,0.0,0.0,0.0,0.0,0.0,0.0,0.0,0.0,0.0,0.0,0.0,0.0,0.0,0.0,0.0,0.0,0.0,0.0,0.0,0.0,0.0,0.0,0.0,0.0,0.0,0.0,0.0,0.0,0.0,0.0,0.0,0.0,0.0,0.0,0.0,0.0,0.0,0.0,-2.3001,-2.3132,-2.323,0.0,-2.3678,-2.3973,-2.3973,-2.429,-2.4552,-2.4694,0.0,0.0,0.0,0.0,0.0,0.0,0.0,0.0,0.0,0.0,0.0,0.0,0.0,0.0,0.0,0.0,0.0,0.0,0.0,0.0,0.0,0.0,0.0,0.0,0.0,0.0,0.0,0.0,0.0,0.0,0.0,0.0,0.0,0.0,0.0,0.0,0.0,0.0,0.0,0.0,0.0,0.0,0.0,0.0,0.0,0.0,0.0,0.0,0.0,0.0,0.0,0.0,0.0,0.0,0.0,0.0,0.0,0.0,0.0,0.0,0.0,0.0,0.0,0.0,0.0,0.0,0.0,0.0,0.0,0.0,0.0,0.0,0.0,0.0,0.0,0.0,0.0,0.0,0.0,0.0,0.0,0.0,0.0,0.0,0.0,0.0,0.0,0.0,0.0,0.0,0.0,0.0,0.0,0.0,0.0,0.0,0.0,0.0,0.0,0.0,0.0,0.0,-2.3012,-2.3438,-2.3733,-2.3733,-2.4192,-2.4497,-2.4497,-2.4497,-2.4694,0.0,0.0,0.0,0.0,0.0,0.0,0.0,0.0,0.0,0.0,0.0,0.0,0.0,0.0,0.0,0.0,0.0,0.0,0.0,0.0,0.0,0.0,0.0,0.0,0.0,0.0,0.0,0.0,0.0,0.0,0.0,0.0,0.0,0.0,0.0,0.0,0.0,0.0,0.0,0.0,0.0,0.0,0.0,0.0,0.0,0.0,0.0,0.0,0.0,0.0,0.0,0.0,0.0,0.0,0.0,0.0,0.0,0.0,0.0,0.0,0.0,0.0,0.0,0.0,0.0,0.0,0.0,0.0,0.0,0.0,0.0,0.0,0.0,0.0,0.0,0.0,0.0,0.0,0.0,0.0,0.0,0.0,0.0,0.0,0.0,0.0,0.0,0.0,0.0,0.0,0.0,0.0,0.0,0.0,0.0,0.0,0.0,0.0,0.0,0.0,0.0,0.0,0.0,0.0,-2.3951,-2.4268,-2.4268,-2.4683,-2.4967,-2.4967,-2.5284,-2.5546,-2.5677,0.0,0.0,0.0,0.0,0.0,0.0,0.0,0.0,0.0,0.0,0.0,0.0,0.0,0.0,0.0,0.0,0.0,0.0,0.0,0.0,0.0,0.0,0.0,0.0,0.0,0.0,0.0,0.0,0.0,0.0,0.0,0.0,0.0,0.0,0.0,0.0,0.0,0.0,0.0,0.0,0.0,0.0,0.0,0.0,0.0,0.0,0.0,0.0,0.0,0.0,0.0,0.0,0.0,0.0,0.0,0.0,0.0,0.0,0.0,0.0,0.0,0.0,0.0,0.0,0.0,0.0,0.0,0.0,0.0,0.0,0.0,0.0,0.0,0.0,0.0,0.0,0.0,0.0,0.0,0.0,0.0,0.0,0.0,0.0,0.0,0.0,0.0,0.0,0.0,0.0,0.0,0.0,0.0,0.0,0.0,0.0,0.0,0.0,0.0,0.0,0.0,0.0,-2.4039,-2.4454,-2.476,-2.476,-2.5185,-2.5459,-2.5459,-2.5732,-2.5895,-2.5895,0.0,0.0,0.0,0.0,0.0,0.0,0.0,0.0,0.0,0.0,0.0,0.0,0.0,0.0,0.0,0.0,0.0,0.0,0.0,0.0,0.0,0.0,0.0,0.0,0.0,0.0,0.0,0.0,0.0,0.0,0.0,0.0,0.0,0.0,0.0,0.0,0.0,0.0,0.0,0.0,0.0,0.0,0.0,0.0,0.0,0.0,0.0,0.0,0.0,0.0,0.0,0.0,0.0,0.0,0.0,0.0,0.0,0.0,0.0,0.0,0.0,0.0,0.0,0.0,0.0,0.0,0.0,0.0,0.0,0.0,0.0,0.0,0.0,0.0,0.0,0.0,0.0,0.0,0.0,0.0,0.0,0.0,0.0,0.0,0.0,0.0,0.0,0.0,0.0,0.0,0.0,0.0,0.0,0.0,0.0,0.0,0.0,0.0,0.0,0.0,0.0,0.0,-2.4552,-2.4956,-2.524,-2.524,-2.5633,-2.5895,-2.5895,-2.5895,-2.5895,-2.5895,0.0,0.0,0.0,0.0,0.0,0.0,0.0,0.0,0.0,0.0,0.0,0.0,0.0,0.0,0.0,0.0,0.0,0.0,0.0,0.0,0.0,0.0,0.0,0.0,0.0,0.0,0.0,0.0,0.0,0.0,0.0,0.0,0.0,0.0,0.0,0.0,0.0,0.0,0.0,0.0,0.0,0.0,0.0,0.0,0.0,0.0,0.0,0.0,0.0,0.0,0.0,0.0,0.0,0.0,0.0,0.0,0.0,0.0,0.0,0.0,-2.3766,0.0,0.0,0.0,0.0,0.0,0.0,0.0,0.0,0.0,0.0,0.0,0.0,0.0,0.0,0.0,0.0,0.0,0.0,0.0,0.0,0.0,0.0,0.0,0.0,0.0,0.0,0.0,0.0,0.0,0.0,0.0,0.0,0.0,0.0,0.0,0.0,0.0,0.0,0.0,0.0,0.0,-2.5033,-2.5448,-2.5742,-2.5742,-2.5841,-2.5895,-2.5895,-2.5895,-2.5895,-2.5895,0.0,0.0,0.0,0.0,0.0,0.0,0.0,0.0,0.0,0.0,0.0,0.0,0.0,0.0,0.0,0.0,0.0,0.0,0.0,0.0,0.0,0.0,0.0,0.0,0.0,0.0,0.0,0.0,0.0,0.0,0.0,0.0,0.0,0.0,0.0,0.0,0.0,0.0,0.0,0.0,0.0,0.0,0.0,0.0,0.0,0.0,0.0,0.0,0.0,0.0,0.0,0.0,0.0,0.0,0.0,0.0,0.0,0.0,0.0,0.0,0.0,-2.3712,0.0,0.0,0.0,0.0,0.0,0.0,0.0,0.0,0.0,0.0,0.0,0.0,0.0,0.0,0.0,0.0,0.0,0.0,0.0,0.0,0.0,0.0,0.0,0.0,0.0,0.0,0.0,0.0,0.0,0.0,0.0,0.0,0.0,0.0,0.0,0.0,0.0,0.0,0.0,0.0,-2.5441,-2.5659,-2.5812,-2.5549,-2.5644,-2.5728,-2.5549,-2.5549,-2.5549,-2.5549,-2.5549,0.0,0.0,0.0,0.0,0.0,0.0,0.0,0.0,0.0,0.0,0.0,0.0,0.0,0.0,0.0,0.0,0.0,0.0,0.0,0.0,0.0,0.0,0.0,0.0,0.0,0.0,0.0,0.0,0.0,0.0,0.0,0.0,0.0,0.0,0.0,0.0,0.0,0.0,0.0,0.0,0.0,0.0,0.0,0.0,0.0,0.0,0.0,0.0,0.0,0.0,0.0,0.0,0.0,-2.3754,-2.428,-2.428,-2.4059,-2.3893,-2.3696,-2.3831,-2.3802,-2.3646,0.0,0.0,0.0,0.0,0.0,0.0,0.0,0.0,0.0,0.0,0.0,0.0,0.0,0.0,0.0,0.0,0.0,0.0,0.0,0.0,0.0,0.0,0.0,0.0,0.0,-2.3045,-2.3281,0.0,0.0,0.0,0.0,0.0,0.0,0.0,0.0,0.0,0.0,0.0,0.0,-2.5644,-2.5644,-2.5633,-2.5369,-2.5464,-2.5475,-2.5295,-2.52,-2.52,-2.52,-2.52,-2.5285,0.0,0.0,0.0,0.0,0.0,0.0,0.0,0.0,0.0,0.0,0.0,0.0,0.0,0.0,0.0,0.0,0.0,0.0,0.0,0.0,0.0,0.0,0.0,0.0,0.0,0.0,0.0,0.0,0.0,0.0,0.0,0.0,-2.3688,-2.3688,0.0,0.0,0.0,0.0,0.0,0.0,0.0,0.0,0.0,0.0,0.0,0.0,0.0,0.0,-2.1565,-2.1765,-2.2233,-2.295,-2.347,-2.3978,-2.4449,-2.4454,-2.4293,-2.3985,-2.3369,0.0,-2.2685,-2.3021,0.0,0.0,0.0,0.0,0.0,0.0,0.0,0.0,0.0,0.0,0.0,0.0,0.0,0.0,0.0,0.0,0.0,0.0,0.0,0.0,0.0,0.0,-2.3019,-2.3019,-2.3538,-2.3949,0.0,-2.3838,-2.405,-2.405,0.0,0.0,0.0,0.0,0.0,0.0,0.0,0.0,-2.5559,-2.5295,-2.5211,-2.5728,-2.5644,-2.557,-2.5559,-2.5285,-2.52,-2.52,-2.52,-2.5115,-2.5031,-2.5115,0.0,0.0,0.0,0.0,0.0,0.0,0.0,0.0,0.0,0.0,0.0,0.0,0.0,0.0,0.0,0.0,0.0,0.0,0.0,0.0,0.0,0.0,0.0,0.0,0.0,0.0,0.0,0.0,0.0,-2.3628,-2.3628,-2.3628,-2.37,-2.37,0.0,0.0,0.0,0.0,0.0,0.0,0.0,0.0,0.0,-2.2347,-2.1542,-2.1058,-2.1039,-2.1185,-2.1565,-2.2183,-2.3004,-2.3571,-2.3804,-2.3684,-2.3587,-2.3412,-2.2692,-2.2232,-2.2161,-2.2742,-2.287,-2.2622,0.0,0.0,0.0,0.0,0.0,-2.3497,-2.2692,-2.2467,0.0,0.0,0.0,0.0,0.0,0.0,0.0,0.0,0.0,0.0,0.0,0.0,0.0,-2.3351,-2.372,-2.4059,-2.3895,-2.4259,-2.4519,0.0,-2.4913,-2.5319,-2.5579,0.0,0.0,0.0,0.0,0.0,-2.4402,-2.4584,-2.4775,-2.5052,-2.4946,-2.4861,-2.4967,-2.4155,-2.3704,-2.3973,-2.4059,-2.4059,-2.4059,-2.4669,-2.5031,0.0,0.0,0.0,0.0,0.0,0.0,0.0,0.0,0.0,0.0,0.0,0.0,0.0,0.0,0.0,0.0,0.0,0.0,0.0,0.0,0.0,0.0,0.0,0.0,0.0,0.0,0.0,0.0,-2.3437,-2.3437,-2.3437,-2.3378,-2.3245,0.0,0.0,0.0,0.0,0.0,0.0,-2.3078,-2.2433,-2.1975,-2.1804,-2.0792,-2.0389,-2.0662,-2.079,-2.1177,-2.1745,-2.2775,-2.3213,-2.3225,-2.3047,-2.2927,-2.2628,-2.2035,-2.1807,-2.1883,-2.2478,-2.2703,-2.2703,-2.2703,-2.3054,-2.339,-2.2241,-2.2176,-2.2628,-2.2025,-2.1807,-2.1807,-2.1807,0.0,-2.1828,-2.2095,0.0,0.0,0.0,0.0,-2.2987,-2.3492,-2.3591,-2.3604,-2.3604,-2.4042,-2.4294,-2.4127,-2.4461,-2.4925,0.0,-2.5039,-2.5285,-2.5644,0.0,0.0,0.0,0.0,-2.379,-2.3704,-2.379,-2.4059,-2.4529,-2.4166,-2.3897,-2.4003,-2.3018,-2.2482,-2.2746,-2.3008,-2.3183,-2.3347,-2.4241,-2.4871,-2.5031,0.0,0.0,0.0,0.0,0.0,0.0,0.0,0.0,0.0,0.0,0.0,0.0,0.0,0.0,0.0,0.0,0.0,0.0,0.0,0.0,0.0,0.0,0.0,0.0,0.0,0.0,0.0,0.0,0.0,-2.3138,-2.275,0.0,0.0,0.0,0.0,-2.2175,-2.275,-2.2811,-2.2175,-2.2101,-2.1713,-2.0907,-2.0795,-2.0683,-2.0389,-2.0897,-2.1491,-2.2248,-2.2802,-2.3032,-2.3032,-2.299,-2.2553,-2.1883,-2.1807,-2.1807,-2.1807,-2.1807,-2.1883,-2.1883,-2.1883,-2.1873,-2.1873,-2.1807,-2.1807,-2.1873,-2.1807,-2.1807,-2.1807,-2.1807,-2.1807,-2.189,-2.2325,-2.2459,0.0,0.0,-2.3153,-2.3153,-2.3184,-2.3515,-2.3846,-2.3846,-2.4336,-2.4829,-2.4509,-2.469,-2.4946,0.0,-2.5094,-2.52,-2.52,0.0,-2.3973,-2.4155,-2.2999,-2.2648,-2.4231,-2.3086,-2.2824,-2.468,-2.3617,-2.2824,-2.2824,-2.257,-2.2217,-2.1784,-2.257,-2.3096,-2.3096,-2.4003,-2.454,-2.454,-2.454,0.0,0.0,0.0,0.0,0.0,0.0,0.0,0.0,0.0,0.0,0.0,0.0,0.0,0.0,0.0,0.0,0.0,0.0,0.0,0.0,0.0,0.0,0.0,0.0,0.0,0.0,0.0,0.0,-2.1815,-2.169,0.0,0.0,-2.1502,-2.1553,-2.1428,-2.2051,-2.2175,-2.1491,-2.1742,-2.1567,-2.0817,-2.0642,-2.0613,-2.0866,-2.1031,-2.1407,-2.2009,-2.2178,-2.2252,-2.2252,-2.2252,-2.2101,-2.1807,-2.1807,-2.1807,-2.1807,-2.1807,-2.1807,-2.1807,-2.1807,-2.1807,-2.1807,-2.1807,-2.1807,-2.1807,-2.1807,-2.1807,-2.1859,-2.2149,-2.2252,-2.2335,-2.2801,-2.2946,-2.3039,-2.3505,-2.3629,-2.3701,-2.3981,-2.4178,-2.4312,-2.4312,-2.4501,-2.4615,-2.454,-2.4625,-2.4433,-2.3887,-2.38,-2.3973,-2.4231,-2.327,-2.2306,-2.1933,-2.1596,-2.1418,-2.1756,-2.1507,-2.1784,-2.2746,-2.2129,-2.1686,-2.2041,-2.115,-2.0619,-2.0799,-2.1141,-2.1587,-2.2129,-2.3105,-2.3907,-2.4454,-2.454,-2.454,0.0,0.0,0.0,0.0,0.0,0.0,0.0,0.0,0.0,0.0,0.0,0.0,0.0,0.0,0.0,0.0,0.0,0.0,0.0,0.0,0.0,0.0,0.0,0.0,0.0,0.0,-2.1123,-2.1123,-2.0869,-2.0741,-2.0741,-2.0741,-2.0741,-2.0741,-2.1527,-2.1696,-2.1054,-2.1407,-2.1417,-2.0893,-2.0707,-2.0886,-2.1342,-2.1352,-2.1507,-2.1807,-2.1807,-2.1807,-2.1807,-2.1807,-2.1807,-2.1807,-2.1807,-2.1807,-2.1807,-2.1807,-2.1807,-2.1807,-2.1807,-2.1807,-2.1807,-2.1807,-2.1807,-2.1828,-2.1983,-2.2139,-2.2325,-2.2635,-2.2729,-2.2811,-2.3277,-2.3422,-2.3515,-2.3971,-2.4105,-2.4167,-2.4467,-2.454,-2.454,-2.454,-2.454,-2.454,-2.454,-2.4272,-2.382,-2.3183,-2.3096,-2.3096,-2.3096,-2.2041,-2.115,-2.0782,-2.0619,-2.0538,-2.0619,-2.0529,-2.0808,-2.1516,-2.0898,-2.0628,-2.0988,-2.0175,-1.9637,-1.9812,-2.0076,-2.061,-2.1239,-2.2394,-2.3367,-2.4003,-2.4358,-2.454,-2.454,0.0,0.0,0.0,0.0,0.0,0.0,0.0,0.0,0.0,0.0,0.0,0.0,0.0,0.0,0.0,0.0,0.0,0.0,0.0,0.0,0.0,0.0,0.0,-2.0869,-2.106,-2.106,-2.106,-2.0484,-2.0096,-2.0096,-2.0053,-2.0064,-2.0064,-2.1171,-2.1519,-2.085,-2.1239,-2.1364,-2.1104,-2.1124,-2.1352,-2.1797,-2.1807,-2.1807,-2.1807,-2.1807,-2.1807,-2.1807,-2.1807,-2.1807,-2.1807,-2.1807,-2.1807,-2.1807,-2.1807,-2.1807,-2.1807,-2.1807,-2.1807,-2.1807,-2.1828,-2.1838,-2.1911,-2.2366,-2.2811,-2.3184,-2.3205,-2.3205,-2.3298,-2.3764,-2.3898,-2.3991,-2.4416,-2.454,-2.4454,-2.4454,-2.4454,-2.4454,-2.4454,-2.4454,-2.4454,-2.4454,-2.3724,-2.3008,-2.3008,-2.3008,-2.2746,-2.1784,-2.0881,-2.0439,-2.0898,-2.0184,0.0,-2.1069,-2.0266,-1.9994,-2.106,-2.0266,-1.9546,-1.9546,-1.9546,-1.9371,-1.8827,-1.972,-2.0257,-2.0339,-2.2031,-2.3008,-2.3096,-2.3993,-2.4454,-2.454,0.0,0.0,0.0,0.0,0.0,0.0,0.0,0.0,0.0,0.0,0.0,0.0,0.0,0.0,0.0,0.0,0.0,0.0,0.0,0.0,0.0,0.0,-1.9966,-2.0291,-1.9977,-1.9649,-1.9649,-1.9462,-1.9396,-1.9396,-1.9702,-1.9902,-1.9902,-2.0942,-2.1283,-2.0516,-2.1446,-2.1696,-2.1114,-2.1445,-2.1673,-2.1807,-2.1807,-2.1807,-2.1807,-2.1807,-2.1807,-2.1807,-2.1807,-2.1807,-2.1807,-2.1807,-2.1807,-2.1807,-2.1807,-2.1807,-2.1807,-2.1807,-2.1807,-2.1849,-2.218,-2.2522,-2.2822,-2.2956,-2.308,-2.3246,-2.3577,-2.3691,-2.3774,-2.4219,-2.4364,-2.4385,-2.4509,-2.454,-2.4358,-2.3637,-2.4003,-2.4358,-2.3637,-2.3454,-2.3454,-2.3454,-2.2746,-2.1863,-2.123,-2.1051,-2.0962,-2.0701,-1.9903,-1.9279,-1.9371,-1.9188,0.0,-1.9455,-1.9188,-1.9096,-1.9455,-1.9188,-1.9004,-1.9004,-1.9004,-1.892,0.0,-1.9096,-1.9546,-2.0257,-2.0782,-2.1676,-2.3096,-2.3367,-2.382,0.0,0.0,0.0,0.0,0.0,0.0,0.0,0.0,0.0,0.0,0.0,0.0,0.0,0.0,0.0,0.0,0.0,0.0,0.0,0.0,0.0,0.0,-1.9462,-1.9649,-1.9649,-1.933,-1.9075,-1.9075,-1.9241,-1.9354,-1.9354,-1.9768,-2.0038,-2.0038,-2.0889,-2.1142,-2.0721,-2.1513,-2.1766,-2.1404,-2.1662,-2.1807,-2.1807,-2.1807,-2.1807,-2.1807,-2.1807,-2.1807,-2.1807,-2.1807,-2.1807,0.0,-2.1807,-2.1807,-2.1818,-2.2014,-2.1855,0.0,0.0,0.0,0.0,0.0,-2.308,-2.3474,-2.3474,-2.3598,-2.3795,-2.4064,-2.4157,-2.4114,-2.3922,-2.3907,-2.3907,-2.3907,-2.3647,-2.329,-2.3105,-2.3193,-2.3202,-2.2658,-2.2482,-2.2482,-2.2482,-2.1774,-2.097,-2.0439,0.0,0.0,-1.9629,-1.918,-1.8827,-1.8827,-1.8827,-1.8827,-1.8827,-1.8827,-1.8827,-1.8827,-1.8827,-1.8827,-1.8827,-1.8827,0.0,0.0,0.0,-1.9271,-2.0249,-2.0339,0.0,0.0,0.0,-2.3018,0.0,0.0,0.0,0.0,-2.4416,-2.4405,0.0,0.0,0.0,0.0,0.0,0.0,0.0,0.0,0.0,0.0,0.0,0.0,0.0,0.0,0.0,0.0,-1.9116,-1.9214,-1.9214,-1.9189,-1.921,-1.9147,-1.9561,-1.99,-1.99,-2.0245,-2.0503,-2.0503,-2.0928,-2.1186,-2.1186,0.0,0.0,0.0,0.0,-2.1807,-2.1807,-2.1721,-2.1721,-2.1807,-2.1721,-2.1645,-2.1645,-2.1645,-2.1568,-2.1492,-2.1492,-2.1522,-2.1594,-2.2002,-2.174,-2.1186,-2.2098,-2.2436,-2.2528,-2.3111,-2.3464,-2.3772,-2.3772,0.0,0.0,-2.4186,-2.4186,-2.4003,-2.3193,-2.2921,-2.2921,-2.2921,-2.2306,-2.1872,-2.257,-2.2217,-2.1695,-2.1606,-2.1516,-2.1516,-2.1516,-2.0791,-2.0167,-2.0167,-1.9455,-1.8827,-1.8827,-1.8827,-1.8827,-1.8827,-1.8827,-1.8827,-1.8827,-1.8827,-1.8827,-1.8827,0.0,0.0,-1.8827,-1.8827,-1.8827,-1.8827,-1.8827,-1.9188,-2.0076,-2.0167,-2.0619,-2.1516,-2.1516,-2.2041,-2.2921,-2.2921,-2.3377,-2.4186,-2.4368,-2.454,0.0,0.0,0.0,0.0,0.0,0.0,0.0,0.0,0.0,0.0,0.0,0.0,0.0,0.0,0.0,-1.9075,-1.9453,-1.9624,-1.9624,-1.9934,-2.0027,-1.9665,-2.0027,-2.0296,-2.0296,-2.071,-2.0979,-2.0979,-2.1414,-2.1673,-2.1673,-2.1756,0.0,-2.1807,-2.1807,-2.1807,-2.1807,-2.1098,-2.1088,-2.1807,0.0,0.0,-2.0779,-2.0779,-2.0382,-1.9816,-1.9816,-1.9925,-2.0164,-2.0239,-2.0587,-2.1079,-2.1651,-2.206,-2.2562,-2.3442,-2.3581,-2.3238,-2.3238,-2.2775,-2.2227,-2.2227,-2.2227,-2.2227,-2.205,-2.1961,0.0,-2.1961,-2.1872,-2.1606,-2.097,-2.1239,-2.1516,-2.0791,-2.061,-2.061,-2.061,-1.9812,-1.9096,-1.9096,-1.8912,-1.8827,-1.8827,-1.8827,-1.8827,-1.8827,-1.8827,-1.8827,-1.8827,-1.8827,-1.8827,-1.8827,-1.8827,-1.8827,-1.8827,-1.8827,-1.8827,-1.8827,-1.8827,-1.892,-1.9096,-1.9096,-1.9546,-2.052,-2.061,-2.106,-2.1961,-2.1961,-2.205,-2.2315,-2.3831,-2.454,0.0,0.0,0.0,0.0,0.0,0.0,0.0,0.0,0.0,0.0,0.0,-1.9075,0.0,0.0,-1.9484,-1.9484,-1.9799,-2.0089,-2.0089,-2.0483,-2.0607,-2.0151,-2.0493,-2.0617,-2.0179,-2.0507,-2.0596,-2.0205,-2.0804,-2.1175,-2.1175,-2.1568,-2.1568,-2.1175,-2.1175,-2.0934,-2.0527,-2.0138,-2.0138,-2.0527,-2.0138,-1.9904,-1.9904,-1.9904,-1.9771,-1.9567,-1.9567,-1.9715,-2.0025,-1.9796,-2.0059,-2.066,-2.0884,-2.1451,-2.2168,-2.3146,-2.3016,-2.2394,-2.2394,-2.205,-2.1695,-2.1695,-2.1695,-2.1606,-2.115,-2.097,-2.097,-2.097,-2.0619,-2.0257,-2.0257,-2.0257,-2.0175,-1.9629,-1.9538,-1.9538,-1.9538,-1.9188,-1.8827,-1.8827,-1.8827,-1.8827,-1.8827,-1.8827,-1.8827,-1.8827,-1.8827,-1.8827,-1.8827,-1.8827,-1.8827,-1.8827,-1.8827,-1.8827,-1.8827,-1.8827,-1.8827,-1.8827,-1.8827,-1.8827,-1.8827,-1.8827,-1.9004,-1.9546,-1.9538,-1.9985,-2.097,-2.097,-2.1248,-2.1695,-2.2668,-2.3115,0.0,0.0,0.0,0.0,0.0,0.0,0.0,0.0,-1.9911,-1.9911,-1.9526,-1.9266,-1.9266,-1.9503,-1.9674,-1.9674,-1.99,-2.004,-2.004,-2.0424,-2.0575,-2.0202,-2.0642,-2.0642,-1.9878,-2.0101,-1.9982,-1.9344,-1.9904,-2.0304,-2.0304,-2.0934,-2.1011,-2.0294,-2.0304,-1.9982,-1.9344,-1.9179,-1.9216,-1.9384,-1.9297,-1.9263,-1.9263,-1.9263,-1.9354,-1.9413,-1.9493,-1.9623,-1.9856,-1.9553,-1.9715,-1.9985,-2.0249,-2.061,-2.1248,-2.2394,-2.2217,-2.1427,-2.1427,-2.1338,-2.1159,-2.1159,-2.1159,-2.0979,-2.0257,-1.9985,-1.9985,-1.9985,-1.9455,-1.9004,-1.9812,-1.9455,-1.8827,-1.8827,-1.8827,-1.8827,-1.8827,-1.8827,-1.8827,-1.8827,-1.8827,-1.8827,-1.8827,-1.8827,-1.8827,-1.8827,-1.8827,-1.8827,-1.8827,-1.8827,-1.8827,-1.8827,-1.8827,-1.8827,-1.8827,-1.8827,-1.8827,-1.8827,-1.8827,-1.8827,-1.8827,-1.8827,-1.8827,-1.8827,-1.8827,-1.9188,-1.9985,-1.9985,-2.0439,-2.1159,-2.1159,-2.1338,0.0,0.0,0.0,-2.0933,-2.0226,-1.9452,0.0,0.0,-1.9198,-1.9198,-1.9463,-1.9754,-1.9754,-1.9475,-1.9262,-1.9262,-1.9031,-1.8776,-1.8776,-1.9186,-1.9487,-1.944,-2.012,-2.0227,-1.9437,-1.9395,-1.9423,-1.9344,-1.9423,-1.9413,-1.9413,-1.9502,-1.9502,-1.9423,-1.9413,-1.9413,-1.9335,-1.8813,-1.8988,-1.9724,-1.9349,-1.911,-1.911,-1.911,-1.87,-1.807,-1.8306,-1.8467,-1.8531,-1.8803,-1.888,-1.9096,-1.9985,-1.9812,-1.9371,-2.115,-2.1239,-2.043,-2.043,-1.9894,-1.9096,-1.9096,-1.9096,-1.9096,-1.9004,-1.9004,-1.9004,-1.9004,-1.892,-1.8827,-1.892,-1.892,-1.8827,-1.8827,-1.8827,-1.8827,-1.8827,-1.8827,-1.8827,-1.8827,-1.8827,-1.8827,-1.8827,-1.8827,-1.8827,-1.8827,-1.8827,-1.8827,-1.8827,-1.8827,-1.8827,-1.8827,-1.8827,-1.8827,-1.8827,-1.8827,-1.8827,-1.8827,-1.8827,-1.8827,-1.8827,-1.8827,-1.8827,-1.8827,-1.8827,-1.8827,-1.9004,-1.9004,-1.9004,-1.9096,-1.9096,-2.0085,-1.9573,0.0,0.0,0.0,-1.9518,-1.9198,-1.9452,-1.933,-1.9214,-1.9484,-1.927,-1.9264,-2.0019,-1.9419,-1.9042,0.0,-1.9307,-1.9017,-1.9017,-1.9155,-1.9097,-1.863,-1.8868,-1.8948,-1.855,-1.855,-1.831,-1.7836,-1.8238,-1.855,-1.855,-1.9027,-1.9127,-1.8804,-1.8813,-1.8672,-1.8397,-1.8228,-1.8311,-1.8634,-1.8468,-1.8378,-1.8378,-1.8378,-1.8232,-1.8097,-1.8454,-1.8605,-1.8613,-1.8764,-1.8827,-1.8827,-1.9271,-1.918,-1.9004,-2.0348,-2.0257,-1.9455,-1.9455,-1.9188,-1.8827,-1.8827,-1.8827,-1.8827,-1.8827,-1.8827,-1.8827,-1.8827,-1.8827,-1.8827,-1.8827,-1.8827,-1.8827,-1.8827,-1.8827,-1.8827,-1.8827,-1.8827,-1.8827,-1.8827,-1.9002,-1.9145,-1.9145,-1.9304,-1.9431,-1.9431,-1.9082,-1.8827,-1.8827,-1.8827,-1.8827,-1.8827,-1.8827,-1.8827,-1.8827,-1.8827,-1.8827,-1.8827,-1.8827,-1.8827,-1.8827,-1.8827,-1.8827,-1.8827,-1.8827,-1.8827,-1.8827,-1.8827,-1.8827,-1.8827,-1.8827,-1.9279,-1.8741,0.0,0.0,-1.9065,-1.9075,-1.9075,-1.9075,-1.9168,-1.9422,-1.9765,-1.9314,-1.9144,-2.0113,-1.925,0.0,-1.9238,-1.8925,-1.855,-1.855,-1.855,-1.831,-1.7683,-1.7602,-1.7602,-1.7602,-1.7602,-1.7367,-1.673,-1.7286,-1.7733,-1.7834,-1.8403,-1.8568,-1.8297,-1.8305,-1.8099,-1.7763,-1.7866,-1.7914,-1.7914,-1.8017,-1.8065,-1.8065,-1.8065,-1.82,-1.8454,-1.8716,-1.8827,-1.8827,-1.8827,-1.8827,-1.8827,-1.8827,-1.8827,-1.892,-1.9629,-1.9455,-1.8827,-1.8827,-1.8827,-1.8827,-1.8827,-1.8827,-1.8827,-1.8827,-1.8827,-1.8827,-1.8827,-1.8827,-1.8827,-1.8827,-1.8827,-1.8827,-1.8827,-1.8907,-1.8978,-1.8978,-1.905,-1.9113,-1.9113,-1.9328,-1.9511,-1.9511,-1.9709,-1.9868,-1.9868,-1.9439,-1.9113,-1.9113,-1.9113,-1.9113,-1.9113,-1.9113,-1.9113,-1.9113,-1.9113,-1.9113,-1.9113,-1.9113,-1.9113,-1.9113,-1.9113,-1.9113,-1.9113,-1.9113,-1.9113,-1.9113,-1.9113,-1.9113,-1.9113,-1.9113,-1.9113,0.0,0.0,-1.8875,-1.9065,-1.9075,-1.9075,-1.9075,-1.9484,-1.9806,-1.9827,-1.9805,-1.9883,-1.9893,-1.8903,-1.806,-1.806,-1.7359,-1.6812,-1.6812,-1.6812,-1.673,-1.673,-1.673,-1.673,0.0,-1.673,-1.673,-1.673,-1.673,-1.6889,-1.7323,-1.7347,-1.7499,-1.7826,-1.7842,-1.7842,-1.7771,-1.8112,-1.8279,-1.8287,-1.8629,-1.8796,-1.8796,-1.8796,-1.8804,-1.8812,-1.8827,-1.8827,-1.8827,-1.8827,-1.8827,-1.8827,-1.8827,-1.8827,-1.8827,-1.8827,-1.8827,-1.8827,-1.8827,-1.8827,-1.8827,-1.8827,-1.8827,-1.8827,-1.8827,-1.8827,-1.8827,-1.8827,-1.8827,-1.8827,-1.8827,-1.8827,-1.8827,-1.8827,-1.9098,-1.9352,-1.9352,-1.9606,-1.9836,-1.9836,-1.9844,-1.9852,-1.9852,-1.986,-1.9868,-1.9868,-1.9844,-1.9836,-1.9836,-1.9836,-1.9836,-1.9836,-1.9836,-1.9836,-1.9836,-1.9836,-1.9836,-1.9836,-1.9836,-1.9836,-1.9836,-1.9836,-1.9836,-1.9836,-1.9836,-1.9836,-1.9836,-1.9836,-1.9836,-1.9836,-1.9836,-1.9836,0.0,0.0,-1.7207,-1.7404,-1.7541,-1.7695,-1.7903,-1.8085,-1.8342,-1.8915,-1.8561,-1.8443,-1.9329,-1.8231,-1.7367,-1.7917,-1.7286,-1.673,-1.673,-1.673,-1.673,-1.673,-1.673,0.0,0.0,0.0,0.0,-1.708,-1.7096,-1.7247,-1.7588,-1.7604,-1.7763,-1.8112,-1.812,-1.8232,-1.847,-1.8589,-1.8653,-1.8653,-1.8772,-1.8542,-1.8071,-1.8542,-1.8827,-1.8827,-1.8827,-1.8542,-1.8071,-1.8071,-1.7792,-1.7426,-1.7885,-1.8071,-1.8164,-1.8643,-1.8827,-1.8827,-1.8827,-1.8827,-1.8827,-1.8827,-1.8827,-1.8827,-1.8827,-1.8827,-1.8827,-1.8827,-1.9002,-1.9193,-1.9193,-1.9352,-1.9519,-1.9519,-1.9606,-1.9701,-1.9701,-1.9392,-1.9063,-1.9063,-1.9247,-1.9407,-1.9407,-2.0,-2.0365,-1.9852,-1.9865,-1.9665,-1.9063,-1.9063,-1.8875,-1.8284,-1.8671,-1.9063,-1.9063,-1.9568,-1.9868,-1.9868,-1.9868,-1.9868,-1.9868,-1.9868,-1.9868,-1.9868,-1.9868,-1.9868,-1.9868,-1.9868,-1.9868,-1.9868,-1.9868,-1.9868,0.0,-1.6437,-1.6228,-1.6498,-1.6815,-1.7006,-1.726,-1.7542,-1.7823,-1.8253,-1.7857,-1.7715,-1.8585,-1.7602,-1.6894,-1.7448,-1.7049,-1.673,-1.673,-1.6484,-1.6319,-1.6319,-1.6154,0.0,0.0,0.0,0.0,-1.7262,-1.739,-1.7518,-1.7593,-1.7609,-1.7765,-1.8107,-1.8115,-1.8224,-1.8442,-1.845,-1.8265,-1.7986,-1.7986,-1.7792,-1.7318,-1.78,-1.7986,-1.7986,-1.7986,-1.7699,-1.7326,-1.7326,-1.7044,-1.669,-1.7261,-1.7494,-1.7508,-1.81,-1.8335,-1.8305,-1.8342,-1.845,-1.8373,-1.8216,-1.8348,-1.8559,-1.8683,-1.891,-1.9201,-1.9201,-1.9368,-1.955,-1.955,-1.9701,-1.9868,-1.9868,-1.976,-1.9649,-1.9649,-1.9047,-1.8527,-1.8527,-1.8687,-1.8833,-1.8833,-1.953,-1.9879,-1.9257,-1.9314,-1.913,-1.8628,-1.8527,-1.8326,-1.782,-1.8225,-1.8628,-1.8929,-1.923,-1.9537,-1.9836,-1.9537,-1.9537,-1.9844,-1.9844,-1.9943,-2.0241,-2.0241,-2.0241,-2.0241,-2.0241,-2.0241,-2.0241,-2.0241,-2.0241,-1.5869,-1.5939,-1.6009,-1.6385,-1.6741,-1.6955,-1.7,-1.7587,-1.8122,-1.789,-1.774,-1.761,0.0,0.0,-1.6648,-1.6648,-1.6648,-1.6656,-1.6566,-1.6064,-1.565,0.0,0.0,0.0,0.0,0.0,0.0,-1.7156,0.0,-1.7513,-1.7236,-1.716,-1.7294,-1.7584,-1.7598,-1.7598,-1.7598,-1.7598,-1.7225,-1.6581,-1.6588,-1.6588,-1.6581,-1.6588,-1.6595,-1.6609,-1.6609,-1.6616,-1.6536,-1.6536,-1.6536,-1.6564,-1.6849,-1.696,-1.6995,-1.7288,-1.7392,-1.7407,-1.7574,-1.7643,-1.7601,-1.7152,-1.7541,-1.8171,-1.8476,-1.9169,-1.9763,-1.986,-1.9779,-1.9794,-1.9892,-1.9908,-1.9818,-1.9916,-1.9468,-1.9093,-1.9093,-1.8722,-1.8318,-1.8318,-1.8318,-1.8318,-1.8422,-1.8422,-1.8318,-1.8318,-1.8318,-1.8318,-1.8318,-1.8318,-1.8318,-1.8318,-1.8318,-1.8632,-1.9465,-1.884,-1.8736,-1.9576,-1.884,-1.8736,-1.9576,-1.968,-2.0094,-2.0814,-2.0925,-2.0925,-2.0925,-2.0925,-2.0925,-2.0925,-2.0925,-2.0925,-1.4816,-1.4689,-1.4488,-1.4812,-1.5086,-1.5351,-1.5886,-1.615,-1.6349,-1.6532,-1.6659,-1.6722,0.0,0.0,0.0,-1.6072,-1.5982,0.0,-1.5318,-1.5068,0.0,0.0,0.0,-1.5105,-1.5354,-1.5602,0.0,0.0,-1.6397,-1.6584,-1.6729,-1.675,-1.6786,-1.6857,-1.6857,-1.6857,-1.6857,-1.6857,-1.648,-1.5724,-1.6298,-1.6298,-1.5724,-1.6298,-1.6707,-1.6924,-1.6924,-1.6655,-1.6262,-1.6262,-1.5978,-1.5501,-1.6149,-1.6374,-1.6481,-1.7158,-1.7392,-1.7371,-1.6803,-1.6952,-1.7464,-1.7351,-1.7471,-1.7584,-1.7662,-1.7881,-1.8178,-1.8769,-1.8651,-1.8743,-1.9951,-1.9535,-1.8906,-1.963,-1.9177,-1.8615,-1.8615,-1.8046,-1.7463,-1.7463,-1.7463,-1.7674,-1.8318,-1.7891,-1.7463,-1.7463,-1.6942,-1.673,-1.7463,-1.7463,-1.7252,-1.663,-1.7153,-1.7569,-1.7779,-1.8206,-1.8527,-1.8736,-1.8527,-1.8527,-1.8736,-1.9361,-1.9783,-1.999,-2.0609,-2.0925,-2.0925,-2.0925,-2.0925,-2.0925,-2.0925,-2.0925,-1.3977,-1.392,-1.3799,-1.4209,-1.4464,-1.4843,-1.5295,-1.5529,-1.5517,-1.5289,-1.5741,0.0,0.0,0.0,0.0,0.0,0.0,0.0,-1.4734,-1.4482,-1.4237,0.0,-1.4243,0.0,-1.4859,-1.5013,-1.5246,0.0,-1.603,-1.6206,-1.6096,-1.6109,-1.6109,-1.6109,-1.6109,-1.6109,-1.6109,-1.5724,-1.5408,-1.5055,-1.5544,-1.5609,-1.5237,-1.5726,-1.6006,-1.6163,0.0,-1.595,-1.5695,-1.5695,-1.55,-1.5119,-1.5725,-1.5871,-1.5986,-1.6516,-1.6773,-1.6671,-1.6253,-1.6356,-1.6754,-1.6629,-1.6786,-1.711,-1.7238,-1.7592,-1.7897,-1.8405,-1.833,-1.837,-1.9286,-1.8911,-1.8527,-1.9049,-1.852,-1.7891,-1.7891,-1.7259,-1.6624,-1.6624,-1.6624,-1.673,-1.7259,-1.6942,-1.6624,-1.6624,-1.6205,-1.6099,-1.6518,-1.6624,-1.6411,-1.5998,-1.6311,-1.6836,-1.7147,-1.7259,-1.747,-1.7891,-1.747,-1.747,-1.7891,-1.8304,-1.8938,-1.968,-2.0094,-2.0403,-2.0403,-2.0712,-2.0719,-2.0403,-2.0719,-2.0925,-1.32,-1.3302,-1.3564,-1.4043,-1.4513,-1.4833,-1.4984,-1.5278,-1.5228,-1.4132,0.0,0.0,-1.4706,0.0,-1.5567,-1.5484,0.0,-1.4566,-1.4482,-1.3893,-1.358,-1.3619,-1.3355,-1.3545,-1.4443,-1.4167,-1.4333,-1.5229,-1.5913,-1.6015,-1.5248,-1.5242,-1.5242,-1.5242,-1.5287,-1.5306,-1.5306,-1.4672,-1.4527,-1.4769,-1.4769,-1.4883,-1.5107,-1.5107,-1.5125,-1.5161,0.0,0.0,-1.5215,-1.5215,-1.5215,-1.5234,-1.5463,-1.5553,-1.5578,-1.5807,-1.5891,-1.5891,-1.5891,-1.5891,-1.5849,-1.5626,-1.6062,-1.6724,-1.697,-1.7463,-1.8108,-1.8213,-1.8213,-1.8108,-1.8318,-1.8213,-1.8108,-1.8206,-1.7569,-1.7041,-1.7041,-1.6411,-1.5891,-1.5891,-1.5891,-1.5891,-1.5891,-1.5891,-1.5891,-1.5891,-1.5891,-1.5891,-1.5891,-1.5891,-1.5891,-1.5891,-1.5891,-1.6205,-1.6935,-1.6305,-1.6205,-1.6935,-1.6311,-1.6205,-1.7041,-1.7147,-1.7884,-1.9361,-1.9465,-1.9576,-1.9576,-2.0197,-2.0197,-1.9576,-2.0197,-2.0609,-1.1484,-1.2179,-1.3044,-1.3352,-1.4216,-1.4772,-1.4414,-1.4357,0.0,0.0,0.0,-1.4048,-1.3873,0.0,0.0,-1.4153,0.0,0.0,0.0,0.0,0.0,0.0,0.0,0.0,0.0,0.0,0.0,0.0,0.0,0.0,-1.449,-1.4484,-1.4484,-1.4484,-1.4716,-1.4839,-1.4839,-1.4959,-1.4992,-1.504,-1.504,-1.5065,-1.5107,-1.5107,-1.5228,-1.5433,0.0,0.0,-1.5753,-1.5753,-1.5753,-1.5759,-1.5807,-1.5819,-1.5831,-1.5873,-1.5891,-1.5891,-1.5891,-1.5891,-1.5885,-1.5837,-1.5925,-1.6037,-1.6086,-1.6205,-1.6524,-1.7259,-1.6942,-1.663,-1.8003,-1.7364,-1.6524,-1.7259,-1.673,-1.6099,-1.6099,-1.5998,-1.5891,-1.5891,-1.5891,-1.5891,-1.5891,-1.5891,-1.5891,-1.5891,-1.5891,-1.5891,-1.5891,-1.5891,-1.5891,-1.5891,-1.5891,-1.5998,-1.6099,-1.5998,-1.5998,-1.6099,-1.5998,-1.5992,-1.6099,-1.6836,-1.7358,-1.7674,-1.8311,-1.8632,-1.8632,-1.8736,-1.8736,-1.8632,-1.8736,-1.884,-1.1199,-1.163,-1.2144,-1.2654,-1.3108,-1.3448,-1.3387,0.0,0.0,0.0,0.0,0.0,-1.3027,0.0,0.0,0.0,0.0,0.0,0.0,0.0,0.0,0.0,0.0,0.0,0.0,0.0,0.0,0.0,0.0,0.0,-1.4298,-1.4437,-1.4515,-1.4515,-1.4781,-1.492,-1.492,-1.5046,-1.5179,-1.5312,-1.5312,-1.5384,-1.5517,-1.5517,-1.5584,-1.5698,-1.5698,0.0,-1.5891,-1.5891,-1.5891,-1.5891,-1.5891,-1.5891,-1.5891,-1.5891,-1.5891,-1.5891,-1.5891,-1.5891,-1.5891,-1.5891,-1.5891,-1.5891,-1.5891,-1.5891,-1.5998,-1.6418,-1.6205,-1.6099,-1.6836,-1.6524,-1.5998,-1.6411,-1.6205,-1.5891,-1.5891,-1.5891,-1.5891,-1.5891,-1.5891,-1.5891,-1.5891,-1.5891,-1.5891,-1.5891,-1.5891,-1.5891,-1.5891,-1.5891,-1.5891,-1.5891,-1.5891,-1.5891,-1.5891,-1.5891,-1.5891,-1.5891,-1.5891,-1.5891,-1.5891,-1.6311,-1.673,-1.7147,-1.7569,-1.7786,-1.7786,-1.8213,-1.8206,-1.7786,-1.8213,-1.8422,-1.081,-1.1074,-1.1382,-1.1852,-1.2094,-1.235,-1.2378,-1.2425,0.0,0.0,0.0,0.0,0.0,0.0,0.0,0.0,0.0,0.0,0.0,0.0,0.0,0.0,0.0,0.0,0.0,0.0,0.0,0.0,0.0,0.0,-1.4389,-1.46,-1.4745,-1.4799,-1.5059,-1.5191,-1.5191,-1.5246,-1.5378,-1.5584,-1.5584,-1.5692,-1.5891,-1.5891,-1.5891,-1.5891,-1.5891,0.0,0.0,-1.5891,-1.5891,-1.5891,-1.5891,-1.5891,-1.5891,-1.5891,-1.5891,-1.5891,-1.5891,-1.5891,-1.5891,-1.5891,-1.5891,-1.5891,-1.5891,-1.5891,-1.5891,-1.5891,-1.5891,-1.5891,-1.5891,-1.5891,-1.5891,-1.5891,-1.5891,-1.5891,-1.5891,-1.5891,-1.5891,-1.5891,-1.5891,-1.5891,-1.5891,-1.5891,-1.5891,-1.5891,-1.5891,-1.5891,-1.5891,-1.5891,-1.5891,-1.5891,-1.5891,-1.5891,-1.5891,-1.5891,-1.5891,-1.5891,-1.5891,-1.5891,-1.5891,-1.5891,-1.6205,-1.6935,-1.6935,-1.6935,-1.6935,-1.7575,-1.7575,-1.6935,-1.7575,-1.7891,-0.9198,-0.9946,-1.0805,-1.1062,-1.1876,-1.248,-1.166,0.0,0.0,0.0,0.0,0.0,0.0,0.0,0.0,0.0,0.0,0.0,0.0,0.0,0.0,0.0,0.0,0.0,0.0,0.0,0.0,0.0,0.0,0.0,0.0,-1.4702,-1.4823,-1.5065,-1.5324,-1.5463,-1.5463,-1.5698,-1.5831,-1.5855,-1.5855,-1.5867,-1.5891,-1.5891,-1.5891,-1.5891,0.0,0.0,0.0,-1.5891,-1.5891,-1.5891,-1.5891,-1.5891,-1.5891,-1.5891,-1.5891,-1.5891,-1.5891,-1.5891,-1.5891,-1.5891,-1.5891,-1.5891,-1.5891,-1.5891,-1.5891,-1.5891,-1.5891,-1.5891,-1.5891,-1.5891,-1.5891,-1.5891,-1.5891,-1.5891,-1.5891,-1.5891,-1.5891,-1.5891,-1.5891,-1.5891,-1.5891,-1.5891,-1.5891,-1.5891,-1.5891,-1.5891,-1.5891,-1.5891,-1.5891,-1.5891,-1.5891,-1.5891,-1.5891,-1.5891,-1.5891,-1.5891,-1.5891,-1.5891,-1.5891,-1.5891,-1.5891,-1.5992,-1.5992,-1.5992,-1.5992,-1.6099,-1.6099,-1.5992,-1.6099,-1.6099,-0.911,-0.9504,-0.9973,-1.0329,-1.0737,-1.0977,-1.0636,0.0,0.0,-1.0038,-1.0299,-1.0636,-1.1241,-1.1585,0.0,0.0,0.0,0.0,0.0,0.0,0.0,0.0,0.0,0.0,0.0,0.0,0.0,0.0,0.0,0.0,0.0,-1.4981,-1.5234,-1.5342,-1.5596,-1.5734,-1.5734,-1.5837,-1.5891,-1.5891,-1.5891,-1.5891,-1.5891,-1.5891,-1.5891,-1.5891,0.0,0.0,0.0,-1.5891,-1.5891,-1.5891,-1.5891,-1.5891,-1.5891,-1.5891,-1.5891,-1.5891,-1.5891,-1.5891,-1.5891,-1.5891,-1.5891,-1.5891,-1.5891,-1.5891,-1.5891,-1.5891,-1.5891,-1.5891,-1.5891,-1.5891,-1.5891,-1.5891,-1.5891,-1.5891,-1.5891,-1.5891,-1.5891,-1.5891,-1.5891,-1.5891,-1.5891,-1.5891,-1.5891,-1.5891,-1.5891,-1.5891,-1.5891,-1.5891,-1.5891,-1.5891,-1.5891,-1.5891,-1.5891,-1.5891,-1.5891,-1.5891,-1.5891,-1.5891,-1.5891,-1.5891,-1.5891,-1.5891,-1.5891,-1.5891,-1.5891,-1.5891,-1.5891,-1.5891,-1.5891,-1.5891,-0.8959,-0.9206,-0.9422,-0.9847,-1.0038,-1.0038,0.0,0.0,0.0,-0.9685,-0.9772,-1.0028,-1.0361,-1.0626,-1.0971,0.0,0.0,0.0,0.0,0.0,0.0,0.0,0.0,0.0,0.0,0.0,0.0,0.0,0.0,0.0,0.0,-1.4622,-1.4978,-1.5614,-1.5795,-1.5891,-1.5891,-1.5891,-1.5891,-1.5891,-1.5891,-1.5891,-1.5891,-1.5891,-1.5891,-1.5891,0.0,0.0,0.0,-1.5891,-1.5891,-1.5891,-1.5891,-1.5891,-1.5891,-1.5891,-1.5891,-1.5891,-1.5891,-1.5891,-1.5891,-1.5891,-1.5891,-1.5891,-1.5891,-1.5891,-1.5891,-1.5891,-1.5891,-1.5891,-1.5891,-1.5891,-1.5891,-1.5891,-1.5891,-1.5891,-1.5891,-1.5891,-1.5891,-1.5891,-1.5891,-1.5891,-1.5891,-1.5891,-1.5891,-1.5891,-1.5891,-1.5891,-1.5891,-1.5891,-1.5891,-1.5891,-1.5891,-1.5891,-1.5891,-1.5891,-1.5891,-1.5891,-1.5891,-1.5891,-1.5891,-1.5891,-1.5891,-1.5891,-1.5891,-1.5891,-1.5891,-1.5891,-1.5891,-1.5891,-1.5891,-1.5891,-0.8467,-0.8984,-0.9422,-0.9847,-1.0038,-1.0038,0.0,0.0,0.0,-0.9065,-0.9323,-0.9405,-0.8698,-0.9139,-0.9579,-0.9666,-0.984,0.0,0.0,0.0,0.0,0.0,0.0,0.0,0.0,0.0,0.0,0.0,0.0,0.0,0.0,-1.3281,-1.383,-1.5885,-1.5891,-1.5891,-1.5891,-1.5891,-1.5891,-1.5891,-1.5891,-1.5891,-1.5891,-1.5891,-1.5891,0.0,0.0,0.0,0.0,-1.5891,-1.5891,-1.5891,-1.5891,-1.5891,-1.5891,-1.5891,-1.5891,-1.5891,-1.5891,-1.5891,-1.5891,-1.5891,-1.5891,-1.5891,-1.5891,-1.5891,-1.5891,-1.5891,-1.5891,-1.5891,-1.5891,-1.5891,-1.5891,-1.5891,-1.5891,-1.5891,-1.5891,-1.5891,-1.5891,-1.5891,-1.5891,-1.5891,-1.5891,-1.5891,-1.5891,-1.5891,-1.5891,-1.5891,-1.5891,-1.5891,-1.5891,-1.5891,-1.5891,-1.5891,-1.5891,-1.5891,-1.5891,-1.5891,-1.5891,-1.5891,-1.5891,-1.5891,-1.5891,-1.5891,-1.5891,-1.5891,-1.5891,-1.5891,-1.5891,-1.5891,-1.5891,-1.5891,-0.7747,-0.7981,-0.8163,-0.8392,-0.8536,-0.8536,-0.8536,0.0,0.0,-0.8185,-0.8269,-0.8356,-0.8524,-0.8882,-0.9235,-0.9579,-0.9749,0.0,0.0,0.0,0.0,0.0,0.0,0.0,0.0,0.0,0.0,0.0,0.0,0.0,0.0,-1.1828,-1.2837,-1.4702,-1.4471,-1.4691,-1.525,-1.5678,-1.5891,-1.5891,-1.5891,-1.5891,-1.5891,-1.5891,0.0,0.0,0.0,0.0,0.0,-1.5891,-1.5891,-1.5891,-1.5891,-1.5891,-1.5891,-1.5891,-1.5891,-1.5891,-1.5891,-1.5891,-1.5891,-1.5891,-1.5891,-1.5891,-1.5891,-1.5891,-1.5891,-1.5891,-1.5891,-1.5891,-1.5891,-1.5891,-1.5891,-1.5891,-1.5891,-1.5891,-1.5891,-1.5891,-1.5891,-1.5891,-1.5891,-1.5891,-1.5891,-1.5891,-1.5891,-1.5891,-1.5891,-1.5891,-1.5891,-1.5891,-1.5891,-1.5891,-1.5891,-1.5891,-1.5891,-1.5891,-1.5891,-1.5891,-1.5891,-1.5891,-1.5891,-1.5891,-1.5891,-1.5891,-1.5891,-1.5891,-1.5891,-1.5891,-1.5891,-1.5891,-1.5891,-1.5891,0.0,-0.7343,-0.7547,-0.7793,-0.7834,0.0,0.0,0.0,0.0,-0.7482,-0.7394,-0.7394,-0.7482,-0.7658,-0.7925,-0.8356,-0.8619,0.0,0.0,0.0,0.0,0.0,0.0,0.0,0.0,0.0,0.0,0.0,0.0,0.0,0.0,0.0,-1.0988,-1.2526,-1.2729,-1.3378,-1.4482,-1.4905,-1.5339,-1.5891,-1.5891,-1.5891,-1.5891,-1.5891,0.0,0.0,0.0,0.0,0.0,-1.5024,-1.5244,-1.5351,-1.5779,-1.5891,-1.5891,-1.5891,-1.5891,-1.5891,-1.5891,-1.5891,-1.5891,-1.5891,-1.5891,-1.5891,-1.5891,-1.5891,-1.5891,-1.5891,-1.5891,-1.5891,-1.5891,-1.5891,-1.5891,-1.5891,-1.5891,-1.5891,-1.5891,-1.5891,-1.5891,-1.5891,-1.5891,-1.5891,-1.5891,-1.5891,-1.5891,-1.5891,-1.5891,-1.5891,-1.5891,-1.5891,-1.5891,-1.5891,-1.5891,-1.5891,-1.5891,-1.5891,-1.5891,-1.5891,-1.5891,-1.5891,-1.5891,-1.5891,-1.5891,-1.5891,-1.5891,-1.5891,-1.5891,-1.5891,-1.5891,-1.5891,-1.5891,-1.5891,0.0,0.0,0.0,0.0,0.0,0.0,0.0,0.0,0.0,0.0,0.0,-0.6517,-0.5822,-0.5908,-0.6171,-0.6343,-0.6621,0.0,0.0,0.0,0.0,0.0,0.0,0.0,0.0,0.0,0.0,0.0,0.0,0.0,0.0,0.0,-0.8813,-0.9578,-1.0655,-1.1955,-1.3485,-1.3593,-1.425,-1.5672,-1.5672,-1.5672,-1.5672,-1.5672,0.0,0.0,0.0,0.0,0.0,-1.3619,-1.4056,-1.4169,-1.5351,-1.5785,-1.5779,-1.5891,-1.5891,-1.5891,-1.5891,-1.5891,-1.5891,-1.5891,-1.5891,-1.5891,-1.5891,-1.5891,-1.5891,-1.5891,-1.5891,-1.5891,-1.5891,-1.5891,-1.5891,-1.5891,-1.5891,-1.5891,-1.5891,-1.5891,-1.5891,-1.5891,-1.5891,-1.5891,-1.5891,-1.5891,-1.5891,-1.5891,-1.5891,-1.5891,-1.5891,-1.5891,-1.5891,-1.5891,-1.5891,-1.5891,-1.5891,-1.5891,-1.5891,-1.5891,-1.5891,-1.5891,-1.5891,-1.5891,-1.5891,-1.5891,-1.5891,-1.5891,-1.5891,-1.5891,-1.5891,-1.5891,-1.5891,-1.5891,0.0,0.0,0.0,0.0,0.0,0.0,0.0,0.0,0.0,0.0,0.0,0.0,-0.5733,-0.5908,-0.6083,-0.6171,0.0,0.0,0.0,0.0,0.0,0.0,0.0,0.0,0.0,0.0,0.0,0.0,0.0,0.0,0.0,0.0,-0.7595,-0.7814,-0.8033,-0.9237,-1.1428,-1.2087,-1.2521,-1.2955,-1.3171,-1.3176,-1.3176,-1.3176,0.0,0.0,0.0,0.0,-1.2417,-1.2743,-1.2852,-1.296,-1.4159,-1.46,-1.4708,-1.5565,-1.5891,-1.5891,-1.5891,-1.5891,-1.5891,-1.5891,-1.5891,-1.5891,-1.5891,-1.5891,-1.5891,-1.5891,-1.5891,-1.5891,-1.5891,-1.5891,-1.5891,-1.5891,-1.5891,-1.5891,-1.5891,-1.5891,-1.5891,-1.5891,-1.5891,-1.5891,-1.5891,-1.5891,-1.5891,-1.5891,-1.5891,-1.5891,-1.5891,-1.5891,-1.5891,-1.5891,-1.5891,-1.5891,-1.5891,-1.5891,-1.5891,-1.5891,-1.5891,-1.5891,-1.5891,-1.5891,-1.5891,-1.5891,-1.5891,-1.5891,-1.5891,-1.5891,-1.5891,-1.5891,-1.5891,-1.5891,0.0,0.0,0.0,0.0,0.0,0.0,0.0,0.0,0.0,0.0,0.0,0.0,0.0,0.0,0.0,0.0,0.0,0.0,0.0,0.0,0.0,0.0,0.0,0.0,0.0,0.0,0.0,0.0,0.0,0.0,0.0,0.0,-0.7154,-0.7154,-0.7154,-0.8143,-1.0006,-1.055,-1.121,-1.1982,-1.22,-1.2309,-1.2417,-1.2417,0.0,0.0,0.0,0.0,-1.0785,-1.1437,-1.1651,-1.1764,-1.2965,-1.3398,-1.3398,-1.4046,-1.4589,-1.5137,-1.5137,-1.5137,-1.503,-1.4476,-1.4696,-1.5137,-1.5137,-1.5458,-1.5891,-1.5891,-1.5891,-1.5891,-1.5891,-1.5891,-1.5891,-1.5891,-1.5891,-1.5891,-1.5891,-1.5891,-1.5891,-1.5891,-1.5891,-1.5891,-1.5891,-1.5891,-1.5891,-1.5891,-1.5891,-1.5891,-1.5891,-1.5891,-1.5891,-1.5891,-1.5891,-1.5891,-1.5891,-1.5891,-1.5891,-1.5891,-1.5891,-1.5891,-1.5891,-1.5891,-1.5891,-1.5891,-1.5891,-1.5891,-1.5891,-1.5891,-1.5891,-1.5891,-1.6012,-1.6066,0.0,0.0,0.0,-0.5697,-0.5733,0.0,0.0,0.0,0.0,0.0,0.0,0.0,0.0,0.0,0.0,0.0,0.0,0.0,0.0,0.0,0.0,0.0,0.0,0.0,0.0,0.0,0.0,0.0,0.0,0.0,0.0,0.0,0.0,-0.7154,-0.7154,-0.7811,-0.9013,-0.9016,-0.9783,-1.1324,-1.1324,-1.1542,-1.176,-1.176,-1.1214,0.0,0.0,0.0,-0.8937,-1.0021,-1.0457,-1.0566,-1.1655,-1.2087,-1.22,-1.2309,-1.3073,-1.3948,-1.3948,-1.3948,-1.3727,-1.2743,-1.3073,-1.3948,-1.3948,-1.4702,-1.5678,-1.5678,-1.5785,-1.5891,-1.5891,-1.5891,-1.5891,-1.5891,-1.5891,-1.5891,-1.5891,-1.5891,-1.5891,-1.5891,-1.5891,-1.5891,-1.5891,-1.5891,-1.5891,-1.5891,-1.5891,-1.5891,-1.5891,-1.5891,-1.5891,-1.5891,-1.5785,-1.5678,-1.5891,-1.5785,-1.569,-1.5946,-1.591,-1.5891,-1.5891,-1.5891,-1.591,-1.5946,-1.5946,-1.597,-1.6012,-1.6012,-1.6012,-1.6018,-1.6241,-1.6344,-0.5237,0.0,0.0,-0.5678,-0.5733,0.0,0.0,0.0,0.0,0.0,0.0,0.0,0.0,0.0,0.0,0.0,0.0,0.0,0.0,0.0,0.0,0.0,0.0,0.0,0.0,0.0,0.0,0.0,0.0,0.0,0.0,0.0,0.0,-0.7154,-0.7154,-0.7265,-0.7482,-0.7709,-0.8045,-0.8266,-0.8484,-0.8592,-0.8702,-0.8702,-0.8702,0.0,0.0,-0.8819,-0.894,-0.9044,-0.9154,-0.9265,-1.0457,-1.1,-1.1109,-1.2087,-1.2526,-1.2635,-1.2635,-1.2635,-1.2635,-1.2417,-1.2526,-1.2635,-1.2635,-1.3506,-1.4487,-1.4487,-1.5137,-1.5891,-1.5891,-1.5891,-1.5891,-1.5891,-1.5891,-1.5891,-1.5891,-1.5891,-1.5891,-1.5891,-1.5891,-1.5891,-1.5891,-1.5891,-1.5891,-1.5891,-1.5891,-1.5891,-1.5891,-1.5891,-1.5891,-1.5891,-1.503,-1.4815,-1.5779,-1.503,-1.5007,-1.6205,-1.6012,-1.5891,-1.5891,-1.5891,-1.5994,-1.6217,-1.6223,-1.6338,-1.6579,-1.6579,-1.6579,-1.6579,-1.6616,-1.6634,-0.4901,-0.5299,0.0,-0.5687,-0.5741,0.0,0.0,0.0,0.0,0.0,0.0,0.0,0.0,0.0,0.0,0.0,0.0,0.0,0.0,0.0,0.0,0.0,0.0,0.0,0.0,0.0,0.0,0.0,0.0,0.0,0.0,0.0,0.0,0.0,-0.7154,-0.7154,-0.7154,-0.7268,-0.7493,-0.7607,-0.7715,-0.7826,-0.8045,-0.8045,-0.8045,-0.8263,0.0,-0.8266,-0.838,-0.8602,-0.8712,-0.8709,-0.9478,-0.9699,-0.9915,-1.1,-1.1437,-1.1437,-1.1437,-1.1437,-1.1328,-1.068,-1.1004,-1.1437,-1.1437,-1.2309,-1.3181,-1.3181,-1.4482,-1.5891,-1.5891,-1.5891,-1.5891,-1.5891,-1.5891,-1.5891,-1.5891,-1.5891,-1.5891,-1.5891,-1.5891,-1.5891,-1.5891,-1.5891,-1.5891,-1.5891,-1.5351,-1.503,-1.503,-1.4374,-1.4046,-1.4046,-1.3619,-1.3581,-1.4014,-1.3688,-1.4304,-1.6174,-1.6308,-1.6326,-1.6326,-1.6326,-1.605,-1.5489,-1.6168,-1.6227,-1.5659,-1.6352,-1.67,-1.6706,-1.6845,-1.6911,-0.4414,-0.49,0.0,0.0,0.0,0.0,0.0,0.0,0.0,0.0,0.0,0.0,0.0,0.0,0.0,0.0,0.0,0.0,0.0,0.0,0.0,0.0,0.0,0.0,0.0,0.0,0.0,0.0,0.0,0.0,0.0,0.0,0.0,0.0,-0.7154,-0.7154,-0.7154,-0.7154,-0.7268,-0.7493,-0.7493,-0.7604,-0.7823,-0.7823,-0.7823,-0.7934,-0.7934,-0.7934,-0.8045,-0.8263,-0.8374,-0.8374,-0.8602,-0.8716,-0.8933,-0.9801,-1.0237,-1.0241,-1.0241,-1.0241,-1.0131,-0.9154,-0.9482,-1.0241,-1.0241,-1.1109,-1.1978,-1.1978,-1.3501,-1.5125,-1.5125,-1.5238,-1.5458,-1.5458,-1.5678,-1.5891,-1.5891,-1.5891,-1.5891,-1.5891,-1.5891,-1.5891,-1.5891,-1.5678,-1.5458,-1.5458,-1.4487,-1.3727,-1.3727,-1.3009,-1.2488,-1.2488,-1.2344,-1.2244,-1.2244,-1.2766,-1.3725,-1.5467,-1.5704,-1.5783,-1.5783,-1.5783,-1.5355,-1.45,-1.5416,-1.5438,-1.4557,-1.5493,-1.6194,-1.6427,-1.6621,-1.6946,-0.4103,-0.3844,-0.3221,0.0,0.0,0.0,0.0,0.0,0.0,0.0,0.0,0.0,0.0,0.0,0.0,0.0,0.0,0.0,0.0,0.0,0.0,0.0,0.0,0.0,0.0,0.0,0.0,0.0,0.0,0.0,0.0,0.0,0.0,0.0,0.0,-0.7154,-0.7154,-0.7154,-0.7154,-0.7265,-0.7265,-0.7265,-0.7265,-0.7265,-0.7379,-0.7607,-0.7607,-0.7715,-0.8045,-0.8045,-0.8045,-0.8045,-0.8045,-0.8266,-0.8484,-0.8595,-0.8819,-0.9047,-0.9047,-0.9047,-0.9047,-0.8937,-0.8937,-0.9047,-0.9047,-0.9915,-1.0781,-1.0781,-1.176,-1.2635,-1.2635,-1.3506,-1.4272,-1.4272,-1.5137,-1.5891,-1.5891,-1.5891,-1.5891,-1.5891,-1.5891,-1.5891,-1.5891,-1.503,-1.4272,-1.4272,-1.329,-1.2526,-1.2526,-1.2587,-1.2599,-1.2599,-1.1768,-1.12,-1.12,-1.2521,-1.3329,-1.3548,-1.325,-1.3146,-1.3146,-1.3146,-1.3246,-1.3451,-1.3455,-1.3663,-1.3737,-1.3856,-1.4574,-1.5639,-1.566,-1.638,-0.1506,-0.2223,-0.3059,0.0,0.0,0.0,0.0,0.0,0.0,0.0,0.0,0.0,0.0,0.0,0.0,0.0,0.0,0.0,0.0,0.0,0.0,0.0,0.0,0.0,0.0,0.0,0.0,0.0,0.0,0.0,0.0,0.0,0.0,0.0,0.0,-0.7154,-0.7154,-0.7154,-0.7154,-0.7154,-0.7154,-0.7154,-0.7154,-0.7154,-0.7265,-0.7379,-0.7379,-0.7379,-0.7487,-0.7715,-0.7715,-0.7715,-0.7937,-0.8045,-0.8266,-0.8374,-0.8598,-0.8712,-0.8826,-0.894,-0.894,-0.894,-0.894,-0.894,-0.894,-0.9265,-0.9588,-0.9361,-0.9801,-1.057,-1.1982,-1.2743,-1.3073,-1.3073,-1.3393,-1.3717,-1.3717,-1.3717,-1.3717,-1.3717,-1.3717,-1.3717,-1.3717,-1.3393,-1.3073,-1.3073,-1.2202,-1.1505,-1.1505,-1.1001,-1.0661,-1.0661,-1.0357,-1.0144,-1.0238,-1.0774,-1.1168,-1.1168,-1.2522,-1.3424,-1.3424,-1.3424,-1.2994,-1.2362,-1.3077,-1.3232,-1.247,-1.3306,-1.3904,-1.4381,-1.4381,-1.4738,0.0,-0.086,-0.2029,-0.3501,0.0,0.0,0.0,0.0,0.0,0.0,0.0,0.0,0.0,0.0,0.0,0.0,0.0,0.0,0.0,0.0,0.0,0.0,0.0,0.0,0.0,0.0,0.0,0.0,0.0,0.0,0.0,0.0,0.0,0.0,0.0,-0.7154,-0.7154,-0.7154,-0.7154,-0.7154,-0.7154,-0.7154,-0.7154,-0.7154,-0.7154,-0.7154,-0.7154,-0.7154,-0.7265,-0.7379,-0.7493,-0.7493,-0.7712,-0.7823,-0.7937,-0.8156,-0.8377,-0.8484,-0.8712,-0.8826,-0.894,-0.894,-0.894,-0.894,-0.894,-0.8826,-0.8712,-0.8598,-0.8602,-0.904,-1.0672,-1.1542,-1.1873,-1.1873,-1.2087,-1.2417,-1.2417,-1.2417,-1.2417,-1.2417,-1.2417,-1.2417,-1.2417,-1.2142,-1.1968,-1.1968,-1.1027,-1.0466,-1.0466,-0.9816,-0.9469,-0.9513,-0.9612,-0.9717,-0.9812,-0.9822,-0.9822,-0.9822,-1.1503,-1.2462,-1.2462,-1.2462,-1.1985,-1.1148,-1.1985,-1.1985,-1.1148,-1.1985,-1.2706,-1.3066,-1.3066,-1.3306,0.0,0.0,0.0,0.0,0.0,0.0,0.0,0.0,0.0,0.0,0.0,0.0,0.0,0.0,0.0,0.0,0.0,0.0,0.0,0.0,0.0,0.0,0.0,0.0,0.0,0.0,0.0,0.0,0.0,0.0,0.0,0.0,0.0,0.0,0.0,0.0,-0.7154,-0.7154,-0.7154,-0.7154,-0.7154,-0.7154,-0.7154,-0.7154,-0.7154,-0.7154,-0.7154,-0.7154,-0.7154,-0.7154,-0.7154,-0.7154,-0.7154,-0.7379,-0.7607,-0.7607,-0.7937,-0.8484,-0.8484,-0.8712,-0.894,-0.894,-0.894,-0.8937,-0.8937,-0.8712,-0.8484,-0.8484,-0.8266,-0.8045,-0.8374,-0.9578,-1.0672,-1.0672,-1.1542,-1.2417,-1.2417,-1.2417,-1.2417,-1.2417,-1.2417,-1.2417,-1.2417,-1.1487,-1.0835,-1.0835,-1.0082,-0.9384,-0.9384,-0.9517,-0.9666,-0.9805,-0.9822,-0.9822,-0.9822,-0.9822,-0.9822,-0.9822,-0.9822,-0.9822,-0.9822,-0.9822,-0.9822,-0.9822,-0.9822,-0.9822,-0.9822,-0.9822,-1.0425,-1.1631,-1.1631,-1.235,0.0,0.0,0.0,0.0,0.0,0.0,0.0,0.0,0.0,0.0,0.0,0.0,0.0,0.0,0.0,0.0,0.0,0.0,0.0,0.0,0.0,0.0,0.0,0.0,0.0,0.0,0.0,0.0,0.0,0.0,0.0,0.0,0.0,0.0,0.0,0.0,-0.7154,-0.7154,-0.7154,-0.7154,-0.7154,-0.7154,-0.7154,-0.7154,-0.7154,-0.7154,-0.7154,-0.7154,-0.7154,-0.7154,-0.7154,-0.7154,-0.7154,-0.7265,-0.7379,-0.7493,-0.7715,-0.7937,-0.8374,-0.8598,-0.8598,-0.8826,-0.8823,-0.8598,-0.8598,-0.8377,-0.8156,-0.7937,-0.8045,-0.8266,-0.8152,-0.8819,-0.9482,-0.9482,-0.9699,-0.9919,-0.9919,-0.9919,-0.9919,-0.9919,-1.0009,-1.0196,-1.0196,-1.0004,-0.9885,-0.9885,-0.9676,-0.9578,-0.968,-0.973,-0.9774,-0.9815,-0.9822,-0.9822,-0.9822,-0.9822,-0.9822,-0.9822,-0.9822,-0.9822,-0.9822,-0.9822,-0.9822,-0.9822,-0.9822,-0.9822,-0.9822,-0.9822,-0.994,-1.0304,-1.0304,-1.0543,0.0,0.0,0.0,0.0,0.0,0.0,0.0,0.0,0.0,0.0,0.0,0.0,0.0,0.0,0.0,0.0,0.0,0.0,0.0,0.0,0.0,0.0,0.0,0.0,0.0,0.0,0.0,0.0,0.0,0.0,0.0,0.0,0.0,0.0,0.0,0.0,-0.7154,-0.7154,-0.7154,-0.7154,-0.7154,-0.7154,-0.7154,-0.7154,-0.7154,-0.7154,-0.7154,-0.7154,-0.7154,-0.7154,-0.7154,-0.7154,-0.7154,-0.7154,-0.7265,-0.7379,-0.7493,-0.7715,-0.8156,-0.8374,-0.8484,-0.8712,-0.8598,-0.8484,-0.8374,-0.8045,-0.7826,-0.7607,-0.7823,-0.7931,-0.7823,-0.8159,-0.8602,-0.883,-0.894,-0.894,-0.894,-0.8984,-0.9025,-0.9025,-0.9144,-0.9245,-0.9245,-0.9371,-0.9473,-0.9473,-0.9598,-0.9724,-0.9812,-0.9822,-0.9822,-0.9822,-0.9822,-0.9822,-0.9822,-0.9822,-0.9822,-0.9822,-0.9822,-0.9822,-0.9822,-0.9822,-0.9822,-0.9822,-0.9822,-0.9822,-0.9822,-0.9822,-0.9822,-0.9822,-0.9822,-0.9822,0.0,0.0,0.0,0.0,0.0,0.0,0.0,0.0,0.0,0.0,0.0,0.0,0.0,0.0,0.0,0.0,0.0,0.0,0.0,0.0,0.0,0.0,0.0,0.0,0.0,0.0,0.0,0.0,0.0,0.0,0.0,0.0,0.0,0.0,0.0,0.0,-0.7154,-0.7154,-0.7154,0.0,-0.7154,-0.7154,-0.7154,-0.7154,-0.7154,-0.7154,-0.7154,-0.7154,-0.7154,-0.7154,-0.7154,-0.7154,-0.7154,-0.7154,-0.7154,-0.7154,-0.7379,-0.7607,-0.7934,-0.8156,-0.8484,-0.8484,-0.8484,-0.8374,-0.8045,-0.7826,-0.7607,-0.7607,-0.7382,-0.7268,-0.7493,-0.7826,-0.8159,-0.8732,-0.8957,-0.8957,-0.8957,-0.9072,-0.9174,-0.9174,-0.9296,-0.9401,-0.9401,-0.953,-0.9629,-0.9629,-0.9737,-0.9822,-0.9822,-0.9822,-0.9822,-0.9822,-0.9822,-0.9822,-0.9822,-0.9822,-0.9822,-0.9822,-0.9822,-0.9822,-0.9822,-0.9822,-0.9822,-0.9822,-0.9822,-0.9822,-0.9822,-0.9822,-0.9815,-0.9802,-0.9802,-0.9795,0.0,0.0,0.0,0.0,0.0,0.0,0.0,0.0,0.0,0.0,0.0,0.0,0.0,0.0,0.0,0.0,0.0,0.0,0.0,0.0,0.0,0.0,0.0,0.0,0.0,0.0,0.0,0.0,0.0,0.0,0.0,0.0,0.0,0.0,0.0,-0.7154,-0.7154,-0.7154,-0.7154,0.0,-0.7154,-0.7154,-0.7154,-0.7154,-0.7154,-0.7154,-0.7154,-0.7154,-0.7154,-0.7154,-0.7154,-0.7154,-0.7154,-0.7154,-0.7154,-0.7154,-0.7379,-0.7607,-0.7934,-0.8045,-0.8156,-0.8374,-0.8156,-0.7826,-0.7715,-0.7493,-0.7268,-0.7268,-0.7379,-0.7493,-0.7607,-0.7826,-0.8072,-0.863,-0.8994,-0.9106,-0.9106,-0.9225,-0.9334,-0.9334,-0.9456,-0.9561,-0.9561,-0.968,-0.9774,-0.9774,-0.9802,-0.9822,-0.9822,-0.9822,-0.9822,-0.9822,-0.9822,-0.9822,-0.9822,-0.9822,-0.9822,-0.9822,-0.9822,-0.9822,-0.9822,-0.9822,-0.9822,-0.9822,-0.9822,-0.9822,-0.9822,-0.9822,-0.9764,-0.9656,-0.9656,-0.9591,0.0,0.0,0.0,0.0,0.0,0.0,0.0,0.0,0.0,0.0,0.0,0.0,0.0,0.0,0.0,0.0,0.0,0.0,0.0,0.0,0.0,0.0,0.0,0.0,0.0,0.0,0.0,0.0,0.0,0.0,0.0,0.0,0.0,0.0,-0.7154,-0.7154,-0.7154,-0.7154,-0.7154,-0.7154,-0.7154,-0.7154,-0.7154,-0.7154,-0.7154,-0.7154,-0.7154,-0.7154,-0.7154,-0.7154,-0.7154,-0.7154,-0.7154,-0.7154,-0.7154,-0.7154,-0.7268,-0.7493,-0.7715,-0.7826,-0.7826,-0.8048,-0.7826,-0.7607,-0.7493,-0.7268,-0.7154,-0.7154,-0.7268,-0.7396,-0.7455,-0.7691,-0.806,-0.8422,-0.8749,-0.9061,-0.9245,-0.9384,-0.949,-0.949,-0.9608,-0.971,-0.971,-0.9771,-0.9822,-0.9822,-0.9822,-0.9822,-0.9822,-0.9822,-0.9822,-0.9822,-0.9822,-0.9822,-0.9822,-0.9822,-0.9822,-0.9822,-0.9822,-0.9822,-0.9822,-0.9822,-0.9822,-0.9822,-0.9822,-0.9788,-0.972,-0.972,-0.9646,-0.95,-0.95,-0.9456,0.0,0.0,0.0,0.0,0.0,0.0,0.0,0.0,0.0,0.0,0.0,0.0,0.0,0.0,0.0,0.0,0.0,0.0,0.0,0.0,0.0,0.0,0.0,0.0,0.0,0.0,0.0,0.0,0.0,0.0,0.0,0.0,-0.7154,-0.7154,-0.7154,-0.7154,-0.7154,-0.7154,-0.7154,-0.7154,-0.7154,-0.7154,-0.7154,-0.7154,-0.7154,-0.7154,-0.7154,-0.7154,-0.7154,-0.7154,-0.7154,-0.7154,-0.7154,-0.7154,-0.7154,-0.7154,-0.7265,-0.7268,-0.7493,-0.7607,-0.7607,-0.7607,-0.7607,-0.7493,-0.7268,-0.7154,-0.7154,-0.7154,-0.7171,-0.7209,-0.7309,-0.7578,-0.7852,-0.8212,-0.8512,-0.8807,-0.9275,-0.954,-0.9646,-0.9646,-0.9741,-0.9822,-0.9822,-0.9822,-0.9822,-0.9822,-0.9822,-0.9822,-0.9822,-0.9822,-0.9822,-0.9822,-0.9822,-0.9822,-0.9822,-0.9822,-0.9822,-0.9822,-0.9822,-0.9822,-0.9822,-0.9798,-0.9785,-0.9785,-0.9785,-0.9727,-0.9608,-0.9585,-0.9493,-0.9344,-0.9344,-0.9327,0.0,0.0,0.0,0.0,0.0,0.0,0.0,0.0,0.0,0.0,0.0,0.0,0.0,0.0,0.0,0.0,0.0,0.0,0.0,0.0,0.0,0.0,0.0,0.0,0.0,0.0,0.0,0.0,0.0,0.0,0.0,-0.7163,-0.7154,-0.7154,-0.7154,-0.7154,-0.7154,-0.7154,-0.7154,-0.7154,-0.7154,-0.7154,-0.7154,-0.7154,-0.7154,-0.7154,-0.7154,-0.7154,-0.7154,-0.7154,-0.7154,-0.7154,-0.7154,-0.7154,-0.7154,-0.7154,-0.7379,-0.7607,-0.7607,-0.7607,-0.7607,-0.7607,-0.7493,-0.7265,-0.7265,-0.7154,-0.7154,-0.7154,-0.723,-0.7315,-0.7331,-0.7413,-0.7641,-0.8118,-0.8491,-0.8838,-0.9456,-0.9693,-0.9791,-0.9791,-0.9808,-0.9822,-0.9822,-0.9822,-0.9822,-0.9822,-0.9822,-0.9822,-0.9822,-0.9822,-0.9822,-0.9822,-0.9822,-0.9822,-0.9822,-0.9822,-0.9822,-0.9822,-0.9822,-0.9822,-0.9822,-0.9703,-0.9639,-0.9639,-0.9639,-0.9629,-0.9608,-0.9476,-0.9334,-0.9184,-0.9184,-0.9117,0.0,0.0,0.0,0.0,0.0,0.0,0.0,0.0,0.0,0.0,0.0,0.0,0.0,0.0,0.0,0.0,0.0,0.0,0.0,0.0,0.0,0.0,0.0,0.0,0.0,0.0,0.0,0.0,0.0,0.0,-0.7075,-0.7176,-0.7171,-0.7171,-0.716,-0.7154,-0.7154,-0.7154,-0.7154,-0.7154,-0.7154,-0.7154,-0.7154,-0.7154,-0.7154,-0.7154,-0.7154,-0.7154,-0.7154,-0.7154,-0.7154,-0.7154,-0.7154,-0.7154,-0.7154,-0.7154,-0.7268,-0.7379,-0.7379,-0.7379,-0.7379,-0.7379,-0.7268,-0.7154,-0.7154,-0.7154,-0.7168,-0.7236,-0.7293,-0.7366,-0.7505,-0.7581,-0.7771,-0.8254,-0.8406,-0.8645,-0.9248,-0.9657,-0.9822,-0.9822,-0.9822,-0.9822,-0.9822,-0.9822,-0.9822,-0.9822,-0.9822,-0.9822,-0.9822,-0.9822,-0.9822,-0.9822,-0.9822,-0.9822,-0.9822,-0.9822,-0.9822,-0.9822,-0.9822,-0.9785,-0.9707,-0.9642,-0.9568,-0.9483,-0.9483,-0.9439,-0.9354,-0.9286,-0.9178,-0.9032,-0.9032,-0.8998,0.0,0.0,0.0,0.0,0.0,0.0,0.0,0.0,0.0,0.0,0.0,0.0,0.0,0.0,0.0,0.0,0.0,0.0,0.0,0.0,0.0,0.0,0.0,0.0,0.0,0.0,0.0,0.0,0.0,-0.1567,-0.5158,-0.5942,-0.6616,-0.7187,-0.7171,-0.7163,-0.7163,-0.7157,-0.7154,-0.7154,-0.7154,-0.7154,-0.7154,-0.7154,-0.7154,-0.7154,-0.7154,-0.7154,-0.7154,-0.7154,-0.7154,-0.7154,-0.7154,-0.7154,-0.7154,-0.7154,-0.7154,-0.7154,-0.7154,-0.7154,-0.7154,-0.7154,-0.7154,-0.716,-0.719,-0.7201,-0.7225,-0.7347,-0.7404,-0.747,-0.7655,-0.7722,-0.7889,-0.8224,-0.8369,-0.8613,-0.9217,-0.9579,-0.9822,-0.9822,-0.9822,-0.9822,-0.9822,-0.9822,-0.9822,-0.9822,-0.9822,-0.9822,-0.9822,-0.9822,-0.9822,-0.9822,-0.9822,-0.9822,-0.9822,-0.9822,-0.9822,-0.9822,-0.9788,-0.972,-0.9612,-0.9534,-0.9439,-0.9323,-0.9286,-0.9232,-0.9154,-0.9117,-0.9045,-0.894,-0.894,-0.894,0.0,0.0,0.0,0.0,0.0,0.0,0.0,0.0,0.0,0.0,0.0,0.0,0.0,0.0,0.0,0.0,0.0,0.0,0.0,0.0,0.0,0.0,0.0,0.0,0.0,0.0,0.0,0.0,0.0,-0.0112,-0.0336,-0.2573,-0.4817,-0.7081,-0.7187,-0.7182,-0.7182,-0.7163,-0.7154,-0.7154,-0.7154,-0.7154,-0.7154,-0.7154,-0.7154,-0.7154,-0.7154,-0.7154,-0.7154,-0.7154,-0.7154,-0.7154,-0.7154,-0.7154,-0.7154,-0.7154,-0.7154,-0.7154,-0.7154,-0.7154,-0.7154,-0.7154,-0.7154,-0.7176,-0.729,-0.7326,-0.735,-0.7475,-0.7592,-0.7687,-0.7698,-0.7782,-0.7864,-0.7869,-0.8122,-0.8613,-0.9217,-0.9579,-0.9822,-0.9822,-0.9822,-0.9822,-0.9822,-0.9822,-0.9822,-0.9822,-0.9822,-0.9822,-0.9822,-0.9822,-0.9822,-0.9822,-0.9822,-0.9822,-0.9822,-0.9822,-0.9822,-0.9822,-0.9693,-0.9615,-0.9608,-0.933,-0.9171,-0.9164,-0.9032,-0.9025,-0.9154,-0.9015,-0.8947,-0.894,-0.894,-0.894,0.0,0.0,0.0,0.0,0.0,0.0,0.0,0.0,0.0,0.0,0.0,0.0,0.0,0.0,0.0,0.0,0.0,0.0,0.0,0.0,0.0,0.0,0.0,0.0,0.0,0.0,0.0,0.0,0.0,0.0,0.0,-0.0784,-0.235,-0.4823,-0.4929,-0.5601,-0.7182,-0.7182,-0.7173,-0.7154,-0.7168,-0.7165,-0.7154,-0.7154,-0.7154,-0.7154,-0.7154,-0.7154,-0.7154,-0.7154,-0.7154,-0.7154,-0.7154,-0.7154,-0.7154,-0.7154,-0.7154,-0.7154,-0.7154,-0.7154,-0.7154,-0.7154,-0.7206,-0.7279,-0.7323,-0.7391,-0.7478,-0.7603,-0.7668,-0.772,-0.7793,-0.7839,-0.7872,-0.7872,-0.8119,-0.8491,-0.8732,-0.9095,-0.9457,-0.9457,-0.97,-0.9822,-0.9822,-0.9822,-0.9822,-0.9822,-0.9822,-0.9822,-0.9822,-0.9822,-0.9822,-0.9822,-0.9822,-0.9822,-0.9822,-0.9737,-0.9686,-0.9686,-0.9544,-0.9418,-0.932,-0.9211,-0.911,-0.9018,-0.8964,-0.8964,-0.9015,-0.8964,-0.894,-0.894,-0.894,-0.8988,0.0,0.0,0.0,0.0,0.0,0.0,0.0,0.0,0.0,0.0,0.0,0.0,0.0,0.0,0.0,0.0,0.0,0.0,0.0,0.0,0.0,0.0,0.0,0.0,0.0,0.0,0.0,0.0,0.0,0.0,0.0,0.0,-0.0784,-0.2352,-0.235,-0.358,-0.594,-0.685,-0.6844,-0.6035,-0.6839,-0.7179,-0.7165,-0.7165,-0.716,-0.7154,-0.7154,-0.7154,-0.7154,-0.7154,-0.7154,-0.7154,-0.7154,-0.7154,-0.7154,-0.7154,-0.7154,-0.7154,-0.7154,-0.7154,-0.7163,-0.7201,-0.7271,-0.735,-0.7434,-0.7516,-0.7606,-0.7725,-0.7758,-0.7777,-0.785,-0.7872,-0.7872,-0.7872,-0.8119,-0.8244,-0.8244,-0.8729,-0.9217,-0.9335,-0.9457,-0.97,-0.9819,-0.9822,-0.9822,-0.9822,-0.9822,-0.97,-0.97,-0.97,-0.97,-0.97,-0.97,-0.9802,-0.9754,-0.9663,-0.9588,-0.9537,-0.9391,-0.9259,-0.9157,-0.9106,-0.9035,-0.894,-0.894,-0.896,-0.9011,-0.896,-0.8964,-0.9011,-0.9011,-0.9089,0.0,0.0,0.0,0.0,0.0,0.0,0.0,0.0,0.0,0.0,0.0,0.0,0.0,0.0,0.0,0.0,0.0,0.0,0.0,0.0,0.0,0.0,0.0,0.0,0.0,0.0,0.0,0.0,0.0,0.0,0.0,0.0,0.0,0.0,0.0,-0.1119,-0.3467,-0.5833,-0.5833,-0.358,-0.5947,-0.7075,-0.7067,-0.7182,-0.7173,-0.7157,-0.7154,-0.7154,-0.7154,-0.7154,-0.7154,-0.7154,-0.7154,-0.7154,-0.7154,-0.7154,-0.7154,-0.7154,-0.716,-0.716,-0.7179,-0.7301,-0.7345,-0.7391,-0.763,-0.7703,-0.7731,-0.7839,-0.7872,-0.7872,-0.7872,-0.7872,-0.7872,-0.7872,-0.7872,-0.7872,-0.7872,-0.8363,-0.8976,-0.9217,-0.9335,-0.9335,-0.97,-0.9822,-0.9822,-0.9822,-0.9819,-0.97,-0.9335,-0.9579,-0.9697,-0.9329,-0.9572,-0.9758,-0.9615,-0.9598,-0.9534,-0.9384,-0.9232,-0.9147,-0.9147,-0.9011,-0.894,-0.894,-0.8944,-0.9015,-0.9154,-0.9015,-0.9018,-0.9161,-0.9164,-0.9245,0.5678,0.0,0.0,0.0,0.0,0.0,0.0,0.0,0.0,0.0,0.0,0.0,0.0,0.0,0.0,0.0,0.0,0.0,0.0,0.0,0.0,0.0,0.0,0.0,0.0,0.0,0.0,0.0,0.0,0.0,0.0,0.0,0.0,0.0,0.0,-0.0336,-0.1007,-0.168,-0.2576,-0.358,-0.2462,-0.291,-0.4702,-0.6391,-0.7179,-0.7173,-0.716,-0.7154,-0.7154,-0.7154,-0.7154,-0.7154,-0.7154,-0.7154,-0.7154,-0.7154,-0.7154,-0.7168,-0.7255,-0.7285,-0.7304,-0.7429,-0.7529,-0.7614,-0.7682,-0.7761,-0.7831,-0.7861,-0.7872,-0.7872,-0.7872,-0.7872,-0.7872,-0.7872,-0.7872,-0.7872,-0.7872,-0.7994,-0.8241,-0.861,-0.8854,-0.9098,-0.9098,-0.9095,-0.9217,-0.9457,-0.9217,-0.9217,-0.9335,-0.9217,-0.9057,-0.8837,-0.8944,-0.9007,-0.9108,-0.8884,-0.8807,-0.9218,-0.8848,-0.8768,-0.8998,-0.896,-0.894,-0.894,-0.9042,-0.9113,-0.9154,-0.9113,-0.9171,-0.932,-0.9192,-0.9144,0.0,0.0,0.0,0.0,0.0,0.0,0.0,0.4966,0.0,0.0,0.0,0.0,0.0,0.0,0.0,0.0,0.0,0.0,0.0,0.0,0.0,0.0,0.0,0.0,0.0,0.0,0.0,0.0,0.0,0.0,0.0,0.0,0.0,0.0,0.0,0.0,0.0,0.0,-0.0672,-0.2127,-0.0672,-0.0784,-0.2125,-0.358,-0.5266,-0.7187,-0.7176,-0.7171,-0.7165,-0.7165,-0.7163,-0.7154,-0.7154,-0.7154,-0.7154,-0.7154,-0.7187,-0.7239,-0.7309,-0.7369,-0.7432,-0.7554,-0.7644,-0.7709,-0.7758,-0.7818,-0.7872,-0.7872,-0.7872,-0.7872,-0.7872,-0.7872,-0.7872,-0.7872,-0.7872,-0.7872,-0.7872,-0.7872,-0.7994,-0.8369,-0.8613,-0.8732,-0.8854,-0.8854,-0.8976,-0.9095,-0.8973,-0.8854,-0.8973,-0.8806,-0.8738,-0.854,-0.8598,-0.8629,-0.8612,-0.8413,-0.8452,-0.8726,-0.8422,-0.8377,-0.8712,-0.8602,-0.8631,-0.9025,-0.8997,-0.9131,-0.9198,-0.9079,-0.9126,-0.9097,-0.9115,-0.9089,0.0,0.0,0.0,0.0,0.0,0.0,0.5748,0.5716,0.579,0.0,0.0,0.0,0.0,0.0,0.0,0.0,0.0,0.0,0.0,0.0,0.0,0.0,0.0,0.0,0.0,0.0,0.0,0.0,0.0,0.0,0.0,0.0,0.0,0.0,0.0,0.0,0.0,0.0,0.0,0.0,0.0,0.0,0.0,0.0,-0.2351,-0.64,-0.674,-0.685,-0.6842,-0.707,-0.7173,-0.7154,-0.7154,-0.7154,-0.7157,-0.7171,-0.7241,-0.7339,-0.7366,-0.7448,-0.7559,-0.7682,-0.772,-0.7739,-0.7839,-0.7872,-0.7872,-0.7872,-0.7872,-0.7872,-0.7872,-0.7872,-0.7872,-0.7872,-0.7872,-0.7872,-0.7872,-0.7872,-0.7994,-0.8244,-0.8369,-0.8491,-0.8732,-0.8732,-0.8854,-0.8854,-0.8854,-0.8726,-0.8471,-0.8486,-0.8518,-0.8135,-0.8263,-0.8369,-0.8243,-0.8231,-0.8176,-0.8054,-0.7946,-0.8177,-0.8399,-0.8205,-0.8392,-0.9087,-0.8895,-0.8873,-0.9261,-0.9013,-0.89,-0.89,-0.8898,-0.9016,0.0,0.0,0.0,0.0,0.0,0.0,0.5818,0.5925,0.5749,0.0,0.0,0.0,0.0,0.0,0.0,0.0,0.0,0.0,0.0,0.0,0.0,0.0,0.0,0.0,0.0,0.0,0.0,0.0,0.0,0.0,0.0,0.0,0.0,0.0,0.0,0.0,0.0,0.0,0.0,0.0,0.0,0.0,0.0,0.0,-0.0559,-0.1567,-0.3469,-0.4254,-0.4477,-0.6398,-0.7179,-0.7154,-0.7154,-0.7154,-0.7168,-0.7266,-0.7315,-0.7364,-0.7562,-0.7646,-0.7684,-0.7801,-0.7839,-0.7842,-0.7864,-0.7872,-0.7872,-0.7872,-0.7872,-0.7872,-0.7872,-0.7872,-0.7872,-0.7872,-0.7872,-0.7872,-0.7872,-0.7872,-0.7872,-0.7994,-0.7994,-0.7994,-0.8116,-0.8116,-0.8241,-0.8491,-0.8241,-0.8083,-0.8225,-0.8073,-0.7743,-0.7544,-0.7497,-0.755,-0.7768,-0.7527,-0.7627,-0.7934,-0.7921,-0.7978,-0.821,-0.8414,-0.8543,-0.8685,-0.8908,-0.9113,-0.9298,-0.9243,-0.912,-0.9172,-0.8819,-0.8718,0.0,0.0,0.0,0.5986,0.0,0.0,0.0,0.6042,0.6024,0.0,0.0,0.0,0.0,0.0,0.0,0.0,0.0,0.0,0.0,0.0,0.0,0.0,0.0,0.0,0.0,0.0,0.0,0.0,0.0,0.0,0.0,0.0,0.0,0.0,0.0,0.0,0.0,0.0,0.0,0.0,0.0,0.0,0.0,0.0,0.0,-0.0112,-0.1232,-0.2464,-0.3808,-0.6179,-0.6542,-0.5547,-0.6797,-0.7252,-0.7266,-0.7383,-0.7464,-0.7535,-0.766,-0.7739,-0.7799,-0.7864,-0.7886,-0.7886,-0.7891,-0.7888,-0.7883,-0.7875,-0.7872,-0.7872,-0.7872,-0.7872,-0.7872,-0.7872,-0.7872,-0.7872,-0.7872,-0.7872,-0.7872,-0.7872,-0.7872,-0.7872,-0.7872,-0.7872,-0.7994,-0.8119,-0.7947,-0.7886,-0.7948,-0.7713,-0.7472,-0.7347,-0.7336,-0.7312,-0.748,-0.7417,-0.745,-0.7678,-0.7795,-0.7866,-0.8102,-0.8164,-0.8294,-0.8601,-0.8866,-0.9035,-0.9098,-0.9027,-0.8897,-0.884,-0.8582,-0.8612,0.0,0.0,0.0,0.0,0.0,0.5996,0.0,0.0,0.0,0.0,0.0,0.0,0.0,0.0,0.0,0.0,0.0,0.0,0.0,0.0,0.0,0.0,0.0,0.0,0.0,0.0,0.0,0.0,0.0,0.0,0.0,0.0,0.0,0.0,0.0,0.0,0.0,0.0,0.0,0.0,0.0,0.0,0.0,0.0,0.0,0.0,0.0,-0.1121,-0.3027,-0.4959,-0.4889,-0.3789,-0.5853,-0.7021,-0.7404,-0.7516,-0.7619,-0.7709,-0.7733,-0.7801,-0.7883,-0.7896,-0.7526,-0.7153,-0.716,-0.7531,-0.7899,-0.7883,-0.788,-0.788,-0.788,-0.788,-0.788,-0.788,-0.788,-0.788,-0.788,-0.7877,-0.7877,-0.7877,-0.7875,-0.7872,-0.7872,-0.7872,-0.7864,-0.7842,-0.7761,-0.7693,-0.7668,-0.7494,-0.7372,-0.7372,-0.7372,-0.7372,-0.7372,-0.7462,-0.7529,-0.7551,-0.7668,-0.7864,-0.8125,-0.8025,-0.8154,-0.8655,-0.8736,-0.8839,-0.897,-0.8673,-0.8541,-0.8451,-0.8451,-0.85,0.0,0.0,0.0,0.0,0.6064,0.0,0.0,0.0,0.0,0.0,0.0,0.0,0.0,0.0,0.0,0.0,0.0,0.0,0.0,0.0,0.0,0.0,0.0,0.0,0.0,0.0,0.0,0.0,0.0,0.0,0.0,0.0,0.0,0.0,0.0,0.0,0.0,0.0,0.0,0.0,0.0,0.0,0.0,0.0,0.0,0.0,0.0,-0.0112,-0.0449,-0.0684,-0.1951,-0.3683,-0.3904,-0.5448,-0.7434,-0.7541,-0.7472,-0.7498,-0.785,-0.7896,-0.7907,-0.791,-0.6289,-0.4307,-0.4307,-0.6039,-0.791,-0.7907,-0.7907,-0.7907,-0.7907,-0.7907,-0.7907,-0.7907,-0.7907,-0.7907,-0.7907,-0.7902,-0.7896,-0.7896,-0.7883,-0.7872,-0.7872,-0.7872,-0.7837,-0.7736,-0.7709,-0.7663,-0.7554,-0.7513,-0.7497,-0.7497,-0.7497,-0.7497,-0.7497,-0.751,-0.7565,-0.7674,-0.7788,-0.7902,-0.8132,-0.8233,-0.8538,-0.9048,-0.8817,-0.8831,-0.9094,-0.8712,-0.8581,-0.8568,-0.8568,-0.8573,0.0,0.0,0.0,0.0,0.0,0.0,0.0,0.0,0.638,0.0,0.0,0.0,0.0,0.0,0.0,0.0,0.0,0.0,0.0,0.0,0.0,0.0,0.0,0.0,0.0,0.0,0.0,0.0,0.0,0.0,0.0,0.0,0.0,0.0,0.0,0.0,0.0,0.0,0.0,0.0,0.0,0.0,0.0,0.0,0.0,0.0,0.0,0.0,0.0,0.0,-0.0581,-0.1538,-0.1536,-0.2134,-0.3346,-0.4853,-0.5369,-0.5374,-0.5533,-0.5546,-0.5796,-0.7424,-0.5061,-0.1602,-0.1601,-0.2463,-0.3574,-0.5176,-0.5546,-0.5546,-0.5546,-0.5546,-0.5546,-0.5546,-0.5546,-0.5546,-0.5546,-0.5544,-0.6037,-0.7656,-0.7899,-0.7894,-0.7894,-0.7883,-0.7856,-0.7807,-0.7744,-0.7684,-0.763,-0.7562,-0.7519,-0.7519,-0.7581,-0.7625,-0.7625,-0.775,-0.785,-0.7902,-0.8084,-0.8242,-0.8359,-0.8462,-0.867,-0.8851,-0.872,-0.872,-0.8853,-0.872,-0.8587,-0.8587,-0.8587,-0.8587,0.7034,0.0,0.0,0.0,0.0,0.0,0.0,0.0,0.0,0.0,0.0,0.0,0.0,0.0,0.0,0.0,0.0,0.0,0.0,0.0,0.0,0.0,0.0,0.0,0.0,0.0,0.0,0.0,0.0,0.0,0.0,0.0,0.0,0.0,0.0,0.0,0.0,0.0,0.0,0.0,0.0,0.0,0.0,0.0,0.0,0.0,0.0,0.0,0.0,0.0,0.0,0.0,0.0,0.0,-0.0243,-0.2084,-0.2831,-0.2831,-0.2831,-0.2831,-0.3202,-0.5068,-0.3088,0.0,0.0,0.0,-0.037,-0.234,-0.2831,-0.2831,-0.2831,-0.2831,-0.2831,-0.2831,-0.2831,-0.2831,-0.2831,-0.2831,-0.3446,-0.5302,-0.6293,-0.6789,-0.6789,-0.7396,-0.7872,-0.7958,-0.7763,-0.7709,-0.7709,-0.7512,-0.7471,-0.7622,-0.7731,-0.7801,-0.7801,-0.7986,-0.8119,-0.8152,-0.835,-0.8503,-0.8584,-0.8587,-0.8587,-0.8587,-0.8587,-0.8587,-0.8587,-0.8587,-0.8587,-0.8587,-0.8587,-0.8587,0.0,0.0,0.0,0.6431,0.0,0.0,0.0,0.0,0.6437,0.0,0.0,0.0,0.0,0.0,0.0,0.0,0.0,0.0,0.0,0.0,0.0,0.0,0.0,0.0,0.0,0.0,0.0,0.0,0.0,0.0,0.0,0.0,0.0,0.0,0.0,0.0,0.0,0.0,0.0,0.0,0.0,0.0,0.0,0.0,0.0,0.0,0.0,0.0,0.0,0.0,0.0,0.0,0.0,0.0,-0.0,-0.0123,-0.0123,-0.0123,-0.0123,-0.0123,-0.0123,-0.0247,-0.0123,0.0,0.0,0.0,-0.0,-0.0123,-0.0123,-0.0123,-0.0123,-0.0123,-0.0123,-0.0123,-0.0123,-0.0123,-0.0123,-0.0123,-0.0123,-0.0246,-0.2339,-0.406,-0.406,-0.6164,-0.7872,-0.7875,-0.7853,-0.7851,-0.7485,-0.7483,-0.7645,-0.7886,-0.7992,-0.8057,-0.8057,-0.8163,-0.828,-0.8399,-0.8516,-0.8584,-0.8587,-0.8587,-0.8587,-0.8587,-0.8587,-0.8587,-0.8587,-0.8587,-0.8587,-0.8587,-0.8587,-0.8587,0.0,0.0,0.7039,0.6936,0.0,0.0,0.0,0.0,0.0,0.0,0.0,0.0,0.0,0.0,0.0,0.0,0.0,0.0,0.0,0.0,0.0,0.0,0.0,0.0,0.0,0.0,0.0,0.0,0.0,0.0,0.0,0.0,0.0,0.0,0.0,0.0,0.0,0.0,0.0,0.0,0.0,0.0,0.0,0.0,0.0,0.0,0.0,0.0,0.0,0.0,0.0,0.0,0.0,0.0,0.0,0.0,0.0,0.0,0.0,0.0,0.0,0.0,0.0,0.0,0.0,0.0,0.0,0.0,0.0,0.0,0.0,0.0,0.0,0.0,0.0,0.0,0.0,0.0,0.0,0.0,-0.2097,-0.3951,-0.3951,-0.4695,-0.5302,-0.5262,-0.5256,-0.5255,-0.5133,-0.5133,-0.5163,-0.5243,-0.5272,-0.6072,-0.7941,-0.8304,-0.8413,-0.8522,-0.8565,-0.8587,-0.8587,-0.8587,-0.8587,-0.8587,-0.8587,-0.8587,-0.8587,-0.8587,-0.8587,-0.8587,-0.8587,-0.8587,0.7646,0.7444,0.0,0.7238,0.7238,0.0,0.6942,0.0,0.0,0.0,0.0,0.0,0.0,0.0,0.0,0.0,0.0,0.0,0.0,0.0,0.0,0.0,0.0,0.0,0.0,0.0,0.0,0.0,0.0,0.0,0.0,0.0,0.0,0.0,0.0,0.0,0.0,0.0,0.0,0.0,0.0,0.0,0.0,0.0,0.0,0.0,0.0,0.0,0.0,0.0,0.0,0.0,0.0,0.0,0.0,0.0,0.0,0.0,0.0,0.0,0.0,0.0,0.0,0.0,0.0,0.0,0.0,0.0,0.0,0.0,0.0,0.0,0.0,0.0,0.0,0.0,0.0,0.0,0.0,0.0,-0.1359,-0.2471,-0.2471,-0.2471,-0.247,-0.2464,-0.2463,-0.2468,-0.2482,-0.2483,-0.2497,-0.2535,-0.255,-0.3731,-0.6541,-0.7795,-0.853,-0.8598,-0.8603,-0.8603,-0.8603,-0.8598,-0.8598,-0.8598,-0.859,-0.8587,-0.8587,-0.8587,-0.8587,-0.8587,-0.8587,-0.8587]}]]